<?xml version="1.0" encoding="UTF-8" standalone="no" ?>
<gpx xmlns="http://www.topografix.com/GPX/1/1" xmlns:xsi="http://www.w3.org/2001/XMLSchema-instance" xsi:schemaLocation="http://www.topografix.com/GPX/1/1 http://www.topografix.com/GPX/1/1/gpx.xsd" version="1.1" creator="VisuGPX - https://www.visugpx.com">
  <metadata>
    <name>L'Estivale 2012</name>
    <desc><![CDATA[Parcours très roulant de 58,5 km et 1800 m de D.
Organisation sans faille ]]></desc>
  </metadata>
  <trk>
    <name><![CDATA[L'Estivale 2012]]></name>
    <trkseg>
      <trkpt lat="46.28609" lon="4.76519">
        <ele>216.43</ele>
        <time>2012-05-13T05:49:25Z</time>
      </trkpt>
      <trkpt lat="46.28609" lon="4.76519">
        <ele>213.07</ele>
        <time>2012-05-13T05:49:26Z</time>
      </trkpt>
      <trkpt lat="46.28609" lon="4.76519">
        <ele>217.4</ele>
        <time>2012-05-13T05:49:27Z</time>
      </trkpt>
      <trkpt lat="46.28609" lon="4.76519">
        <ele>216.43</ele>
        <time>2012-05-13T05:49:28Z</time>
      </trkpt>
      <trkpt lat="46.28609" lon="4.76518">
        <ele>215.47</ele>
        <time>2012-05-13T05:49:32Z</time>
      </trkpt>
      <trkpt lat="46.2861" lon="4.76521">
        <ele>220.28</ele>
        <time>2012-05-13T05:49:44Z</time>
      </trkpt>
      <trkpt lat="46.2861" lon="4.76521">
        <ele>217.4</ele>
        <time>2012-05-13T05:49:45Z</time>
      </trkpt>
      <trkpt lat="46.28609" lon="4.76521">
        <ele>216.43</ele>
        <time>2012-05-13T05:49:47Z</time>
      </trkpt>
      <trkpt lat="46.28609" lon="4.76522">
        <ele>216.91</ele>
        <time>2012-05-13T05:50:28Z</time>
      </trkpt>
      <trkpt lat="46.2861" lon="4.76522">
        <ele>215.95</ele>
        <time>2012-05-13T05:51:18Z</time>
      </trkpt>
      <trkpt lat="46.2861" lon="4.76522">
        <ele>215.95</ele>
        <time>2012-05-13T05:51:51Z</time>
      </trkpt>
      <trkpt lat="46.2861" lon="4.76522">
        <ele>216.43</ele>
        <time>2012-05-13T05:52:06Z</time>
      </trkpt>
      <trkpt lat="46.28624" lon="4.76527">
        <ele>216.43</ele>
        <time>2012-05-13T05:52:15Z</time>
      </trkpt>
      <trkpt lat="46.28704" lon="4.76514">
        <ele>217.4</ele>
        <time>2012-05-13T05:52:39Z</time>
      </trkpt>
      <trkpt lat="46.28762" lon="4.76508">
        <ele>220.76</ele>
        <time>2012-05-13T05:52:56Z</time>
      </trkpt>
      <trkpt lat="46.28815" lon="4.76526">
        <ele>220.76</ele>
        <time>2012-05-13T05:53:13Z</time>
      </trkpt>
      <trkpt lat="46.28855" lon="4.76546">
        <ele>217.88</ele>
        <time>2012-05-13T05:53:24Z</time>
      </trkpt>
      <trkpt lat="46.28961" lon="4.76589">
        <ele>216.43</ele>
        <time>2012-05-13T05:53:50Z</time>
      </trkpt>
      <trkpt lat="46.29065" lon="4.7663">
        <ele>213.55</ele>
        <time>2012-05-13T05:54:14Z</time>
      </trkpt>
      <trkpt lat="46.29118" lon="4.76649">
        <ele>213.07</ele>
        <time>2012-05-13T05:54:26Z</time>
      </trkpt>
      <trkpt lat="46.29174" lon="4.76666">
        <ele>213.07</ele>
        <time>2012-05-13T05:54:42Z</time>
      </trkpt>
      <trkpt lat="46.2922" lon="4.76676">
        <ele>212.11</ele>
        <time>2012-05-13T05:54:53Z</time>
      </trkpt>
      <trkpt lat="46.2925" lon="4.7668">
        <ele>208.26</ele>
        <time>2012-05-13T05:54:59Z</time>
      </trkpt>
      <trkpt lat="46.29275" lon="4.76681">
        <ele>204.9</ele>
        <time>2012-05-13T05:55:04Z</time>
      </trkpt>
      <trkpt lat="46.29308" lon="4.7668">
        <ele>201.53</ele>
        <time>2012-05-13T05:55:09Z</time>
      </trkpt>
      <trkpt lat="46.29314" lon="4.7668">
        <ele>201.53</ele>
        <time>2012-05-13T05:55:10Z</time>
      </trkpt>
      <trkpt lat="46.29338" lon="4.76676">
        <ele>197.21</ele>
        <time>2012-05-13T05:55:14Z</time>
      </trkpt>
      <trkpt lat="46.2936" lon="4.76684">
        <ele>193.84</ele>
        <time>2012-05-13T05:55:18Z</time>
      </trkpt>
      <trkpt lat="46.29373" lon="4.76708">
        <ele>191.44</ele>
        <time>2012-05-13T05:55:22Z</time>
      </trkpt>
      <trkpt lat="46.29375" lon="4.76722">
        <ele>190.96</ele>
        <time>2012-05-13T05:55:24Z</time>
      </trkpt>
      <trkpt lat="46.29376" lon="4.76736">
        <ele>191.44</ele>
        <time>2012-05-13T05:55:26Z</time>
      </trkpt>
      <trkpt lat="46.29374" lon="4.7676">
        <ele>190.96</ele>
        <time>2012-05-13T05:55:30Z</time>
      </trkpt>
      <trkpt lat="46.2937" lon="4.76792">
        <ele>190.48</ele>
        <time>2012-05-13T05:55:35Z</time>
      </trkpt>
      <trkpt lat="46.29365" lon="4.7681">
        <ele>190</ele>
        <time>2012-05-13T05:55:38Z</time>
      </trkpt>
      <trkpt lat="46.29363" lon="4.76849">
        <ele>190</ele>
        <time>2012-05-13T05:55:46Z</time>
      </trkpt>
      <trkpt lat="46.29366" lon="4.76856">
        <ele>190</ele>
        <time>2012-05-13T05:55:50Z</time>
      </trkpt>
      <trkpt lat="46.29368" lon="4.76862">
        <ele>190</ele>
        <time>2012-05-13T05:55:56Z</time>
      </trkpt>
      <trkpt lat="46.29374" lon="4.76869">
        <ele>189.52</ele>
        <time>2012-05-13T05:56:03Z</time>
      </trkpt>
      <trkpt lat="46.29377" lon="4.76872">
        <ele>190</ele>
        <time>2012-05-13T05:56:08Z</time>
      </trkpt>
      <trkpt lat="46.29373" lon="4.76859">
        <ele>190.48</ele>
        <time>2012-05-13T05:56:20Z</time>
      </trkpt>
      <trkpt lat="46.29368" lon="4.76855">
        <ele>190</ele>
        <time>2012-05-13T05:56:26Z</time>
      </trkpt>
      <trkpt lat="46.29367" lon="4.76853">
        <ele>190.96</ele>
        <time>2012-05-13T05:56:37Z</time>
      </trkpt>
      <trkpt lat="46.29372" lon="4.76796">
        <ele>190</ele>
        <time>2012-05-13T05:56:56Z</time>
      </trkpt>
      <trkpt lat="46.29377" lon="4.76762">
        <ele>191.44</ele>
        <time>2012-05-13T05:57:05Z</time>
      </trkpt>
      <trkpt lat="46.29373" lon="4.76698">
        <ele>192.4</ele>
        <time>2012-05-13T05:57:24Z</time>
      </trkpt>
      <trkpt lat="46.29351" lon="4.76672">
        <ele>195.77</ele>
        <time>2012-05-13T05:57:39Z</time>
      </trkpt>
      <trkpt lat="46.2933" lon="4.76673">
        <ele>198.65</ele>
        <time>2012-05-13T05:57:50Z</time>
      </trkpt>
      <trkpt lat="46.29323" lon="4.76674">
        <ele>200.09</ele>
        <time>2012-05-13T05:57:53Z</time>
      </trkpt>
      <trkpt lat="46.29297" lon="4.76679">
        <ele>203.46</ele>
        <time>2012-05-13T05:58:04Z</time>
      </trkpt>
      <trkpt lat="46.29286" lon="4.76678">
        <ele>204.42</ele>
        <time>2012-05-13T05:58:10Z</time>
      </trkpt>
      <trkpt lat="46.29278" lon="4.76675">
        <ele>205.86</ele>
        <time>2012-05-13T05:58:15Z</time>
      </trkpt>
      <trkpt lat="46.2925" lon="4.76675">
        <ele>209.22</ele>
        <time>2012-05-13T05:58:28Z</time>
      </trkpt>
      <trkpt lat="46.29222" lon="4.76669">
        <ele>212.59</ele>
        <time>2012-05-13T05:58:42Z</time>
      </trkpt>
      <trkpt lat="46.29193" lon="4.76668">
        <ele>213.55</ele>
        <time>2012-05-13T05:58:53Z</time>
      </trkpt>
      <trkpt lat="46.29152" lon="4.76661">
        <ele>212.59</ele>
        <time>2012-05-13T05:59:08Z</time>
      </trkpt>
      <trkpt lat="46.29125" lon="4.76651">
        <ele>212.59</ele>
        <time>2012-05-13T05:59:25Z</time>
      </trkpt>
      <trkpt lat="46.29124" lon="4.76651">
        <ele>213.55</ele>
        <time>2012-05-13T05:59:45Z</time>
      </trkpt>
      <trkpt lat="46.29125" lon="4.76639">
        <ele>213.07</ele>
        <time>2012-05-13T05:59:58Z</time>
      </trkpt>
      <trkpt lat="46.29125" lon="4.76638">
        <ele>212.59</ele>
        <time>2012-05-13T06:00:00Z</time>
      </trkpt>
      <trkpt lat="46.2913" lon="4.76628">
        <ele>214.03</ele>
        <time>2012-05-13T06:00:06Z</time>
      </trkpt>
      <trkpt lat="46.29133" lon="4.76619">
        <ele>214.99</ele>
        <time>2012-05-13T06:00:11Z</time>
      </trkpt>
      <trkpt lat="46.29137" lon="4.76601">
        <ele>216.91</ele>
        <time>2012-05-13T06:00:21Z</time>
      </trkpt>
      <trkpt lat="46.29135" lon="4.7659">
        <ele>218.84</ele>
        <time>2012-05-13T06:00:30Z</time>
      </trkpt>
      <trkpt lat="46.29137" lon="4.76588">
        <ele>219.8</ele>
        <time>2012-05-13T06:00:35Z</time>
      </trkpt>
      <trkpt lat="46.29145" lon="4.76585">
        <ele>219.32</ele>
        <time>2012-05-13T06:00:42Z</time>
      </trkpt>
      <trkpt lat="46.29174" lon="4.76593">
        <ele>220.28</ele>
        <time>2012-05-13T06:00:57Z</time>
      </trkpt>
      <trkpt lat="46.29214" lon="4.76609">
        <ele>220.28</ele>
        <time>2012-05-13T06:01:14Z</time>
      </trkpt>
      <trkpt lat="46.29228" lon="4.76613">
        <ele>218.84</ele>
        <time>2012-05-13T06:01:18Z</time>
      </trkpt>
      <trkpt lat="46.29249" lon="4.76617">
        <ele>216.91</ele>
        <time>2012-05-13T06:01:24Z</time>
      </trkpt>
      <trkpt lat="46.29257" lon="4.76616">
        <ele>219.8</ele>
        <time>2012-05-13T06:01:30Z</time>
      </trkpt>
      <trkpt lat="46.29264" lon="4.76615">
        <ele>221.24</ele>
        <time>2012-05-13T06:01:35Z</time>
      </trkpt>
      <trkpt lat="46.2928" lon="4.766">
        <ele>222.68</ele>
        <time>2012-05-13T06:01:38Z</time>
      </trkpt>
      <trkpt lat="46.29289" lon="4.76592">
        <ele>222.68</ele>
        <time>2012-05-13T06:01:42Z</time>
      </trkpt>
      <trkpt lat="46.29322" lon="4.76538">
        <ele>218.84</ele>
        <time>2012-05-13T06:01:54Z</time>
      </trkpt>
      <trkpt lat="46.29342" lon="4.76475">
        <ele>217.88</ele>
        <time>2012-05-13T06:02:08Z</time>
      </trkpt>
      <trkpt lat="46.2935" lon="4.7644">
        <ele>218.84</ele>
        <time>2012-05-13T06:02:17Z</time>
      </trkpt>
      <trkpt lat="46.29355" lon="4.76414">
        <ele>218.84</ele>
        <time>2012-05-13T06:02:22Z</time>
      </trkpt>
      <trkpt lat="46.29362" lon="4.7637">
        <ele>214.51</ele>
        <time>2012-05-13T06:02:30Z</time>
      </trkpt>
      <trkpt lat="46.2936" lon="4.76349">
        <ele>213.07</ele>
        <time>2012-05-13T06:02:33Z</time>
      </trkpt>
      <trkpt lat="46.29361" lon="4.76323">
        <ele>208.26</ele>
        <time>2012-05-13T06:02:37Z</time>
      </trkpt>
      <trkpt lat="46.29329" lon="4.7627">
        <ele>210.19</ele>
        <time>2012-05-13T06:02:51Z</time>
      </trkpt>
      <trkpt lat="46.29324" lon="4.76258">
        <ele>210.67</ele>
        <time>2012-05-13T06:02:55Z</time>
      </trkpt>
      <trkpt lat="46.29317" lon="4.7624">
        <ele>209.22</ele>
        <time>2012-05-13T06:03:01Z</time>
      </trkpt>
      <trkpt lat="46.29317" lon="4.76219">
        <ele>209.22</ele>
        <time>2012-05-13T06:03:06Z</time>
      </trkpt>
      <trkpt lat="46.29314" lon="4.76211">
        <ele>208.74</ele>
        <time>2012-05-13T06:03:08Z</time>
      </trkpt>
      <trkpt lat="46.29316" lon="4.7616">
        <ele>206.34</ele>
        <time>2012-05-13T06:03:18Z</time>
      </trkpt>
      <trkpt lat="46.29315" lon="4.76158">
        <ele>205.86</ele>
        <time>2012-05-13T06:03:19Z</time>
      </trkpt>
      <trkpt lat="46.29318" lon="4.76141">
        <ele>204.42</ele>
        <time>2012-05-13T06:03:23Z</time>
      </trkpt>
      <trkpt lat="46.29339" lon="4.76123">
        <ele>200.09</ele>
        <time>2012-05-13T06:03:30Z</time>
      </trkpt>
      <trkpt lat="46.29361" lon="4.76118">
        <ele>200.09</ele>
        <time>2012-05-13T06:03:37Z</time>
      </trkpt>
      <trkpt lat="46.29366" lon="4.76116">
        <ele>199.61</ele>
        <time>2012-05-13T06:03:40Z</time>
      </trkpt>
      <trkpt lat="46.29378" lon="4.76117">
        <ele>199.61</ele>
        <time>2012-05-13T06:03:55Z</time>
      </trkpt>
      <trkpt lat="46.29382" lon="4.76118">
        <ele>200.09</ele>
        <time>2012-05-13T06:04:12Z</time>
      </trkpt>
      <trkpt lat="46.29389" lon="4.76123">
        <ele>200.57</ele>
        <time>2012-05-13T06:04:30Z</time>
      </trkpt>
      <trkpt lat="46.29401" lon="4.76134">
        <ele>200.57</ele>
        <time>2012-05-13T06:04:37Z</time>
      </trkpt>
      <trkpt lat="46.29426" lon="4.76137">
        <ele>203.94</ele>
        <time>2012-05-13T06:04:50Z</time>
      </trkpt>
      <trkpt lat="46.29435" lon="4.76136">
        <ele>206.34</ele>
        <time>2012-05-13T06:04:55Z</time>
      </trkpt>
      <trkpt lat="46.29448" lon="4.76132">
        <ele>207.3</ele>
        <time>2012-05-13T06:04:59Z</time>
      </trkpt>
      <trkpt lat="46.29466" lon="4.76124">
        <ele>208.74</ele>
        <time>2012-05-13T06:05:04Z</time>
      </trkpt>
      <trkpt lat="46.29463" lon="4.76114">
        <ele>209.22</ele>
        <time>2012-05-13T06:05:10Z</time>
      </trkpt>
      <trkpt lat="46.29427" lon="4.76039">
        <ele>211.63</ele>
        <time>2012-05-13T06:05:37Z</time>
      </trkpt>
      <trkpt lat="46.29401" lon="4.75969">
        <ele>214.51</ele>
        <time>2012-05-13T06:05:58Z</time>
      </trkpt>
      <trkpt lat="46.29377" lon="4.75894">
        <ele>216.43</ele>
        <time>2012-05-13T06:06:19Z</time>
      </trkpt>
      <trkpt lat="46.29371" lon="4.75827">
        <ele>220.28</ele>
        <time>2012-05-13T06:06:37Z</time>
      </trkpt>
      <trkpt lat="46.29344" lon="4.75774">
        <ele>223.16</ele>
        <time>2012-05-13T06:06:54Z</time>
      </trkpt>
      <trkpt lat="46.29313" lon="4.75721">
        <ele>226.53</ele>
        <time>2012-05-13T06:07:12Z</time>
      </trkpt>
      <trkpt lat="46.29282" lon="4.75674">
        <ele>229.41</ele>
        <time>2012-05-13T06:07:29Z</time>
      </trkpt>
      <trkpt lat="46.29263" lon="4.75637">
        <ele>232.3</ele>
        <time>2012-05-13T06:07:42Z</time>
      </trkpt>
      <trkpt lat="46.29276" lon="4.75547">
        <ele>234.22</ele>
        <time>2012-05-13T06:08:03Z</time>
      </trkpt>
      <trkpt lat="46.2929" lon="4.75498">
        <ele>236.62</ele>
        <time>2012-05-13T06:08:15Z</time>
      </trkpt>
      <trkpt lat="46.29299" lon="4.75447">
        <ele>239.02</ele>
        <time>2012-05-13T06:08:27Z</time>
      </trkpt>
      <trkpt lat="46.29294" lon="4.75371">
        <ele>240.95</ele>
        <time>2012-05-13T06:08:44Z</time>
      </trkpt>
      <trkpt lat="46.29296" lon="4.75264">
        <ele>242.87</ele>
        <time>2012-05-13T06:09:07Z</time>
      </trkpt>
      <trkpt lat="46.2928" lon="4.75172">
        <ele>243.35</ele>
        <time>2012-05-13T06:09:26Z</time>
      </trkpt>
      <trkpt lat="46.29286" lon="4.75112">
        <ele>243.83</ele>
        <time>2012-05-13T06:09:38Z</time>
      </trkpt>
      <trkpt lat="46.29287" lon="4.75101">
        <ele>242.87</ele>
        <time>2012-05-13T06:09:40Z</time>
      </trkpt>
      <trkpt lat="46.29289" lon="4.75081">
        <ele>241.91</ele>
        <time>2012-05-13T06:09:43Z</time>
      </trkpt>
      <trkpt lat="46.29279" lon="4.75003">
        <ele>239.02</ele>
        <time>2012-05-13T06:09:53Z</time>
      </trkpt>
      <trkpt lat="46.2927" lon="4.74938">
        <ele>236.62</ele>
        <time>2012-05-13T06:10:00Z</time>
      </trkpt>
      <trkpt lat="46.2927" lon="4.74914">
        <ele>236.14</ele>
        <time>2012-05-13T06:10:03Z</time>
      </trkpt>
      <trkpt lat="46.29267" lon="4.74882">
        <ele>236.62</ele>
        <time>2012-05-13T06:10:08Z</time>
      </trkpt>
      <trkpt lat="46.29266" lon="4.74857">
        <ele>236.14</ele>
        <time>2012-05-13T06:10:12Z</time>
      </trkpt>
      <trkpt lat="46.29264" lon="4.74759">
        <ele>236.14</ele>
        <time>2012-05-13T06:10:30Z</time>
      </trkpt>
      <trkpt lat="46.29261" lon="4.74738">
        <ele>236.62</ele>
        <time>2012-05-13T06:10:34Z</time>
      </trkpt>
      <trkpt lat="46.29237" lon="4.74629">
        <ele>240.47</ele>
        <time>2012-05-13T06:10:55Z</time>
      </trkpt>
      <trkpt lat="46.29241" lon="4.74598">
        <ele>240.47</ele>
        <time>2012-05-13T06:11:01Z</time>
      </trkpt>
      <trkpt lat="46.29258" lon="4.74588">
        <ele>239.99</ele>
        <time>2012-05-13T06:11:06Z</time>
      </trkpt>
      <trkpt lat="46.29295" lon="4.74518">
        <ele>242.39</ele>
        <time>2012-05-13T06:11:24Z</time>
      </trkpt>
      <trkpt lat="46.29317" lon="4.74411">
        <ele>244.31</ele>
        <time>2012-05-13T06:11:47Z</time>
      </trkpt>
      <trkpt lat="46.2934" lon="4.74345">
        <ele>247.68</ele>
        <time>2012-05-13T06:12:03Z</time>
      </trkpt>
      <trkpt lat="46.29353" lon="4.74294">
        <ele>251.04</ele>
        <time>2012-05-13T06:12:16Z</time>
      </trkpt>
      <trkpt lat="46.29355" lon="4.74278">
        <ele>251.04</ele>
        <time>2012-05-13T06:12:21Z</time>
      </trkpt>
      <trkpt lat="46.29367" lon="4.74278">
        <ele>252.48</ele>
        <time>2012-05-13T06:12:27Z</time>
      </trkpt>
      <trkpt lat="46.29393" lon="4.74289">
        <ele>255.37</ele>
        <time>2012-05-13T06:12:39Z</time>
      </trkpt>
      <trkpt lat="46.29418" lon="4.74297">
        <ele>258.73</ele>
        <time>2012-05-13T06:12:51Z</time>
      </trkpt>
      <trkpt lat="46.29435" lon="4.74299">
        <ele>261.62</ele>
        <time>2012-05-13T06:13:00Z</time>
      </trkpt>
      <trkpt lat="46.29452" lon="4.74299">
        <ele>264.02</ele>
        <time>2012-05-13T06:13:09Z</time>
      </trkpt>
      <trkpt lat="46.29494" lon="4.74294">
        <ele>267.38</ele>
        <time>2012-05-13T06:13:29Z</time>
      </trkpt>
      <trkpt lat="46.29522" lon="4.74295">
        <ele>267.86</ele>
        <time>2012-05-13T06:13:41Z</time>
      </trkpt>
      <trkpt lat="46.29535" lon="4.74307">
        <ele>266.9</ele>
        <time>2012-05-13T06:13:47Z</time>
      </trkpt>
      <trkpt lat="46.29601" lon="4.74316">
        <ele>263.54</ele>
        <time>2012-05-13T06:14:06Z</time>
      </trkpt>
      <trkpt lat="46.29627" lon="4.74318">
        <ele>260.65</ele>
        <time>2012-05-13T06:14:12Z</time>
      </trkpt>
      <trkpt lat="46.29637" lon="4.74317">
        <ele>259.69</ele>
        <time>2012-05-13T06:14:14Z</time>
      </trkpt>
      <trkpt lat="46.29648" lon="4.74317">
        <ele>257.77</ele>
        <time>2012-05-13T06:14:16Z</time>
      </trkpt>
      <trkpt lat="46.29676" lon="4.74311">
        <ele>254.41</ele>
        <time>2012-05-13T06:14:21Z</time>
      </trkpt>
      <trkpt lat="46.29698" lon="4.74306">
        <ele>251.52</ele>
        <time>2012-05-13T06:14:26Z</time>
      </trkpt>
      <trkpt lat="46.29718" lon="4.74296">
        <ele>248.64</ele>
        <time>2012-05-13T06:14:31Z</time>
      </trkpt>
      <trkpt lat="46.29734" lon="4.74294">
        <ele>245.75</ele>
        <time>2012-05-13T06:14:35Z</time>
      </trkpt>
      <trkpt lat="46.29756" lon="4.74294">
        <ele>239.99</ele>
        <time>2012-05-13T06:14:39Z</time>
      </trkpt>
      <trkpt lat="46.29772" lon="4.74294">
        <ele>236.62</ele>
        <time>2012-05-13T06:14:41Z</time>
      </trkpt>
      <trkpt lat="46.29798" lon="4.74292">
        <ele>233.26</ele>
        <time>2012-05-13T06:14:44Z</time>
      </trkpt>
      <trkpt lat="46.29824" lon="4.74294">
        <ele>230.37</ele>
        <time>2012-05-13T06:14:48Z</time>
      </trkpt>
      <trkpt lat="46.29834" lon="4.74296">
        <ele>229.41</ele>
        <time>2012-05-13T06:14:51Z</time>
      </trkpt>
      <trkpt lat="46.29839" lon="4.74308">
        <ele>228.45</ele>
        <time>2012-05-13T06:14:56Z</time>
      </trkpt>
      <trkpt lat="46.29843" lon="4.74397">
        <ele>227.49</ele>
        <time>2012-05-13T06:15:13Z</time>
      </trkpt>
      <trkpt lat="46.29844" lon="4.74416">
        <ele>226.53</ele>
        <time>2012-05-13T06:15:16Z</time>
      </trkpt>
      <trkpt lat="46.29863" lon="4.74548">
        <ele>223.64</ele>
        <time>2012-05-13T06:15:35Z</time>
      </trkpt>
      <trkpt lat="46.29868" lon="4.74602">
        <ele>223.16</ele>
        <time>2012-05-13T06:15:43Z</time>
      </trkpt>
      <trkpt lat="46.2988" lon="4.74622">
        <ele>221.72</ele>
        <time>2012-05-13T06:15:47Z</time>
      </trkpt>
      <trkpt lat="46.29888" lon="4.74629">
        <ele>221.72</ele>
        <time>2012-05-13T06:15:49Z</time>
      </trkpt>
      <trkpt lat="46.29907" lon="4.74623">
        <ele>221.24</ele>
        <time>2012-05-13T06:15:54Z</time>
      </trkpt>
      <trkpt lat="46.29925" lon="4.74593">
        <ele>222.68</ele>
        <time>2012-05-13T06:16:00Z</time>
      </trkpt>
      <trkpt lat="46.29941" lon="4.74581">
        <ele>221.72</ele>
        <time>2012-05-13T06:16:04Z</time>
      </trkpt>
      <trkpt lat="46.2995" lon="4.74577">
        <ele>222.2</ele>
        <time>2012-05-13T06:16:06Z</time>
      </trkpt>
      <trkpt lat="46.29985" lon="4.74558">
        <ele>222.2</ele>
        <time>2012-05-13T06:16:14Z</time>
      </trkpt>
      <trkpt lat="46.30024" lon="4.74545">
        <ele>222.2</ele>
        <time>2012-05-13T06:16:28Z</time>
      </trkpt>
      <trkpt lat="46.30071" lon="4.74547">
        <ele>220.28</ele>
        <time>2012-05-13T06:16:39Z</time>
      </trkpt>
      <trkpt lat="46.30113" lon="4.74569">
        <ele>216.43</ele>
        <time>2012-05-13T06:16:47Z</time>
      </trkpt>
      <trkpt lat="46.30128" lon="4.74578">
        <ele>215.95</ele>
        <time>2012-05-13T06:16:50Z</time>
      </trkpt>
      <trkpt lat="46.30139" lon="4.746">
        <ele>214.51</ele>
        <time>2012-05-13T06:16:54Z</time>
      </trkpt>
      <trkpt lat="46.30192" lon="4.74637">
        <ele>211.15</ele>
        <time>2012-05-13T06:17:05Z</time>
      </trkpt>
      <trkpt lat="46.30198" lon="4.74641">
        <ele>211.15</ele>
        <time>2012-05-13T06:17:06Z</time>
      </trkpt>
      <trkpt lat="46.30291" lon="4.74731">
        <ele>208.74</ele>
        <time>2012-05-13T06:17:27Z</time>
      </trkpt>
      <trkpt lat="46.30314" lon="4.74761">
        <ele>207.78</ele>
        <time>2012-05-13T06:17:34Z</time>
      </trkpt>
      <trkpt lat="46.30324" lon="4.74774">
        <ele>207.78</ele>
        <time>2012-05-13T06:17:37Z</time>
      </trkpt>
      <trkpt lat="46.30388" lon="4.74786">
        <ele>209.22</ele>
        <time>2012-05-13T06:17:54Z</time>
      </trkpt>
      <trkpt lat="46.30402" lon="4.74787">
        <ele>211.15</ele>
        <time>2012-05-13T06:17:58Z</time>
      </trkpt>
      <trkpt lat="46.30411" lon="4.74803">
        <ele>213.07</ele>
        <time>2012-05-13T06:18:03Z</time>
      </trkpt>
      <trkpt lat="46.30413" lon="4.74847">
        <ele>219.8</ele>
        <time>2012-05-13T06:18:11Z</time>
      </trkpt>
      <trkpt lat="46.30413" lon="4.74852">
        <ele>214.99</ele>
        <time>2012-05-13T06:18:12Z</time>
      </trkpt>
      <trkpt lat="46.30412" lon="4.74883">
        <ele>215.47</ele>
        <time>2012-05-13T06:18:19Z</time>
      </trkpt>
      <trkpt lat="46.30428" lon="4.74897">
        <ele>217.88</ele>
        <time>2012-05-13T06:18:28Z</time>
      </trkpt>
      <trkpt lat="46.30437" lon="4.74903">
        <ele>219.32</ele>
        <time>2012-05-13T06:18:32Z</time>
      </trkpt>
      <trkpt lat="46.3044" lon="4.74907">
        <ele>219.8</ele>
        <time>2012-05-13T06:18:34Z</time>
      </trkpt>
      <trkpt lat="46.30443" lon="4.74912">
        <ele>220.76</ele>
        <time>2012-05-13T06:18:36Z</time>
      </trkpt>
      <trkpt lat="46.30457" lon="4.74938">
        <ele>223.64</ele>
        <time>2012-05-13T06:18:46Z</time>
      </trkpt>
      <trkpt lat="46.30479" lon="4.74981">
        <ele>227.01</ele>
        <time>2012-05-13T06:19:02Z</time>
      </trkpt>
      <trkpt lat="46.30503" lon="4.75013">
        <ele>230.37</ele>
        <time>2012-05-13T06:19:18Z</time>
      </trkpt>
      <trkpt lat="46.30527" lon="4.75025">
        <ele>233.74</ele>
        <time>2012-05-13T06:19:31Z</time>
      </trkpt>
      <trkpt lat="46.30579" lon="4.75025">
        <ele>236.62</ele>
        <time>2012-05-13T06:19:55Z</time>
      </trkpt>
      <trkpt lat="46.3062" lon="4.75028">
        <ele>236.62</ele>
        <time>2012-05-13T06:20:11Z</time>
      </trkpt>
      <trkpt lat="46.30638" lon="4.75068">
        <ele>234.7</ele>
        <time>2012-05-13T06:20:20Z</time>
      </trkpt>
      <trkpt lat="46.30641" lon="4.7508">
        <ele>233.74</ele>
        <time>2012-05-13T06:20:22Z</time>
      </trkpt>
      <trkpt lat="46.30664" lon="4.75099">
        <ele>231.81</ele>
        <time>2012-05-13T06:20:28Z</time>
      </trkpt>
      <trkpt lat="46.30725" lon="4.75104">
        <ele>227.97</ele>
        <time>2012-05-13T06:20:44Z</time>
      </trkpt>
      <trkpt lat="46.30743" lon="4.75076">
        <ele>229.41</ele>
        <time>2012-05-13T06:20:56Z</time>
      </trkpt>
      <trkpt lat="46.30743" lon="4.75065">
        <ele>228.93</ele>
        <time>2012-05-13T06:20:59Z</time>
      </trkpt>
      <trkpt lat="46.30757" lon="4.75056">
        <ele>227.97</ele>
        <time>2012-05-13T06:21:05Z</time>
      </trkpt>
      <trkpt lat="46.30793" lon="4.75046">
        <ele>224.12</ele>
        <time>2012-05-13T06:21:11Z</time>
      </trkpt>
      <trkpt lat="46.3082" lon="4.75038">
        <ele>220.28</ele>
        <time>2012-05-13T06:21:15Z</time>
      </trkpt>
      <trkpt lat="46.3084" lon="4.75033">
        <ele>216.91</ele>
        <time>2012-05-13T06:21:18Z</time>
      </trkpt>
      <trkpt lat="46.30864" lon="4.75027">
        <ele>213.55</ele>
        <time>2012-05-13T06:21:21Z</time>
      </trkpt>
      <trkpt lat="46.30893" lon="4.75019">
        <ele>211.63</ele>
        <time>2012-05-13T06:21:25Z</time>
      </trkpt>
      <trkpt lat="46.30901" lon="4.75017">
        <ele>211.63</ele>
        <time>2012-05-13T06:21:27Z</time>
      </trkpt>
      <trkpt lat="46.3091" lon="4.75009">
        <ele>211.15</ele>
        <time>2012-05-13T06:21:35Z</time>
      </trkpt>
      <trkpt lat="46.30909" lon="4.75013">
        <ele>210.67</ele>
        <time>2012-05-13T06:21:42Z</time>
      </trkpt>
      <trkpt lat="46.3091" lon="4.75041">
        <ele>209.7</ele>
        <time>2012-05-13T06:21:48Z</time>
      </trkpt>
      <trkpt lat="46.30912" lon="4.75076">
        <ele>209.7</ele>
        <time>2012-05-13T06:21:54Z</time>
      </trkpt>
      <trkpt lat="46.30916" lon="4.75097">
        <ele>209.7</ele>
        <time>2012-05-13T06:21:58Z</time>
      </trkpt>
      <trkpt lat="46.30931" lon="4.75205">
        <ele>206.82</ele>
        <time>2012-05-13T06:22:17Z</time>
      </trkpt>
      <trkpt lat="46.30927" lon="4.75254">
        <ele>205.38</ele>
        <time>2012-05-13T06:22:23Z</time>
      </trkpt>
      <trkpt lat="46.30921" lon="4.7528">
        <ele>205.86</ele>
        <time>2012-05-13T06:22:26Z</time>
      </trkpt>
      <trkpt lat="46.30882" lon="4.75333">
        <ele>205.38</ele>
        <time>2012-05-13T06:22:39Z</time>
      </trkpt>
      <trkpt lat="46.30836" lon="4.75378">
        <ele>206.82</ele>
        <time>2012-05-13T06:22:51Z</time>
      </trkpt>
      <trkpt lat="46.30806" lon="4.75454">
        <ele>206.82</ele>
        <time>2012-05-13T06:23:08Z</time>
      </trkpt>
      <trkpt lat="46.3082" lon="4.75464">
        <ele>206.34</ele>
        <time>2012-05-13T06:23:12Z</time>
      </trkpt>
      <trkpt lat="46.30851" lon="4.75472">
        <ele>205.86</ele>
        <time>2012-05-13T06:23:19Z</time>
      </trkpt>
      <trkpt lat="46.30988" lon="4.75543">
        <ele>203.94</ele>
        <time>2012-05-13T06:23:49Z</time>
      </trkpt>
      <trkpt lat="46.30994" lon="4.75546">
        <ele>203.94</ele>
        <time>2012-05-13T06:23:50Z</time>
      </trkpt>
      <trkpt lat="46.31056" lon="4.75579">
        <ele>201.53</ele>
        <time>2012-05-13T06:24:00Z</time>
      </trkpt>
      <trkpt lat="46.31114" lon="4.75608">
        <ele>198.17</ele>
        <time>2012-05-13T06:24:09Z</time>
      </trkpt>
      <trkpt lat="46.31182" lon="4.75627">
        <ele>196.25</ele>
        <time>2012-05-13T06:24:20Z</time>
      </trkpt>
      <trkpt lat="46.31198" lon="4.75652">
        <ele>194.32</ele>
        <time>2012-05-13T06:24:25Z</time>
      </trkpt>
      <trkpt lat="46.31201" lon="4.75664">
        <ele>193.84</ele>
        <time>2012-05-13T06:24:27Z</time>
      </trkpt>
      <trkpt lat="46.31229" lon="4.75774">
        <ele>192.88</ele>
        <time>2012-05-13T06:24:43Z</time>
      </trkpt>
      <trkpt lat="46.31238" lon="4.75811">
        <ele>193.36</ele>
        <time>2012-05-13T06:24:48Z</time>
      </trkpt>
      <trkpt lat="46.31254" lon="4.75875">
        <ele>192.4</ele>
        <time>2012-05-13T06:24:57Z</time>
      </trkpt>
      <trkpt lat="46.31265" lon="4.75918">
        <ele>191.44</ele>
        <time>2012-05-13T06:25:03Z</time>
      </trkpt>
      <trkpt lat="46.3127" lon="4.7594">
        <ele>191.92</ele>
        <time>2012-05-13T06:25:06Z</time>
      </trkpt>
      <trkpt lat="46.31276" lon="4.7598">
        <ele>191.92</ele>
        <time>2012-05-13T06:25:11Z</time>
      </trkpt>
      <trkpt lat="46.31276" lon="4.76008">
        <ele>192.4</ele>
        <time>2012-05-13T06:25:15Z</time>
      </trkpt>
      <trkpt lat="46.31286" lon="4.76033">
        <ele>192.4</ele>
        <time>2012-05-13T06:25:19Z</time>
      </trkpt>
      <trkpt lat="46.31326" lon="4.76061">
        <ele>196.25</ele>
        <time>2012-05-13T06:25:30Z</time>
      </trkpt>
      <trkpt lat="46.31359" lon="4.76079">
        <ele>199.13</ele>
        <time>2012-05-13T06:25:42Z</time>
      </trkpt>
      <trkpt lat="46.31417" lon="4.76082">
        <ele>199.61</ele>
        <time>2012-05-13T06:25:58Z</time>
      </trkpt>
      <trkpt lat="46.31519" lon="4.7607">
        <ele>199.13</ele>
        <time>2012-05-13T06:26:20Z</time>
      </trkpt>
      <trkpt lat="46.31625" lon="4.76041">
        <ele>199.13</ele>
        <time>2012-05-13T06:26:43Z</time>
      </trkpt>
      <trkpt lat="46.31735" lon="4.75976">
        <ele>200.57</ele>
        <time>2012-05-13T06:27:09Z</time>
      </trkpt>
      <trkpt lat="46.31742" lon="4.7597">
        <ele>200.57</ele>
        <time>2012-05-13T06:27:12Z</time>
      </trkpt>
      <trkpt lat="46.31751" lon="4.75975">
        <ele>200.57</ele>
        <time>2012-05-13T06:27:16Z</time>
      </trkpt>
      <trkpt lat="46.31754" lon="4.75987">
        <ele>202.01</ele>
        <time>2012-05-13T06:27:19Z</time>
      </trkpt>
      <trkpt lat="46.31793" lon="4.76052">
        <ele>205.38</ele>
        <time>2012-05-13T06:27:40Z</time>
      </trkpt>
      <trkpt lat="46.31811" lon="4.76075">
        <ele>207.3</ele>
        <time>2012-05-13T06:27:49Z</time>
      </trkpt>
      <trkpt lat="46.31845" lon="4.76129">
        <ele>210.19</ele>
        <time>2012-05-13T06:28:08Z</time>
      </trkpt>
      <trkpt lat="46.31857" lon="4.76144">
        <ele>211.15</ele>
        <time>2012-05-13T06:28:14Z</time>
      </trkpt>
      <trkpt lat="46.31906" lon="4.76116">
        <ele>212.11</ele>
        <time>2012-05-13T06:28:33Z</time>
      </trkpt>
      <trkpt lat="46.31959" lon="4.76111">
        <ele>214.03</ele>
        <time>2012-05-13T06:28:54Z</time>
      </trkpt>
      <trkpt lat="46.31979" lon="4.76159">
        <ele>214.03</ele>
        <time>2012-05-13T06:29:04Z</time>
      </trkpt>
      <trkpt lat="46.31987" lon="4.76158">
        <ele>214.99</ele>
        <time>2012-05-13T06:29:08Z</time>
      </trkpt>
      <trkpt lat="46.32028" lon="4.76122">
        <ele>216.91</ele>
        <time>2012-05-13T06:29:26Z</time>
      </trkpt>
      <trkpt lat="46.32067" lon="4.76089">
        <ele>219.32</ele>
        <time>2012-05-13T06:29:43Z</time>
      </trkpt>
      <trkpt lat="46.32097" lon="4.76048">
        <ele>222.68</ele>
        <time>2012-05-13T06:30:00Z</time>
      </trkpt>
      <trkpt lat="46.32113" lon="4.76023">
        <ele>225.57</ele>
        <time>2012-05-13T06:30:11Z</time>
      </trkpt>
      <trkpt lat="46.3214" lon="4.75994">
        <ele>228.93</ele>
        <time>2012-05-13T06:30:27Z</time>
      </trkpt>
      <trkpt lat="46.32164" lon="4.75973">
        <ele>230.85</ele>
        <time>2012-05-13T06:30:40Z</time>
      </trkpt>
      <trkpt lat="46.32203" lon="4.75937">
        <ele>234.22</ele>
        <time>2012-05-13T06:31:01Z</time>
      </trkpt>
      <trkpt lat="46.32273" lon="4.75903">
        <ele>235.66</ele>
        <time>2012-05-13T06:31:27Z</time>
      </trkpt>
      <trkpt lat="46.32344" lon="4.75883">
        <ele>236.14</ele>
        <time>2012-05-13T06:31:49Z</time>
      </trkpt>
      <trkpt lat="46.32402" lon="4.75843">
        <ele>236.14</ele>
        <time>2012-05-13T06:32:09Z</time>
      </trkpt>
      <trkpt lat="46.32419" lon="4.75835">
        <ele>236.14</ele>
        <time>2012-05-13T06:32:15Z</time>
      </trkpt>
      <trkpt lat="46.32427" lon="4.75848">
        <ele>237.1</ele>
        <time>2012-05-13T06:32:20Z</time>
      </trkpt>
      <trkpt lat="46.3243" lon="4.75955">
        <ele>236.14</ele>
        <time>2012-05-13T06:32:44Z</time>
      </trkpt>
      <trkpt lat="46.32443" lon="4.76053">
        <ele>233.74</ele>
        <time>2012-05-13T06:33:04Z</time>
      </trkpt>
      <trkpt lat="46.32473" lon="4.76101">
        <ele>231.81</ele>
        <time>2012-05-13T06:33:16Z</time>
      </trkpt>
      <trkpt lat="46.32481" lon="4.76121">
        <ele>230.85</ele>
        <time>2012-05-13T06:33:20Z</time>
      </trkpt>
      <trkpt lat="46.325" lon="4.76178">
        <ele>229.41</ele>
        <time>2012-05-13T06:33:36Z</time>
      </trkpt>
      <trkpt lat="46.32501" lon="4.76198">
        <ele>229.89</ele>
        <time>2012-05-13T06:33:43Z</time>
      </trkpt>
      <trkpt lat="46.32512" lon="4.76186">
        <ele>228.93</ele>
        <time>2012-05-13T06:33:53Z</time>
      </trkpt>
      <trkpt lat="46.32533" lon="4.76139">
        <ele>231.81</ele>
        <time>2012-05-13T06:34:07Z</time>
      </trkpt>
      <trkpt lat="46.32562" lon="4.76069">
        <ele>235.18</ele>
        <time>2012-05-13T06:34:29Z</time>
      </trkpt>
      <trkpt lat="46.32601" lon="4.7601">
        <ele>237.1</ele>
        <time>2012-05-13T06:34:51Z</time>
      </trkpt>
      <trkpt lat="46.32665" lon="4.75942">
        <ele>238.54</ele>
        <time>2012-05-13T06:35:15Z</time>
      </trkpt>
      <trkpt lat="46.32742" lon="4.75858">
        <ele>238.54</ele>
        <time>2012-05-13T06:35:41Z</time>
      </trkpt>
      <trkpt lat="46.328" lon="4.75796">
        <ele>238.54</ele>
        <time>2012-05-13T06:36:00Z</time>
      </trkpt>
      <trkpt lat="46.32873" lon="4.75751">
        <ele>239.99</ele>
        <time>2012-05-13T06:36:21Z</time>
      </trkpt>
      <trkpt lat="46.32877" lon="4.75751">
        <ele>240.47</ele>
        <time>2012-05-13T06:36:22Z</time>
      </trkpt>
      <trkpt lat="46.32986" lon="4.75787">
        <ele>241.43</ele>
        <time>2012-05-13T06:36:49Z</time>
      </trkpt>
      <trkpt lat="46.33086" lon="4.75858">
        <ele>240.95</ele>
        <time>2012-05-13T06:37:14Z</time>
      </trkpt>
      <trkpt lat="46.33134" lon="4.75895">
        <ele>241.43</ele>
        <time>2012-05-13T06:37:26Z</time>
      </trkpt>
      <trkpt lat="46.3325" lon="4.75935">
        <ele>243.35</ele>
        <time>2012-05-13T06:37:54Z</time>
      </trkpt>
      <trkpt lat="46.33313" lon="4.75987">
        <ele>244.79</ele>
        <time>2012-05-13T06:38:11Z</time>
      </trkpt>
      <trkpt lat="46.33337" lon="4.76007">
        <ele>245.27</ele>
        <time>2012-05-13T06:38:18Z</time>
      </trkpt>
      <trkpt lat="46.33359" lon="4.76024">
        <ele>246.23</ele>
        <time>2012-05-13T06:38:24Z</time>
      </trkpt>
      <trkpt lat="46.33392" lon="4.76051">
        <ele>247.68</ele>
        <time>2012-05-13T06:38:33Z</time>
      </trkpt>
      <trkpt lat="46.3342" lon="4.76061">
        <ele>248.16</ele>
        <time>2012-05-13T06:38:40Z</time>
      </trkpt>
      <trkpt lat="46.33437" lon="4.76062">
        <ele>249.6</ele>
        <time>2012-05-13T06:38:44Z</time>
      </trkpt>
      <trkpt lat="46.33492" lon="4.76064">
        <ele>249.12</ele>
        <time>2012-05-13T06:38:57Z</time>
      </trkpt>
      <trkpt lat="46.33605" lon="4.7611">
        <ele>249.6</ele>
        <time>2012-05-13T06:39:25Z</time>
      </trkpt>
      <trkpt lat="46.33647" lon="4.76127">
        <ele>251.52</ele>
        <time>2012-05-13T06:39:42Z</time>
      </trkpt>
      <trkpt lat="46.3366" lon="4.76129">
        <ele>252</ele>
        <time>2012-05-13T06:40:03Z</time>
      </trkpt>
      <trkpt lat="46.33661" lon="4.76129">
        <ele>251.04</ele>
        <time>2012-05-13T06:40:17Z</time>
      </trkpt>
      <trkpt lat="46.33653" lon="4.76127">
        <ele>251.52</ele>
        <time>2012-05-13T06:40:25Z</time>
      </trkpt>
      <trkpt lat="46.33634" lon="4.76129">
        <ele>251.52</ele>
        <time>2012-05-13T06:40:43Z</time>
      </trkpt>
      <trkpt lat="46.33634" lon="4.76129">
        <ele>251.52</ele>
        <time>2012-05-13T06:40:56Z</time>
      </trkpt>
      <trkpt lat="46.33632" lon="4.76138">
        <ele>250.56</ele>
        <time>2012-05-13T06:41:00Z</time>
      </trkpt>
      <trkpt lat="46.33629" lon="4.76199">
        <ele>250.08</ele>
        <time>2012-05-13T06:41:19Z</time>
      </trkpt>
      <trkpt lat="46.33624" lon="4.76289">
        <ele>246.72</ele>
        <time>2012-05-13T06:41:38Z</time>
      </trkpt>
      <trkpt lat="46.33623" lon="4.763">
        <ele>245.75</ele>
        <time>2012-05-13T06:41:40Z</time>
      </trkpt>
      <trkpt lat="46.3362" lon="4.76328">
        <ele>244.31</ele>
        <time>2012-05-13T06:41:45Z</time>
      </trkpt>
      <trkpt lat="46.33617" lon="4.7637">
        <ele>240.47</ele>
        <time>2012-05-13T06:41:52Z</time>
      </trkpt>
      <trkpt lat="46.33617" lon="4.76377">
        <ele>240.95</ele>
        <time>2012-05-13T06:41:53Z</time>
      </trkpt>
      <trkpt lat="46.33622" lon="4.76465">
        <ele>239.51</ele>
        <time>2012-05-13T06:42:05Z</time>
      </trkpt>
      <trkpt lat="46.33615" lon="4.76569">
        <ele>240.95</ele>
        <time>2012-05-13T06:42:25Z</time>
      </trkpt>
      <trkpt lat="46.33613" lon="4.76593">
        <ele>242.39</ele>
        <time>2012-05-13T06:42:40Z</time>
      </trkpt>
      <trkpt lat="46.33613" lon="4.76593">
        <ele>241.91</ele>
        <time>2012-05-13T06:43:08Z</time>
      </trkpt>
      <trkpt lat="46.33614" lon="4.76594">
        <ele>242.39</ele>
        <time>2012-05-13T06:43:36Z</time>
      </trkpt>
      <trkpt lat="46.33615" lon="4.76592">
        <ele>241.91</ele>
        <time>2012-05-13T06:43:46Z</time>
      </trkpt>
      <trkpt lat="46.3362" lon="4.76524">
        <ele>240.95</ele>
        <time>2012-05-13T06:44:02Z</time>
      </trkpt>
      <trkpt lat="46.33621" lon="4.76443">
        <ele>240.47</ele>
        <time>2012-05-13T06:44:17Z</time>
      </trkpt>
      <trkpt lat="46.33622" lon="4.76334">
        <ele>243.35</ele>
        <time>2012-05-13T06:44:36Z</time>
      </trkpt>
      <trkpt lat="46.33628" lon="4.7626">
        <ele>246.72</ele>
        <time>2012-05-13T06:44:48Z</time>
      </trkpt>
      <trkpt lat="46.3363" lon="4.762">
        <ele>250.08</ele>
        <time>2012-05-13T06:44:58Z</time>
      </trkpt>
      <trkpt lat="46.33632" lon="4.76129">
        <ele>252.48</ele>
        <time>2012-05-13T06:45:16Z</time>
      </trkpt>
      <trkpt lat="46.33632" lon="4.76132">
        <ele>250.56</ele>
        <time>2012-05-13T06:45:24Z</time>
      </trkpt>
      <trkpt lat="46.33683" lon="4.7613">
        <ele>252</ele>
        <time>2012-05-13T06:45:44Z</time>
      </trkpt>
      <trkpt lat="46.33772" lon="4.76141">
        <ele>253.93</ele>
        <time>2012-05-13T06:46:07Z</time>
      </trkpt>
      <trkpt lat="46.33838" lon="4.76148">
        <ele>254.89</ele>
        <time>2012-05-13T06:46:24Z</time>
      </trkpt>
      <trkpt lat="46.33842" lon="4.76149">
        <ele>254.89</ele>
        <time>2012-05-13T06:46:25Z</time>
      </trkpt>
      <trkpt lat="46.33937" lon="4.76159">
        <ele>255.37</ele>
        <time>2012-05-13T06:46:48Z</time>
      </trkpt>
      <trkpt lat="46.34021" lon="4.76175">
        <ele>255.85</ele>
        <time>2012-05-13T06:47:09Z</time>
      </trkpt>
      <trkpt lat="46.3408" lon="4.76193">
        <ele>255.37</ele>
        <time>2012-05-13T06:47:23Z</time>
      </trkpt>
      <trkpt lat="46.34156" lon="4.76216">
        <ele>257.77</ele>
        <time>2012-05-13T06:47:42Z</time>
      </trkpt>
      <trkpt lat="46.34187" lon="4.76222">
        <ele>258.73</ele>
        <time>2012-05-13T06:47:59Z</time>
      </trkpt>
      <trkpt lat="46.34187" lon="4.76222">
        <ele>258.73</ele>
        <time>2012-05-13T06:48:19Z</time>
      </trkpt>
      <trkpt lat="46.34189" lon="4.76214">
        <ele>259.69</ele>
        <time>2012-05-13T06:48:24Z</time>
      </trkpt>
      <trkpt lat="46.34187" lon="4.76211">
        <ele>259.69</ele>
        <time>2012-05-13T06:48:30Z</time>
      </trkpt>
      <trkpt lat="46.34187" lon="4.76216">
        <ele>258.73</ele>
        <time>2012-05-13T06:48:33Z</time>
      </trkpt>
      <trkpt lat="46.34188" lon="4.76219">
        <ele>259.21</ele>
        <time>2012-05-13T06:48:55Z</time>
      </trkpt>
      <trkpt lat="46.34188" lon="4.76219">
        <ele>259.21</ele>
        <time>2012-05-13T06:49:35Z</time>
      </trkpt>
      <trkpt lat="46.34188" lon="4.76219">
        <ele>258.73</ele>
        <time>2012-05-13T06:50:21Z</time>
      </trkpt>
      <trkpt lat="46.34188" lon="4.76219">
        <ele>258.25</ele>
        <time>2012-05-13T06:50:58Z</time>
      </trkpt>
      <trkpt lat="46.34188" lon="4.76219">
        <ele>258.25</ele>
        <time>2012-05-13T06:51:55Z</time>
      </trkpt>
      <trkpt lat="46.34188" lon="4.76219">
        <ele>258.73</ele>
        <time>2012-05-13T06:52:51Z</time>
      </trkpt>
      <trkpt lat="46.34188" lon="4.76219">
        <ele>259.21</ele>
        <time>2012-05-13T06:53:55Z</time>
      </trkpt>
      <trkpt lat="46.34188" lon="4.76219">
        <ele>259.69</ele>
        <time>2012-05-13T06:54:30Z</time>
      </trkpt>
      <trkpt lat="46.34189" lon="4.7622">
        <ele>259.21</ele>
        <time>2012-05-13T06:54:34Z</time>
      </trkpt>
      <trkpt lat="46.34176" lon="4.76185">
        <ele>260.65</ele>
        <time>2012-05-13T06:54:50Z</time>
      </trkpt>
      <trkpt lat="46.34156" lon="4.76127">
        <ele>259.69</ele>
        <time>2012-05-13T06:55:02Z</time>
      </trkpt>
      <trkpt lat="46.3415" lon="4.76111">
        <ele>259.69</ele>
        <time>2012-05-13T06:55:05Z</time>
      </trkpt>
      <trkpt lat="46.34124" lon="4.76026">
        <ele>263.06</ele>
        <time>2012-05-13T06:55:23Z</time>
      </trkpt>
      <trkpt lat="46.34113" lon="4.75924">
        <ele>263.54</ele>
        <time>2012-05-13T06:55:42Z</time>
      </trkpt>
      <trkpt lat="46.34117" lon="4.75852">
        <ele>266.9</ele>
        <time>2012-05-13T06:55:58Z</time>
      </trkpt>
      <trkpt lat="46.34133" lon="4.75839">
        <ele>268.35</ele>
        <time>2012-05-13T06:56:05Z</time>
      </trkpt>
      <trkpt lat="46.34155" lon="4.7583">
        <ele>270.27</ele>
        <time>2012-05-13T06:56:15Z</time>
      </trkpt>
      <trkpt lat="46.34161" lon="4.75817">
        <ele>271.71</ele>
        <time>2012-05-13T06:56:20Z</time>
      </trkpt>
      <trkpt lat="46.34177" lon="4.7575">
        <ele>275.56</ele>
        <time>2012-05-13T06:56:39Z</time>
      </trkpt>
      <trkpt lat="46.34184" lon="4.75675">
        <ele>276.04</ele>
        <time>2012-05-13T06:56:58Z</time>
      </trkpt>
      <trkpt lat="46.34181" lon="4.7555">
        <ele>277</ele>
        <time>2012-05-13T06:57:22Z</time>
      </trkpt>
      <trkpt lat="46.34185" lon="4.75453">
        <ele>277.48</ele>
        <time>2012-05-13T06:57:40Z</time>
      </trkpt>
      <trkpt lat="46.34208" lon="4.75378">
        <ele>280.84</ele>
        <time>2012-05-13T06:57:55Z</time>
      </trkpt>
      <trkpt lat="46.34237" lon="4.75328">
        <ele>283.73</ele>
        <time>2012-05-13T06:58:08Z</time>
      </trkpt>
      <trkpt lat="46.34245" lon="4.75265">
        <ele>282.28</ele>
        <time>2012-05-13T06:58:21Z</time>
      </trkpt>
      <trkpt lat="46.3424" lon="4.75239">
        <ele>281.32</ele>
        <time>2012-05-13T06:58:26Z</time>
      </trkpt>
      <trkpt lat="46.34263" lon="4.75212">
        <ele>283.25</ele>
        <time>2012-05-13T06:58:39Z</time>
      </trkpt>
      <trkpt lat="46.3427" lon="4.75208">
        <ele>283.25</ele>
        <time>2012-05-13T06:58:42Z</time>
      </trkpt>
      <trkpt lat="46.34293" lon="4.752">
        <ele>286.13</ele>
        <time>2012-05-13T06:58:54Z</time>
      </trkpt>
      <trkpt lat="46.34301" lon="4.75198">
        <ele>287.09</ele>
        <time>2012-05-13T06:58:58Z</time>
      </trkpt>
      <trkpt lat="46.34312" lon="4.75197">
        <ele>288.53</ele>
        <time>2012-05-13T06:59:04Z</time>
      </trkpt>
      <trkpt lat="46.34336" lon="4.75212">
        <ele>291.42</ele>
        <time>2012-05-13T06:59:15Z</time>
      </trkpt>
      <trkpt lat="46.34341" lon="4.75218">
        <ele>292.86</ele>
        <time>2012-05-13T06:59:19Z</time>
      </trkpt>
      <trkpt lat="46.34355" lon="4.75236">
        <ele>295.26</ele>
        <time>2012-05-13T06:59:28Z</time>
      </trkpt>
      <trkpt lat="46.34358" lon="4.75239">
        <ele>294.78</ele>
        <time>2012-05-13T06:59:30Z</time>
      </trkpt>
      <trkpt lat="46.34365" lon="4.75252">
        <ele>296.7</ele>
        <time>2012-05-13T06:59:37Z</time>
      </trkpt>
      <trkpt lat="46.34379" lon="4.7528">
        <ele>297.67</ele>
        <time>2012-05-13T06:59:48Z</time>
      </trkpt>
      <trkpt lat="46.34387" lon="4.75284">
        <ele>299.11</ele>
        <time>2012-05-13T06:59:53Z</time>
      </trkpt>
      <trkpt lat="46.34403" lon="4.75288">
        <ele>301.99</ele>
        <time>2012-05-13T07:00:01Z</time>
      </trkpt>
      <trkpt lat="46.34435" lon="4.75295">
        <ele>304.39</ele>
        <time>2012-05-13T07:00:20Z</time>
      </trkpt>
      <trkpt lat="46.34467" lon="4.75301">
        <ele>307.28</ele>
        <time>2012-05-13T07:00:37Z</time>
      </trkpt>
      <trkpt lat="46.34508" lon="4.75301">
        <ele>309.68</ele>
        <time>2012-05-13T07:00:57Z</time>
      </trkpt>
      <trkpt lat="46.34546" lon="4.75299">
        <ele>311.6</ele>
        <time>2012-05-13T07:01:14Z</time>
      </trkpt>
      <trkpt lat="46.34597" lon="4.75305">
        <ele>312.57</ele>
        <time>2012-05-13T07:01:34Z</time>
      </trkpt>
      <trkpt lat="46.34629" lon="4.75314">
        <ele>311.6</ele>
        <time>2012-05-13T07:01:46Z</time>
      </trkpt>
      <trkpt lat="46.34633" lon="4.75305">
        <ele>312.09</ele>
        <time>2012-05-13T07:01:49Z</time>
      </trkpt>
      <trkpt lat="46.34631" lon="4.75219">
        <ele>310.64</ele>
        <time>2012-05-13T07:02:09Z</time>
      </trkpt>
      <trkpt lat="46.34662" lon="4.75144">
        <ele>308.72</ele>
        <time>2012-05-13T07:02:25Z</time>
      </trkpt>
      <trkpt lat="46.34688" lon="4.75061">
        <ele>309.2</ele>
        <time>2012-05-13T07:02:42Z</time>
      </trkpt>
      <trkpt lat="46.34699" lon="4.74964">
        <ele>309.2</ele>
        <time>2012-05-13T07:03:01Z</time>
      </trkpt>
      <trkpt lat="46.34664" lon="4.74886">
        <ele>311.12</ele>
        <time>2012-05-13T07:03:18Z</time>
      </trkpt>
      <trkpt lat="46.34646" lon="4.74868">
        <ele>310.64</ele>
        <time>2012-05-13T07:03:23Z</time>
      </trkpt>
      <trkpt lat="46.34637" lon="4.74863">
        <ele>309.2</ele>
        <time>2012-05-13T07:03:25Z</time>
      </trkpt>
      <trkpt lat="46.34618" lon="4.74853">
        <ele>308.24</ele>
        <time>2012-05-13T07:03:30Z</time>
      </trkpt>
      <trkpt lat="46.3462" lon="4.74835">
        <ele>308.24</ele>
        <time>2012-05-13T07:03:35Z</time>
      </trkpt>
      <trkpt lat="46.3467" lon="4.74781">
        <ele>312.09</ele>
        <time>2012-05-13T07:03:52Z</time>
      </trkpt>
      <trkpt lat="46.34709" lon="4.74751">
        <ele>315.45</ele>
        <time>2012-05-13T07:04:06Z</time>
      </trkpt>
      <trkpt lat="46.34746" lon="4.74728">
        <ele>319.3</ele>
        <time>2012-05-13T07:04:21Z</time>
      </trkpt>
      <trkpt lat="46.34749" lon="4.74726">
        <ele>319.3</ele>
        <time>2012-05-13T07:04:22Z</time>
      </trkpt>
      <trkpt lat="46.34814" lon="4.74683">
        <ele>322.18</ele>
        <time>2012-05-13T07:04:44Z</time>
      </trkpt>
      <trkpt lat="46.34867" lon="4.74626">
        <ele>323.62</ele>
        <time>2012-05-13T07:05:05Z</time>
      </trkpt>
      <trkpt lat="46.34902" lon="4.74565">
        <ele>326.99</ele>
        <time>2012-05-13T07:05:23Z</time>
      </trkpt>
      <trkpt lat="46.34899" lon="4.74531">
        <ele>329.87</ele>
        <time>2012-05-13T07:05:33Z</time>
      </trkpt>
      <trkpt lat="46.34885" lon="4.74504">
        <ele>333.23</ele>
        <time>2012-05-13T07:05:43Z</time>
      </trkpt>
      <trkpt lat="46.34869" lon="4.74473">
        <ele>336.6</ele>
        <time>2012-05-13T07:05:57Z</time>
      </trkpt>
      <trkpt lat="46.34856" lon="4.74432">
        <ele>339.48</ele>
        <time>2012-05-13T07:06:15Z</time>
      </trkpt>
      <trkpt lat="46.34853" lon="4.74384">
        <ele>341.89</ele>
        <time>2012-05-13T07:06:34Z</time>
      </trkpt>
      <trkpt lat="46.34848" lon="4.74324">
        <ele>344.77</ele>
        <time>2012-05-13T07:06:54Z</time>
      </trkpt>
      <trkpt lat="46.34861" lon="4.74276">
        <ele>347.65</ele>
        <time>2012-05-13T07:07:13Z</time>
      </trkpt>
      <trkpt lat="46.34853" lon="4.74229">
        <ele>349.58</ele>
        <time>2012-05-13T07:07:30Z</time>
      </trkpt>
      <trkpt lat="46.3485" lon="4.74188">
        <ele>352.94</ele>
        <time>2012-05-13T07:07:46Z</time>
      </trkpt>
      <trkpt lat="46.3485" lon="4.74186">
        <ele>352.94</ele>
        <time>2012-05-13T07:07:47Z</time>
      </trkpt>
      <trkpt lat="46.34849" lon="4.74142">
        <ele>355.34</ele>
        <time>2012-05-13T07:08:04Z</time>
      </trkpt>
      <trkpt lat="46.34848" lon="4.74128">
        <ele>356.31</ele>
        <time>2012-05-13T07:08:10Z</time>
      </trkpt>
      <trkpt lat="46.34848" lon="4.74103">
        <ele>358.71</ele>
        <time>2012-05-13T07:08:20Z</time>
      </trkpt>
      <trkpt lat="46.34847" lon="4.7407">
        <ele>361.59</ele>
        <time>2012-05-13T07:08:34Z</time>
      </trkpt>
      <trkpt lat="46.34846" lon="4.74054">
        <ele>363.04</ele>
        <time>2012-05-13T07:08:40Z</time>
      </trkpt>
      <trkpt lat="46.34843" lon="4.74035">
        <ele>364.48</ele>
        <time>2012-05-13T07:08:48Z</time>
      </trkpt>
      <trkpt lat="46.34844" lon="4.74001">
        <ele>367.84</ele>
        <time>2012-05-13T07:09:02Z</time>
      </trkpt>
      <trkpt lat="46.34846" lon="4.73975">
        <ele>369.76</ele>
        <time>2012-05-13T07:09:13Z</time>
      </trkpt>
      <trkpt lat="46.34846" lon="4.7396">
        <ele>371.21</ele>
        <time>2012-05-13T07:09:20Z</time>
      </trkpt>
      <trkpt lat="46.34844" lon="4.73951">
        <ele>372.65</ele>
        <time>2012-05-13T07:09:25Z</time>
      </trkpt>
      <trkpt lat="46.34845" lon="4.73935">
        <ele>374.57</ele>
        <time>2012-05-13T07:09:33Z</time>
      </trkpt>
      <trkpt lat="46.34846" lon="4.73916">
        <ele>374.57</ele>
        <time>2012-05-13T07:09:40Z</time>
      </trkpt>
      <trkpt lat="46.34846" lon="4.73911">
        <ele>375.53</ele>
        <time>2012-05-13T07:09:42Z</time>
      </trkpt>
      <trkpt lat="46.34843" lon="4.73877">
        <ele>378.42</ele>
        <time>2012-05-13T07:09:57Z</time>
      </trkpt>
      <trkpt lat="46.34843" lon="4.73874">
        <ele>378.42</ele>
        <time>2012-05-13T07:09:59Z</time>
      </trkpt>
      <trkpt lat="46.34842" lon="4.73858">
        <ele>379.86</ele>
        <time>2012-05-13T07:10:06Z</time>
      </trkpt>
      <trkpt lat="46.34841" lon="4.73843">
        <ele>380.34</ele>
        <time>2012-05-13T07:10:13Z</time>
      </trkpt>
      <trkpt lat="46.34838" lon="4.73821">
        <ele>382.74</ele>
        <time>2012-05-13T07:10:25Z</time>
      </trkpt>
      <trkpt lat="46.34828" lon="4.7381">
        <ele>382.74</ele>
        <time>2012-05-13T07:10:32Z</time>
      </trkpt>
      <trkpt lat="46.34819" lon="4.73803">
        <ele>383.22</ele>
        <time>2012-05-13T07:10:38Z</time>
      </trkpt>
      <trkpt lat="46.3482" lon="4.73788">
        <ele>385.63</ele>
        <time>2012-05-13T07:10:45Z</time>
      </trkpt>
      <trkpt lat="46.34832" lon="4.73767">
        <ele>388.99</ele>
        <time>2012-05-13T07:10:59Z</time>
      </trkpt>
      <trkpt lat="46.34833" lon="4.73765">
        <ele>388.99</ele>
        <time>2012-05-13T07:11:00Z</time>
      </trkpt>
      <trkpt lat="46.34834" lon="4.7375">
        <ele>390.91</ele>
        <time>2012-05-13T07:11:09Z</time>
      </trkpt>
      <trkpt lat="46.34836" lon="4.73732">
        <ele>393.32</ele>
        <time>2012-05-13T07:11:18Z</time>
      </trkpt>
      <trkpt lat="46.3484" lon="4.7372">
        <ele>394.76</ele>
        <time>2012-05-13T07:11:24Z</time>
      </trkpt>
      <trkpt lat="46.34841" lon="4.73706">
        <ele>396.2</ele>
        <time>2012-05-13T07:11:31Z</time>
      </trkpt>
      <trkpt lat="46.34831" lon="4.7369">
        <ele>397.16</ele>
        <time>2012-05-13T07:11:39Z</time>
      </trkpt>
      <trkpt lat="46.34824" lon="4.73657">
        <ele>399.57</ele>
        <time>2012-05-13T07:11:53Z</time>
      </trkpt>
      <trkpt lat="46.34825" lon="4.73645">
        <ele>402.45</ele>
        <time>2012-05-13T07:11:59Z</time>
      </trkpt>
      <trkpt lat="46.34825" lon="4.73629">
        <ele>404.37</ele>
        <time>2012-05-13T07:12:07Z</time>
      </trkpt>
      <trkpt lat="46.34822" lon="4.73617">
        <ele>405.81</ele>
        <time>2012-05-13T07:12:13Z</time>
      </trkpt>
      <trkpt lat="46.34818" lon="4.73604">
        <ele>405.81</ele>
        <time>2012-05-13T07:12:19Z</time>
      </trkpt>
      <trkpt lat="46.34816" lon="4.73594">
        <ele>407.26</ele>
        <time>2012-05-13T07:12:24Z</time>
      </trkpt>
      <trkpt lat="46.34816" lon="4.7359">
        <ele>408.22</ele>
        <time>2012-05-13T07:12:26Z</time>
      </trkpt>
      <trkpt lat="46.34815" lon="4.73576">
        <ele>409.66</ele>
        <time>2012-05-13T07:12:33Z</time>
      </trkpt>
      <trkpt lat="46.34815" lon="4.73566">
        <ele>410.14</ele>
        <time>2012-05-13T07:12:38Z</time>
      </trkpt>
      <trkpt lat="46.34816" lon="4.73558">
        <ele>411.58</ele>
        <time>2012-05-13T07:12:42Z</time>
      </trkpt>
      <trkpt lat="46.34814" lon="4.73534">
        <ele>413.02</ele>
        <time>2012-05-13T07:12:53Z</time>
      </trkpt>
      <trkpt lat="46.34816" lon="4.73504">
        <ele>416.39</ele>
        <time>2012-05-13T07:13:08Z</time>
      </trkpt>
      <trkpt lat="46.34816" lon="4.73502">
        <ele>415.91</ele>
        <time>2012-05-13T07:13:09Z</time>
      </trkpt>
      <trkpt lat="46.34818" lon="4.73471">
        <ele>419.27</ele>
        <time>2012-05-13T07:13:23Z</time>
      </trkpt>
      <trkpt lat="46.34827" lon="4.73442">
        <ele>422.16</ele>
        <time>2012-05-13T07:13:39Z</time>
      </trkpt>
      <trkpt lat="46.34829" lon="4.7344">
        <ele>422.64</ele>
        <time>2012-05-13T07:13:41Z</time>
      </trkpt>
      <trkpt lat="46.34848" lon="4.73415">
        <ele>423.12</ele>
        <time>2012-05-13T07:13:55Z</time>
      </trkpt>
      <trkpt lat="46.34857" lon="4.73339">
        <ele>424.08</ele>
        <time>2012-05-13T07:14:13Z</time>
      </trkpt>
      <trkpt lat="46.34854" lon="4.73269">
        <ele>425.04</ele>
        <time>2012-05-13T07:14:29Z</time>
      </trkpt>
      <trkpt lat="46.3488" lon="4.73236">
        <ele>422.16</ele>
        <time>2012-05-13T07:14:41Z</time>
      </trkpt>
      <trkpt lat="46.34917" lon="4.73258">
        <ele>420.23</ele>
        <time>2012-05-13T07:14:50Z</time>
      </trkpt>
      <trkpt lat="46.3495" lon="4.73246">
        <ele>417.35</ele>
        <time>2012-05-13T07:14:59Z</time>
      </trkpt>
      <trkpt lat="46.34972" lon="4.73242">
        <ele>415.43</ele>
        <time>2012-05-13T07:15:06Z</time>
      </trkpt>
      <trkpt lat="46.34982" lon="4.73244">
        <ele>413.5</ele>
        <time>2012-05-13T07:15:08Z</time>
      </trkpt>
      <trkpt lat="46.34996" lon="4.73257">
        <ele>413.02</ele>
        <time>2012-05-13T07:15:12Z</time>
      </trkpt>
      <trkpt lat="46.35002" lon="4.7328">
        <ele>412.06</ele>
        <time>2012-05-13T07:15:16Z</time>
      </trkpt>
      <trkpt lat="46.35006" lon="4.73299">
        <ele>412.06</ele>
        <time>2012-05-13T07:15:19Z</time>
      </trkpt>
      <trkpt lat="46.35009" lon="4.73329">
        <ele>412.06</ele>
        <time>2012-05-13T07:15:24Z</time>
      </trkpt>
      <trkpt lat="46.35025" lon="4.73353">
        <ele>410.62</ele>
        <time>2012-05-13T07:15:29Z</time>
      </trkpt>
      <trkpt lat="46.35031" lon="4.73361">
        <ele>409.18</ele>
        <time>2012-05-13T07:15:31Z</time>
      </trkpt>
      <trkpt lat="46.35054" lon="4.7337">
        <ele>406.77</ele>
        <time>2012-05-13T07:15:36Z</time>
      </trkpt>
      <trkpt lat="46.35077" lon="4.73372">
        <ele>403.89</ele>
        <time>2012-05-13T07:15:41Z</time>
      </trkpt>
      <trkpt lat="46.35088" lon="4.73372">
        <ele>402.45</ele>
        <time>2012-05-13T07:15:43Z</time>
      </trkpt>
      <trkpt lat="46.3512" lon="4.73362">
        <ele>398.12</ele>
        <time>2012-05-13T07:15:49Z</time>
      </trkpt>
      <trkpt lat="46.35146" lon="4.73356">
        <ele>394.76</ele>
        <time>2012-05-13T07:15:54Z</time>
      </trkpt>
      <trkpt lat="46.35158" lon="4.73359">
        <ele>392.84</ele>
        <time>2012-05-13T07:15:56Z</time>
      </trkpt>
      <trkpt lat="46.3517" lon="4.73359">
        <ele>390.91</ele>
        <time>2012-05-13T07:15:58Z</time>
      </trkpt>
      <trkpt lat="46.35196" lon="4.73357">
        <ele>388.03</ele>
        <time>2012-05-13T07:16:04Z</time>
      </trkpt>
      <trkpt lat="46.35198" lon="4.73357">
        <ele>387.55</ele>
        <time>2012-05-13T07:16:05Z</time>
      </trkpt>
      <trkpt lat="46.35202" lon="4.7334">
        <ele>385.15</ele>
        <time>2012-05-13T07:16:11Z</time>
      </trkpt>
      <trkpt lat="46.35199" lon="4.73328">
        <ele>384.66</ele>
        <time>2012-05-13T07:16:13Z</time>
      </trkpt>
      <trkpt lat="46.35186" lon="4.73268">
        <ele>381.3</ele>
        <time>2012-05-13T07:16:21Z</time>
      </trkpt>
      <trkpt lat="46.35178" lon="4.73239">
        <ele>377.94</ele>
        <time>2012-05-13T07:16:24Z</time>
      </trkpt>
      <trkpt lat="46.35128" lon="4.73124">
        <ele>375.53</ele>
        <time>2012-05-13T07:16:37Z</time>
      </trkpt>
      <trkpt lat="46.3511" lon="4.73095">
        <ele>372.65</ele>
        <time>2012-05-13T07:16:41Z</time>
      </trkpt>
      <trkpt lat="46.35103" lon="4.73084">
        <ele>372.17</ele>
        <time>2012-05-13T07:16:43Z</time>
      </trkpt>
      <trkpt lat="46.35092" lon="4.73064">
        <ele>369.28</ele>
        <time>2012-05-13T07:16:46Z</time>
      </trkpt>
      <trkpt lat="46.35063" lon="4.73037">
        <ele>364.48</ele>
        <time>2012-05-13T07:16:51Z</time>
      </trkpt>
      <trkpt lat="46.35047" lon="4.73017">
        <ele>360.15</ele>
        <time>2012-05-13T07:16:55Z</time>
      </trkpt>
      <trkpt lat="46.35035" lon="4.73002">
        <ele>356.79</ele>
        <time>2012-05-13T07:16:58Z</time>
      </trkpt>
      <trkpt lat="46.35028" lon="4.72991">
        <ele>352.94</ele>
        <time>2012-05-13T07:17:00Z</time>
      </trkpt>
      <trkpt lat="46.35023" lon="4.72985">
        <ele>351.02</ele>
        <time>2012-05-13T07:17:01Z</time>
      </trkpt>
      <trkpt lat="46.35002" lon="4.72964">
        <ele>346.21</ele>
        <time>2012-05-13T07:17:05Z</time>
      </trkpt>
      <trkpt lat="46.34976" lon="4.72945">
        <ele>342.85</ele>
        <time>2012-05-13T07:17:09Z</time>
      </trkpt>
      <trkpt lat="46.34939" lon="4.72927">
        <ele>338.52</ele>
        <time>2012-05-13T07:17:14Z</time>
      </trkpt>
      <trkpt lat="46.34921" lon="4.72918">
        <ele>336.6</ele>
        <time>2012-05-13T07:17:17Z</time>
      </trkpt>
      <trkpt lat="46.34916" lon="4.72916">
        <ele>335.16</ele>
        <time>2012-05-13T07:17:18Z</time>
      </trkpt>
      <trkpt lat="46.34896" lon="4.72905">
        <ele>330.35</ele>
        <time>2012-05-13T07:17:21Z</time>
      </trkpt>
      <trkpt lat="46.3489" lon="4.72902">
        <ele>328.43</ele>
        <time>2012-05-13T07:17:22Z</time>
      </trkpt>
      <trkpt lat="46.34876" lon="4.72896">
        <ele>326.02</ele>
        <time>2012-05-13T07:17:24Z</time>
      </trkpt>
      <trkpt lat="46.3485" lon="4.72879">
        <ele>321.22</ele>
        <time>2012-05-13T07:17:28Z</time>
      </trkpt>
      <trkpt lat="46.34839" lon="4.72871">
        <ele>319.78</ele>
        <time>2012-05-13T07:17:30Z</time>
      </trkpt>
      <trkpt lat="46.34814" lon="4.72864">
        <ele>314.97</ele>
        <time>2012-05-13T07:17:34Z</time>
      </trkpt>
      <trkpt lat="46.34807" lon="4.72865">
        <ele>314.97</ele>
        <time>2012-05-13T07:17:35Z</time>
      </trkpt>
      <trkpt lat="46.34788" lon="4.7287">
        <ele>314.01</ele>
        <time>2012-05-13T07:17:38Z</time>
      </trkpt>
      <trkpt lat="46.34769" lon="4.72861">
        <ele>309.68</ele>
        <time>2012-05-13T07:17:43Z</time>
      </trkpt>
      <trkpt lat="46.34766" lon="4.72851">
        <ele>307.76</ele>
        <time>2012-05-13T07:17:45Z</time>
      </trkpt>
      <trkpt lat="46.34762" lon="4.72827">
        <ele>302.47</ele>
        <time>2012-05-13T07:17:49Z</time>
      </trkpt>
      <trkpt lat="46.3476" lon="4.72814">
        <ele>301.51</ele>
        <time>2012-05-13T07:17:52Z</time>
      </trkpt>
      <trkpt lat="46.3476" lon="4.72811">
        <ele>300.55</ele>
        <time>2012-05-13T07:17:53Z</time>
      </trkpt>
      <trkpt lat="46.34757" lon="4.72806">
        <ele>298.63</ele>
        <time>2012-05-13T07:17:56Z</time>
      </trkpt>
      <trkpt lat="46.34752" lon="4.72807">
        <ele>298.63</ele>
        <time>2012-05-13T07:18:00Z</time>
      </trkpt>
      <trkpt lat="46.34749" lon="4.72813">
        <ele>298.63</ele>
        <time>2012-05-13T07:18:17Z</time>
      </trkpt>
      <trkpt lat="46.3475" lon="4.72817">
        <ele>299.11</ele>
        <time>2012-05-13T07:18:35Z</time>
      </trkpt>
      <trkpt lat="46.3475" lon="4.72817">
        <ele>299.59</ele>
        <time>2012-05-13T07:19:16Z</time>
      </trkpt>
      <trkpt lat="46.3475" lon="4.72817">
        <ele>299.59</ele>
        <time>2012-05-13T07:20:04Z</time>
      </trkpt>
      <trkpt lat="46.3475" lon="4.72817">
        <ele>299.11</ele>
        <time>2012-05-13T07:20:51Z</time>
      </trkpt>
      <trkpt lat="46.3475" lon="4.72817">
        <ele>299.59</ele>
        <time>2012-05-13T07:21:40Z</time>
      </trkpt>
      <trkpt lat="46.3475" lon="4.72817">
        <ele>299.11</ele>
        <time>2012-05-13T07:22:27Z</time>
      </trkpt>
      <trkpt lat="46.34751" lon="4.72817">
        <ele>299.11</ele>
        <time>2012-05-13T07:23:12Z</time>
      </trkpt>
      <trkpt lat="46.3475" lon="4.72817">
        <ele>299.59</ele>
        <time>2012-05-13T07:23:48Z</time>
      </trkpt>
      <trkpt lat="46.34751" lon="4.72817">
        <ele>299.59</ele>
        <time>2012-05-13T07:24:38Z</time>
      </trkpt>
      <trkpt lat="46.3475" lon="4.72818">
        <ele>300.07</ele>
        <time>2012-05-13T07:25:30Z</time>
      </trkpt>
      <trkpt lat="46.34749" lon="4.72818">
        <ele>299.59</ele>
        <time>2012-05-13T07:26:23Z</time>
      </trkpt>
      <trkpt lat="46.3475" lon="4.72818">
        <ele>299.59</ele>
        <time>2012-05-13T07:27:16Z</time>
      </trkpt>
      <trkpt lat="46.3475" lon="4.72818">
        <ele>300.55</ele>
        <time>2012-05-13T07:28:01Z</time>
      </trkpt>
      <trkpt lat="46.34749" lon="4.72818">
        <ele>301.03</ele>
        <time>2012-05-13T07:28:20Z</time>
      </trkpt>
      <trkpt lat="46.34749" lon="4.72818">
        <ele>301.03</ele>
        <time>2012-05-13T07:28:36Z</time>
      </trkpt>
      <trkpt lat="46.34751" lon="4.72814">
        <ele>300.07</ele>
        <time>2012-05-13T07:28:45Z</time>
      </trkpt>
      <trkpt lat="46.3476" lon="4.72801">
        <ele>298.63</ele>
        <time>2012-05-13T07:28:53Z</time>
      </trkpt>
      <trkpt lat="46.34764" lon="4.72793">
        <ele>297.67</ele>
        <time>2012-05-13T07:28:56Z</time>
      </trkpt>
      <trkpt lat="46.34831" lon="4.72767">
        <ele>298.15</ele>
        <time>2012-05-13T07:29:18Z</time>
      </trkpt>
      <trkpt lat="46.34863" lon="4.72753">
        <ele>297.18</ele>
        <time>2012-05-13T07:29:27Z</time>
      </trkpt>
      <trkpt lat="46.34907" lon="4.72735">
        <ele>297.18</ele>
        <time>2012-05-13T07:29:38Z</time>
      </trkpt>
      <trkpt lat="46.34999" lon="4.72713">
        <ele>296.7</ele>
        <time>2012-05-13T07:30:00Z</time>
      </trkpt>
      <trkpt lat="46.35033" lon="4.72705">
        <ele>295.74</ele>
        <time>2012-05-13T07:30:08Z</time>
      </trkpt>
      <trkpt lat="46.35042" lon="4.72704">
        <ele>295.26</ele>
        <time>2012-05-13T07:30:10Z</time>
      </trkpt>
      <trkpt lat="46.35064" lon="4.72696">
        <ele>295.26</ele>
        <time>2012-05-13T07:30:15Z</time>
      </trkpt>
      <trkpt lat="46.35081" lon="4.72699">
        <ele>295.26</ele>
        <time>2012-05-13T07:30:19Z</time>
      </trkpt>
      <trkpt lat="46.35103" lon="4.72704">
        <ele>294.3</ele>
        <time>2012-05-13T07:30:24Z</time>
      </trkpt>
      <trkpt lat="46.35208" lon="4.72734">
        <ele>292.86</ele>
        <time>2012-05-13T07:30:47Z</time>
      </trkpt>
      <trkpt lat="46.35296" lon="4.72783">
        <ele>290.94</ele>
        <time>2012-05-13T07:31:08Z</time>
      </trkpt>
      <trkpt lat="46.35371" lon="4.7284">
        <ele>289.97</ele>
        <time>2012-05-13T07:31:28Z</time>
      </trkpt>
      <trkpt lat="46.35426" lon="4.72862">
        <ele>286.61</ele>
        <time>2012-05-13T07:31:39Z</time>
      </trkpt>
      <trkpt lat="46.35431" lon="4.72864">
        <ele>286.61</ele>
        <time>2012-05-13T07:31:40Z</time>
      </trkpt>
      <trkpt lat="46.35517" lon="4.72888">
        <ele>288.05</ele>
        <time>2012-05-13T07:31:59Z</time>
      </trkpt>
      <trkpt lat="46.35527" lon="4.7289">
        <ele>289.01</ele>
        <time>2012-05-13T07:32:03Z</time>
      </trkpt>
      <trkpt lat="46.35544" lon="4.72878">
        <ele>286.13</ele>
        <time>2012-05-13T07:32:11Z</time>
      </trkpt>
      <trkpt lat="46.35564" lon="4.72869">
        <ele>283.25</ele>
        <time>2012-05-13T07:32:15Z</time>
      </trkpt>
      <trkpt lat="46.35577" lon="4.72866">
        <ele>282.28</ele>
        <time>2012-05-13T07:32:19Z</time>
      </trkpt>
      <trkpt lat="46.35586" lon="4.72842">
        <ele>279.4</ele>
        <time>2012-05-13T07:32:35Z</time>
      </trkpt>
      <trkpt lat="46.35587" lon="4.72842">
        <ele>278.92</ele>
        <time>2012-05-13T07:33:17Z</time>
      </trkpt>
      <trkpt lat="46.35587" lon="4.72843">
        <ele>279.88</ele>
        <time>2012-05-13T07:34:10Z</time>
      </trkpt>
      <trkpt lat="46.35587" lon="4.72843">
        <ele>279.88</ele>
        <time>2012-05-13T07:34:55Z</time>
      </trkpt>
      <trkpt lat="46.35587" lon="4.72843">
        <ele>279.88</ele>
        <time>2012-05-13T07:35:51Z</time>
      </trkpt>
      <trkpt lat="46.35587" lon="4.72843">
        <ele>280.36</ele>
        <time>2012-05-13T07:36:42Z</time>
      </trkpt>
      <trkpt lat="46.35587" lon="4.72843">
        <ele>279.88</ele>
        <time>2012-05-13T07:37:28Z</time>
      </trkpt>
      <trkpt lat="46.35587" lon="4.72844">
        <ele>281.8</ele>
        <time>2012-05-13T07:38:19Z</time>
      </trkpt>
      <trkpt lat="46.35586" lon="4.72844">
        <ele>280.84</ele>
        <time>2012-05-13T07:39:12Z</time>
      </trkpt>
      <trkpt lat="46.35586" lon="4.72843">
        <ele>280.84</ele>
        <time>2012-05-13T07:39:56Z</time>
      </trkpt>
      <trkpt lat="46.35586" lon="4.72843">
        <ele>281.32</ele>
        <time>2012-05-13T07:40:44Z</time>
      </trkpt>
      <trkpt lat="46.35586" lon="4.72843">
        <ele>281.32</ele>
        <time>2012-05-13T07:41:33Z</time>
      </trkpt>
      <trkpt lat="46.35586" lon="4.72843">
        <ele>281.32</ele>
        <time>2012-05-13T07:42:17Z</time>
      </trkpt>
      <trkpt lat="46.35587" lon="4.72843">
        <ele>281.8</ele>
        <time>2012-05-13T07:43:03Z</time>
      </trkpt>
      <trkpt lat="46.35586" lon="4.72843">
        <ele>281.32</ele>
        <time>2012-05-13T07:43:45Z</time>
      </trkpt>
      <trkpt lat="46.35587" lon="4.72843">
        <ele>282.28</ele>
        <time>2012-05-13T07:43:58Z</time>
      </trkpt>
      <trkpt lat="46.35587" lon="4.72843">
        <ele>282.77</ele>
        <time>2012-05-13T07:44:42Z</time>
      </trkpt>
      <trkpt lat="46.35587" lon="4.72843">
        <ele>279.88</ele>
        <time>2012-05-13T07:45:04Z</time>
      </trkpt>
      <trkpt lat="46.35587" lon="4.72843">
        <ele>285.65</ele>
        <time>2012-05-13T07:45:08Z</time>
      </trkpt>
      <trkpt lat="46.35587" lon="4.72843">
        <ele>280.36</ele>
        <time>2012-05-13T07:45:10Z</time>
      </trkpt>
      <trkpt lat="46.35587" lon="4.72843">
        <ele>282.77</ele>
        <time>2012-05-13T07:45:44Z</time>
      </trkpt>
      <trkpt lat="46.35587" lon="4.72843">
        <ele>282.28</ele>
        <time>2012-05-13T07:45:57Z</time>
      </trkpt>
      <trkpt lat="46.35593" lon="4.72832">
        <ele>281.8</ele>
        <time>2012-05-13T07:46:03Z</time>
      </trkpt>
      <trkpt lat="46.35581" lon="4.72785">
        <ele>276.04</ele>
        <time>2012-05-13T07:46:09Z</time>
      </trkpt>
      <trkpt lat="46.35567" lon="4.72744">
        <ele>272.67</ele>
        <time>2012-05-13T07:46:13Z</time>
      </trkpt>
      <trkpt lat="46.35557" lon="4.72713">
        <ele>269.79</ele>
        <time>2012-05-13T07:46:16Z</time>
      </trkpt>
      <trkpt lat="46.35543" lon="4.72666">
        <ele>268.35</ele>
        <time>2012-05-13T07:46:23Z</time>
      </trkpt>
      <trkpt lat="46.35556" lon="4.72666">
        <ele>266.9</ele>
        <time>2012-05-13T07:46:30Z</time>
      </trkpt>
      <trkpt lat="46.35655" lon="4.7275">
        <ele>268.83</ele>
        <time>2012-05-13T07:46:55Z</time>
      </trkpt>
      <trkpt lat="46.35769" lon="4.7284">
        <ele>267.38</ele>
        <time>2012-05-13T07:47:22Z</time>
      </trkpt>
      <trkpt lat="46.35874" lon="4.72892">
        <ele>267.86</ele>
        <time>2012-05-13T07:47:45Z</time>
      </trkpt>
      <trkpt lat="46.3598" lon="4.7291">
        <ele>267.38</ele>
        <time>2012-05-13T07:48:06Z</time>
      </trkpt>
      <trkpt lat="46.36086" lon="4.72929">
        <ele>264.98</ele>
        <time>2012-05-13T07:48:25Z</time>
      </trkpt>
      <trkpt lat="46.36126" lon="4.72937">
        <ele>264.5</ele>
        <time>2012-05-13T07:48:34Z</time>
      </trkpt>
      <trkpt lat="46.36134" lon="4.72918">
        <ele>264.98</ele>
        <time>2012-05-13T07:48:38Z</time>
      </trkpt>
      <trkpt lat="46.36137" lon="4.72905">
        <ele>264.5</ele>
        <time>2012-05-13T07:48:40Z</time>
      </trkpt>
      <trkpt lat="46.36139" lon="4.72868">
        <ele>264.5</ele>
        <time>2012-05-13T07:48:45Z</time>
      </trkpt>
      <trkpt lat="46.36113" lon="4.72807">
        <ele>264.5</ele>
        <time>2012-05-13T07:48:56Z</time>
      </trkpt>
      <trkpt lat="46.36114" lon="4.728">
        <ele>264.5</ele>
        <time>2012-05-13T07:48:57Z</time>
      </trkpt>
      <trkpt lat="46.36119" lon="4.72734">
        <ele>268.35</ele>
        <time>2012-05-13T07:49:11Z</time>
      </trkpt>
      <trkpt lat="46.3612" lon="4.72728">
        <ele>269.31</ele>
        <time>2012-05-13T07:49:13Z</time>
      </trkpt>
      <trkpt lat="46.36123" lon="4.72685">
        <ele>272.19</ele>
        <time>2012-05-13T07:49:27Z</time>
      </trkpt>
      <trkpt lat="46.36126" lon="4.72658">
        <ele>275.56</ele>
        <time>2012-05-13T07:49:37Z</time>
      </trkpt>
      <trkpt lat="46.3613" lon="4.72623">
        <ele>278.44</ele>
        <time>2012-05-13T07:49:51Z</time>
      </trkpt>
      <trkpt lat="46.3613" lon="4.72619">
        <ele>279.4</ele>
        <time>2012-05-13T07:49:53Z</time>
      </trkpt>
      <trkpt lat="46.36094" lon="4.72581">
        <ele>279.4</ele>
        <time>2012-05-13T07:50:11Z</time>
      </trkpt>
      <trkpt lat="46.3602" lon="4.72541">
        <ele>279.4</ele>
        <time>2012-05-13T07:50:33Z</time>
      </trkpt>
      <trkpt lat="46.35952" lon="4.72496">
        <ele>280.84</ele>
        <time>2012-05-13T07:50:56Z</time>
      </trkpt>
      <trkpt lat="46.35897" lon="4.72458">
        <ele>282.28</ele>
        <time>2012-05-13T07:51:15Z</time>
      </trkpt>
      <trkpt lat="46.35825" lon="4.72396">
        <ele>285.65</ele>
        <time>2012-05-13T07:51:41Z</time>
      </trkpt>
      <trkpt lat="46.35808" lon="4.7237">
        <ele>287.57</ele>
        <time>2012-05-13T07:51:56Z</time>
      </trkpt>
      <trkpt lat="46.35808" lon="4.7237">
        <ele>287.57</ele>
        <time>2012-05-13T07:51:59Z</time>
      </trkpt>
      <trkpt lat="46.35789" lon="4.72349">
        <ele>290.94</ele>
        <time>2012-05-13T07:52:11Z</time>
      </trkpt>
      <trkpt lat="46.35777" lon="4.72335">
        <ele>291.42</ele>
        <time>2012-05-13T07:52:18Z</time>
      </trkpt>
      <trkpt lat="46.35758" lon="4.72301">
        <ele>294.78</ele>
        <time>2012-05-13T07:52:33Z</time>
      </trkpt>
      <trkpt lat="46.35716" lon="4.72255">
        <ele>297.18</ele>
        <time>2012-05-13T07:52:56Z</time>
      </trkpt>
      <trkpt lat="46.35695" lon="4.7222">
        <ele>300.07</ele>
        <time>2012-05-13T07:53:12Z</time>
      </trkpt>
      <trkpt lat="46.35675" lon="4.72185">
        <ele>303.91</ele>
        <time>2012-05-13T07:53:29Z</time>
      </trkpt>
      <trkpt lat="46.35658" lon="4.72153">
        <ele>306.8</ele>
        <time>2012-05-13T07:53:45Z</time>
      </trkpt>
      <trkpt lat="46.35639" lon="4.72118">
        <ele>308.72</ele>
        <time>2012-05-13T07:54:02Z</time>
      </trkpt>
      <trkpt lat="46.35627" lon="4.72118">
        <ele>309.2</ele>
        <time>2012-05-13T07:54:10Z</time>
      </trkpt>
      <trkpt lat="46.35623" lon="4.72104">
        <ele>310.16</ele>
        <time>2012-05-13T07:54:17Z</time>
      </trkpt>
      <trkpt lat="46.3563" lon="4.72081">
        <ele>314.01</ele>
        <time>2012-05-13T07:54:28Z</time>
      </trkpt>
      <trkpt lat="46.35634" lon="4.72054">
        <ele>317.37</ele>
        <time>2012-05-13T07:54:41Z</time>
      </trkpt>
      <trkpt lat="46.35613" lon="4.72016">
        <ele>319.3</ele>
        <time>2012-05-13T07:54:58Z</time>
      </trkpt>
      <trkpt lat="46.35565" lon="4.71972">
        <ele>318.81</ele>
        <time>2012-05-13T07:55:16Z</time>
      </trkpt>
      <trkpt lat="46.35547" lon="4.71954">
        <ele>319.78</ele>
        <time>2012-05-13T07:55:23Z</time>
      </trkpt>
      <trkpt lat="46.35554" lon="4.71954">
        <ele>319.78</ele>
        <time>2012-05-13T07:55:29Z</time>
      </trkpt>
      <trkpt lat="46.35593" lon="4.71963">
        <ele>323.14</ele>
        <time>2012-05-13T07:55:46Z</time>
      </trkpt>
      <trkpt lat="46.35596" lon="4.71958">
        <ele>324.1</ele>
        <time>2012-05-13T07:55:48Z</time>
      </trkpt>
      <trkpt lat="46.35608" lon="4.71923">
        <ele>327.47</ele>
        <time>2012-05-13T07:56:03Z</time>
      </trkpt>
      <trkpt lat="46.3562" lon="4.71891">
        <ele>330.35</ele>
        <time>2012-05-13T07:56:17Z</time>
      </trkpt>
      <trkpt lat="46.35633" lon="4.71858">
        <ele>333.71</ele>
        <time>2012-05-13T07:56:32Z</time>
      </trkpt>
      <trkpt lat="46.35644" lon="4.71835">
        <ele>336.6</ele>
        <time>2012-05-13T07:56:43Z</time>
      </trkpt>
      <trkpt lat="46.35651" lon="4.71839">
        <ele>336.12</ele>
        <time>2012-05-13T07:56:48Z</time>
      </trkpt>
      <trkpt lat="46.35692" lon="4.71874">
        <ele>336.6</ele>
        <time>2012-05-13T07:57:08Z</time>
      </trkpt>
      <trkpt lat="46.35723" lon="4.719">
        <ele>336.6</ele>
        <time>2012-05-13T07:57:21Z</time>
      </trkpt>
      <trkpt lat="46.3573" lon="4.71886">
        <ele>338.04</ele>
        <time>2012-05-13T07:57:27Z</time>
      </trkpt>
      <trkpt lat="46.35743" lon="4.71854">
        <ele>341.89</ele>
        <time>2012-05-13T07:57:40Z</time>
      </trkpt>
      <trkpt lat="46.35752" lon="4.71828">
        <ele>345.25</ele>
        <time>2012-05-13T07:57:51Z</time>
      </trkpt>
      <trkpt lat="46.35757" lon="4.71814">
        <ele>347.17</ele>
        <time>2012-05-13T07:57:57Z</time>
      </trkpt>
      <trkpt lat="46.3573" lon="4.71797">
        <ele>346.21</ele>
        <time>2012-05-13T07:58:11Z</time>
      </trkpt>
      <trkpt lat="46.35735" lon="4.71777">
        <ele>348.62</ele>
        <time>2012-05-13T07:58:22Z</time>
      </trkpt>
      <trkpt lat="46.35742" lon="4.71752">
        <ele>351.5</ele>
        <time>2012-05-13T07:58:34Z</time>
      </trkpt>
      <trkpt lat="46.35753" lon="4.7171">
        <ele>355.34</ele>
        <time>2012-05-13T07:58:53Z</time>
      </trkpt>
      <trkpt lat="46.35763" lon="4.7168">
        <ele>358.71</ele>
        <time>2012-05-13T07:59:07Z</time>
      </trkpt>
      <trkpt lat="46.35764" lon="4.71678">
        <ele>358.71</ele>
        <time>2012-05-13T07:59:08Z</time>
      </trkpt>
      <trkpt lat="46.35758" lon="4.71664">
        <ele>360.15</ele>
        <time>2012-05-13T07:59:15Z</time>
      </trkpt>
      <trkpt lat="46.35761" lon="4.71646">
        <ele>360.63</ele>
        <time>2012-05-13T07:59:24Z</time>
      </trkpt>
      <trkpt lat="46.35769" lon="4.71646">
        <ele>361.59</ele>
        <time>2012-05-13T07:59:29Z</time>
      </trkpt>
      <trkpt lat="46.35796" lon="4.71649">
        <ele>363.52</ele>
        <time>2012-05-13T07:59:45Z</time>
      </trkpt>
      <trkpt lat="46.35827" lon="4.7163">
        <ele>367.84</ele>
        <time>2012-05-13T08:00:04Z</time>
      </trkpt>
      <trkpt lat="46.35858" lon="4.71619">
        <ele>371.21</ele>
        <time>2012-05-13T08:00:23Z</time>
      </trkpt>
      <trkpt lat="46.3589" lon="4.71625">
        <ele>374.09</ele>
        <time>2012-05-13T08:00:41Z</time>
      </trkpt>
      <trkpt lat="46.35921" lon="4.71631">
        <ele>376.97</ele>
        <time>2012-05-13T08:00:59Z</time>
      </trkpt>
      <trkpt lat="46.35947" lon="4.71636">
        <ele>380.34</ele>
        <time>2012-05-13T08:01:14Z</time>
      </trkpt>
      <trkpt lat="46.35981" lon="4.71642">
        <ele>383.22</ele>
        <time>2012-05-13T08:01:34Z</time>
      </trkpt>
      <trkpt lat="46.36006" lon="4.71642">
        <ele>386.11</ele>
        <time>2012-05-13T08:01:49Z</time>
      </trkpt>
      <trkpt lat="46.36042" lon="4.71653">
        <ele>388.51</ele>
        <time>2012-05-13T08:02:09Z</time>
      </trkpt>
      <trkpt lat="46.3607" lon="4.71649">
        <ele>391.87</ele>
        <time>2012-05-13T08:02:26Z</time>
      </trkpt>
      <trkpt lat="46.36089" lon="4.71653">
        <ele>393.32</ele>
        <time>2012-05-13T08:02:37Z</time>
      </trkpt>
      <trkpt lat="46.36099" lon="4.71654">
        <ele>393.8</ele>
        <time>2012-05-13T08:02:43Z</time>
      </trkpt>
      <trkpt lat="46.36137" lon="4.71658">
        <ele>396.68</ele>
        <time>2012-05-13T08:03:05Z</time>
      </trkpt>
      <trkpt lat="46.36168" lon="4.71655">
        <ele>400.05</ele>
        <time>2012-05-13T08:03:24Z</time>
      </trkpt>
      <trkpt lat="46.36206" lon="4.71657">
        <ele>403.41</ele>
        <time>2012-05-13T08:03:46Z</time>
      </trkpt>
      <trkpt lat="46.36238" lon="4.71656">
        <ele>406.29</ele>
        <time>2012-05-13T08:04:05Z</time>
      </trkpt>
      <trkpt lat="46.36275" lon="4.7166">
        <ele>409.66</ele>
        <time>2012-05-13T08:04:27Z</time>
      </trkpt>
      <trkpt lat="46.36306" lon="4.71666">
        <ele>412.54</ele>
        <time>2012-05-13T08:04:45Z</time>
      </trkpt>
      <trkpt lat="46.36342" lon="4.71667">
        <ele>415.43</ele>
        <time>2012-05-13T08:05:05Z</time>
      </trkpt>
      <trkpt lat="46.36375" lon="4.71668">
        <ele>418.79</ele>
        <time>2012-05-13T08:05:25Z</time>
      </trkpt>
      <trkpt lat="46.36411" lon="4.71669">
        <ele>422.64</ele>
        <time>2012-05-13T08:05:47Z</time>
      </trkpt>
      <trkpt lat="46.36412" lon="4.71666">
        <ele>422.64</ele>
        <time>2012-05-13T08:05:49Z</time>
      </trkpt>
      <trkpt lat="46.36404" lon="4.71643">
        <ele>424.56</ele>
        <time>2012-05-13T08:06:00Z</time>
      </trkpt>
      <trkpt lat="46.36421" lon="4.7162">
        <ele>428.4</ele>
        <time>2012-05-13T08:06:16Z</time>
      </trkpt>
      <trkpt lat="46.36423" lon="4.7162">
        <ele>428.4</ele>
        <time>2012-05-13T08:06:17Z</time>
      </trkpt>
      <trkpt lat="46.36456" lon="4.71614">
        <ele>431.77</ele>
        <time>2012-05-13T08:06:38Z</time>
      </trkpt>
      <trkpt lat="46.36469" lon="4.71609">
        <ele>433.21</ele>
        <time>2012-05-13T08:06:46Z</time>
      </trkpt>
      <trkpt lat="46.36477" lon="4.71607">
        <ele>433.21</ele>
        <time>2012-05-13T08:06:51Z</time>
      </trkpt>
      <trkpt lat="46.36503" lon="4.71594">
        <ele>437.06</ele>
        <time>2012-05-13T08:07:09Z</time>
      </trkpt>
      <trkpt lat="46.36516" lon="4.71585">
        <ele>438.5</ele>
        <time>2012-05-13T08:07:18Z</time>
      </trkpt>
      <trkpt lat="46.36527" lon="4.71579">
        <ele>439.46</ele>
        <time>2012-05-13T08:07:25Z</time>
      </trkpt>
      <trkpt lat="46.36539" lon="4.71575">
        <ele>440.42</ele>
        <time>2012-05-13T08:07:33Z</time>
      </trkpt>
      <trkpt lat="46.36556" lon="4.71574">
        <ele>441.38</ele>
        <time>2012-05-13T08:07:43Z</time>
      </trkpt>
      <trkpt lat="46.36571" lon="4.71575">
        <ele>442.82</ele>
        <time>2012-05-13T08:07:51Z</time>
      </trkpt>
      <trkpt lat="46.36602" lon="4.7157">
        <ele>445.23</ele>
        <time>2012-05-13T08:08:09Z</time>
      </trkpt>
      <trkpt lat="46.36617" lon="4.71568">
        <ele>445.71</ele>
        <time>2012-05-13T08:08:17Z</time>
      </trkpt>
      <trkpt lat="46.36628" lon="4.71568">
        <ele>446.67</ele>
        <time>2012-05-13T08:08:22Z</time>
      </trkpt>
      <trkpt lat="46.3666" lon="4.71565">
        <ele>446.67</ele>
        <time>2012-05-13T08:08:39Z</time>
      </trkpt>
      <trkpt lat="46.3668" lon="4.71579">
        <ele>446.19</ele>
        <time>2012-05-13T08:08:54Z</time>
      </trkpt>
      <trkpt lat="46.36722" lon="4.71596">
        <ele>444.27</ele>
        <time>2012-05-13T08:09:09Z</time>
      </trkpt>
      <trkpt lat="46.36724" lon="4.71598">
        <ele>444.75</ele>
        <time>2012-05-13T08:09:10Z</time>
      </trkpt>
      <trkpt lat="46.36752" lon="4.71608">
        <ele>444.27</ele>
        <time>2012-05-13T08:09:18Z</time>
      </trkpt>
      <trkpt lat="46.36769" lon="4.71618">
        <ele>444.27</ele>
        <time>2012-05-13T08:09:26Z</time>
      </trkpt>
      <trkpt lat="46.36778" lon="4.7162">
        <ele>444.27</ele>
        <time>2012-05-13T08:09:28Z</time>
      </trkpt>
      <trkpt lat="46.36826" lon="4.71641">
        <ele>444.75</ele>
        <time>2012-05-13T08:09:42Z</time>
      </trkpt>
      <trkpt lat="46.36869" lon="4.71668">
        <ele>447.15</ele>
        <time>2012-05-13T08:09:57Z</time>
      </trkpt>
      <trkpt lat="46.36926" lon="4.71714">
        <ele>449.07</ele>
        <time>2012-05-13T08:10:16Z</time>
      </trkpt>
      <trkpt lat="46.36944" lon="4.71732">
        <ele>448.11</ele>
        <time>2012-05-13T08:10:22Z</time>
      </trkpt>
      <trkpt lat="46.36947" lon="4.71736">
        <ele>448.11</ele>
        <time>2012-05-13T08:10:23Z</time>
      </trkpt>
      <trkpt lat="46.36961" lon="4.71745">
        <ele>447.63</ele>
        <time>2012-05-13T08:10:27Z</time>
      </trkpt>
      <trkpt lat="46.36993" lon="4.71756">
        <ele>448.59</ele>
        <time>2012-05-13T08:10:35Z</time>
      </trkpt>
      <trkpt lat="46.37034" lon="4.71789">
        <ele>446.19</ele>
        <time>2012-05-13T08:10:46Z</time>
      </trkpt>
      <trkpt lat="46.37051" lon="4.71799">
        <ele>444.75</ele>
        <time>2012-05-13T08:10:50Z</time>
      </trkpt>
      <trkpt lat="46.37068" lon="4.71807">
        <ele>444.75</ele>
        <time>2012-05-13T08:10:54Z</time>
      </trkpt>
      <trkpt lat="46.37076" lon="4.71803">
        <ele>445.23</ele>
        <time>2012-05-13T08:10:58Z</time>
      </trkpt>
      <trkpt lat="46.37078" lon="4.71763">
        <ele>448.59</ele>
        <time>2012-05-13T08:11:13Z</time>
      </trkpt>
      <trkpt lat="46.37077" lon="4.7173">
        <ele>451.48</ele>
        <time>2012-05-13T08:11:25Z</time>
      </trkpt>
      <trkpt lat="46.37073" lon="4.71689">
        <ele>455.32</ele>
        <time>2012-05-13T08:11:42Z</time>
      </trkpt>
      <trkpt lat="46.37072" lon="4.71679">
        <ele>456.28</ele>
        <time>2012-05-13T08:11:47Z</time>
      </trkpt>
      <trkpt lat="46.37072" lon="4.7167">
        <ele>457.24</ele>
        <time>2012-05-13T08:11:51Z</time>
      </trkpt>
      <trkpt lat="46.37071" lon="4.7164">
        <ele>460.61</ele>
        <time>2012-05-13T08:12:06Z</time>
      </trkpt>
      <trkpt lat="46.37071" lon="4.71636">
        <ele>461.09</ele>
        <time>2012-05-13T08:12:08Z</time>
      </trkpt>
      <trkpt lat="46.3708" lon="4.7162">
        <ele>463.49</ele>
        <time>2012-05-13T08:12:19Z</time>
      </trkpt>
      <trkpt lat="46.37091" lon="4.71609">
        <ele>464.93</ele>
        <time>2012-05-13T08:12:29Z</time>
      </trkpt>
      <trkpt lat="46.37121" lon="4.71597">
        <ele>468.3</ele>
        <time>2012-05-13T08:12:50Z</time>
      </trkpt>
      <trkpt lat="46.37154" lon="4.71589">
        <ele>471.18</ele>
        <time>2012-05-13T08:13:12Z</time>
      </trkpt>
      <trkpt lat="46.37164" lon="4.71585">
        <ele>473.11</ele>
        <time>2012-05-13T08:13:18Z</time>
      </trkpt>
      <trkpt lat="46.37184" lon="4.71579">
        <ele>474.55</ele>
        <time>2012-05-13T08:13:31Z</time>
      </trkpt>
      <trkpt lat="46.37215" lon="4.71571">
        <ele>477.43</ele>
        <time>2012-05-13T08:13:51Z</time>
      </trkpt>
      <trkpt lat="46.37248" lon="4.71571">
        <ele>479.84</ele>
        <time>2012-05-13T08:14:06Z</time>
      </trkpt>
      <trkpt lat="46.37275" lon="4.71553">
        <ele>483.2</ele>
        <time>2012-05-13T08:14:22Z</time>
      </trkpt>
      <trkpt lat="46.37299" lon="4.71535">
        <ele>486.08</ele>
        <time>2012-05-13T08:14:41Z</time>
      </trkpt>
      <trkpt lat="46.37324" lon="4.71515">
        <ele>488.49</ele>
        <time>2012-05-13T08:14:59Z</time>
      </trkpt>
      <trkpt lat="46.37331" lon="4.71497">
        <ele>490.89</ele>
        <time>2012-05-13T08:15:09Z</time>
      </trkpt>
      <trkpt lat="46.37331" lon="4.71495">
        <ele>490.89</ele>
        <time>2012-05-13T08:15:10Z</time>
      </trkpt>
      <trkpt lat="46.37334" lon="4.71484">
        <ele>493.29</ele>
        <time>2012-05-13T08:15:16Z</time>
      </trkpt>
      <trkpt lat="46.37335" lon="4.71477">
        <ele>494.74</ele>
        <time>2012-05-13T08:15:20Z</time>
      </trkpt>
      <trkpt lat="46.37338" lon="4.71465">
        <ele>496.66</ele>
        <time>2012-05-13T08:15:28Z</time>
      </trkpt>
      <trkpt lat="46.37339" lon="4.71458">
        <ele>497.62</ele>
        <time>2012-05-13T08:15:32Z</time>
      </trkpt>
      <trkpt lat="46.37339" lon="4.71455">
        <ele>498.58</ele>
        <time>2012-05-13T08:15:34Z</time>
      </trkpt>
      <trkpt lat="46.37338" lon="4.7144">
        <ele>500.98</ele>
        <time>2012-05-13T08:15:44Z</time>
      </trkpt>
      <trkpt lat="46.37338" lon="4.71429">
        <ele>502.91</ele>
        <time>2012-05-13T08:15:51Z</time>
      </trkpt>
      <trkpt lat="46.37339" lon="4.7142">
        <ele>503.87</ele>
        <time>2012-05-13T08:15:58Z</time>
      </trkpt>
      <trkpt lat="46.37341" lon="4.71401">
        <ele>506.75</ele>
        <time>2012-05-13T08:16:13Z</time>
      </trkpt>
      <trkpt lat="46.37347" lon="4.71379">
        <ele>510.12</ele>
        <time>2012-05-13T08:16:28Z</time>
      </trkpt>
      <trkpt lat="46.37348" lon="4.71373">
        <ele>510.6</ele>
        <time>2012-05-13T08:16:36Z</time>
      </trkpt>
      <trkpt lat="46.3735" lon="4.71363">
        <ele>511.56</ele>
        <time>2012-05-13T08:16:41Z</time>
      </trkpt>
      <trkpt lat="46.37349" lon="4.71351">
        <ele>512.04</ele>
        <time>2012-05-13T08:16:48Z</time>
      </trkpt>
      <trkpt lat="46.37339" lon="4.71344">
        <ele>512.04</ele>
        <time>2012-05-13T08:16:55Z</time>
      </trkpt>
      <trkpt lat="46.3733" lon="4.7134">
        <ele>512.04</ele>
        <time>2012-05-13T08:17:02Z</time>
      </trkpt>
      <trkpt lat="46.37324" lon="4.71338">
        <ele>511.56</ele>
        <time>2012-05-13T08:17:24Z</time>
      </trkpt>
      <trkpt lat="46.37324" lon="4.71338">
        <ele>511.08</ele>
        <time>2012-05-13T08:18:16Z</time>
      </trkpt>
      <trkpt lat="46.373" lon="4.71337">
        <ele>511.56</ele>
        <time>2012-05-13T08:18:38Z</time>
      </trkpt>
      <trkpt lat="46.37267" lon="4.71333">
        <ele>511.08</ele>
        <time>2012-05-13T08:18:53Z</time>
      </trkpt>
      <trkpt lat="46.37244" lon="4.7134">
        <ele>510.6</ele>
        <time>2012-05-13T08:19:05Z</time>
      </trkpt>
      <trkpt lat="46.37229" lon="4.7133">
        <ele>508.67</ele>
        <time>2012-05-13T08:19:11Z</time>
      </trkpt>
      <trkpt lat="46.37201" lon="4.71328">
        <ele>507.23</ele>
        <time>2012-05-13T08:19:21Z</time>
      </trkpt>
      <trkpt lat="46.37188" lon="4.71334">
        <ele>506.27</ele>
        <time>2012-05-13T08:19:26Z</time>
      </trkpt>
      <trkpt lat="46.37181" lon="4.7134">
        <ele>505.31</ele>
        <time>2012-05-13T08:19:30Z</time>
      </trkpt>
      <trkpt lat="46.37161" lon="4.71348">
        <ele>503.87</ele>
        <time>2012-05-13T08:19:42Z</time>
      </trkpt>
      <trkpt lat="46.37147" lon="4.71329">
        <ele>506.27</ele>
        <time>2012-05-13T08:20:00Z</time>
      </trkpt>
      <trkpt lat="46.37143" lon="4.7132">
        <ele>507.71</ele>
        <time>2012-05-13T08:20:09Z</time>
      </trkpt>
      <trkpt lat="46.37142" lon="4.71315">
        <ele>508.19</ele>
        <time>2012-05-13T08:20:13Z</time>
      </trkpt>
      <trkpt lat="46.37138" lon="4.71314">
        <ele>508.67</ele>
        <time>2012-05-13T08:20:21Z</time>
      </trkpt>
      <trkpt lat="46.37132" lon="4.71315">
        <ele>508.67</ele>
        <time>2012-05-13T08:20:25Z</time>
      </trkpt>
      <trkpt lat="46.37115" lon="4.71319">
        <ele>505.31</ele>
        <time>2012-05-13T08:20:32Z</time>
      </trkpt>
      <trkpt lat="46.37073" lon="4.71314">
        <ele>502.43</ele>
        <time>2012-05-13T08:20:47Z</time>
      </trkpt>
      <trkpt lat="46.37063" lon="4.71313">
        <ele>502.43</ele>
        <time>2012-05-13T08:20:51Z</time>
      </trkpt>
      <trkpt lat="46.37028" lon="4.71287">
        <ele>501.46</ele>
        <time>2012-05-13T08:21:06Z</time>
      </trkpt>
      <trkpt lat="46.37021" lon="4.71285">
        <ele>500.98</ele>
        <time>2012-05-13T08:21:08Z</time>
      </trkpt>
      <trkpt lat="46.36978" lon="4.71271">
        <ele>499.06</ele>
        <time>2012-05-13T08:21:23Z</time>
      </trkpt>
      <trkpt lat="46.36943" lon="4.71271">
        <ele>496.18</ele>
        <time>2012-05-13T08:21:33Z</time>
      </trkpt>
      <trkpt lat="46.36925" lon="4.71261">
        <ele>493.29</ele>
        <time>2012-05-13T08:21:39Z</time>
      </trkpt>
      <trkpt lat="46.3692" lon="4.71258">
        <ele>492.81</ele>
        <time>2012-05-13T08:21:41Z</time>
      </trkpt>
      <trkpt lat="46.36902" lon="4.71254">
        <ele>491.37</ele>
        <time>2012-05-13T08:21:48Z</time>
      </trkpt>
      <trkpt lat="46.36891" lon="4.71256">
        <ele>489.93</ele>
        <time>2012-05-13T08:21:52Z</time>
      </trkpt>
      <trkpt lat="46.36878" lon="4.71252">
        <ele>488.97</ele>
        <time>2012-05-13T08:21:57Z</time>
      </trkpt>
      <trkpt lat="46.36873" lon="4.71247">
        <ele>488.49</ele>
        <time>2012-05-13T08:21:59Z</time>
      </trkpt>
      <trkpt lat="46.36866" lon="4.71249">
        <ele>488.01</ele>
        <time>2012-05-13T08:22:07Z</time>
      </trkpt>
      <trkpt lat="46.36856" lon="4.71247">
        <ele>487.53</ele>
        <time>2012-05-13T08:22:12Z</time>
      </trkpt>
      <trkpt lat="46.36823" lon="4.71231">
        <ele>484.16</ele>
        <time>2012-05-13T08:22:24Z</time>
      </trkpt>
      <trkpt lat="46.36815" lon="4.71227">
        <ele>483.68</ele>
        <time>2012-05-13T08:22:26Z</time>
      </trkpt>
      <trkpt lat="46.36793" lon="4.71212">
        <ele>481.76</ele>
        <time>2012-05-13T08:22:35Z</time>
      </trkpt>
      <trkpt lat="46.36755" lon="4.71208">
        <ele>478.87</ele>
        <time>2012-05-13T08:22:49Z</time>
      </trkpt>
      <trkpt lat="46.36753" lon="4.71207">
        <ele>478.39</ele>
        <time>2012-05-13T08:22:50Z</time>
      </trkpt>
      <trkpt lat="46.36745" lon="4.71197">
        <ele>477.91</ele>
        <time>2012-05-13T08:22:54Z</time>
      </trkpt>
      <trkpt lat="46.36711" lon="4.71194">
        <ele>474.55</ele>
        <time>2012-05-13T08:23:05Z</time>
      </trkpt>
      <trkpt lat="46.36695" lon="4.71198">
        <ele>472.63</ele>
        <time>2012-05-13T08:23:10Z</time>
      </trkpt>
      <trkpt lat="46.36674" lon="4.71197">
        <ele>471.66</ele>
        <time>2012-05-13T08:23:15Z</time>
      </trkpt>
      <trkpt lat="46.36659" lon="4.712">
        <ele>470.7</ele>
        <time>2012-05-13T08:23:19Z</time>
      </trkpt>
      <trkpt lat="46.36613" lon="4.712">
        <ele>466.86</ele>
        <time>2012-05-13T08:23:30Z</time>
      </trkpt>
      <trkpt lat="46.36573" lon="4.712">
        <ele>464.93</ele>
        <time>2012-05-13T08:23:42Z</time>
      </trkpt>
      <trkpt lat="46.36565" lon="4.712">
        <ele>463.97</ele>
        <time>2012-05-13T08:23:44Z</time>
      </trkpt>
      <trkpt lat="46.36526" lon="4.71193">
        <ele>461.57</ele>
        <time>2012-05-13T08:23:59Z</time>
      </trkpt>
      <trkpt lat="46.36497" lon="4.7119">
        <ele>458.69</ele>
        <time>2012-05-13T08:24:10Z</time>
      </trkpt>
      <trkpt lat="46.36488" lon="4.71192">
        <ele>457.72</ele>
        <time>2012-05-13T08:24:13Z</time>
      </trkpt>
      <trkpt lat="46.36461" lon="4.71193">
        <ele>455.32</ele>
        <time>2012-05-13T08:24:25Z</time>
      </trkpt>
      <trkpt lat="46.36423" lon="4.71189">
        <ele>452.92</ele>
        <time>2012-05-13T08:24:36Z</time>
      </trkpt>
      <trkpt lat="46.3638" lon="4.71185">
        <ele>449.55</ele>
        <time>2012-05-13T08:24:47Z</time>
      </trkpt>
      <trkpt lat="46.36358" lon="4.71181">
        <ele>448.11</ele>
        <time>2012-05-13T08:24:55Z</time>
      </trkpt>
      <trkpt lat="46.36355" lon="4.71178">
        <ele>448.59</ele>
        <time>2012-05-13T08:25:03Z</time>
      </trkpt>
      <trkpt lat="46.36333" lon="4.71169">
        <ele>445.71</ele>
        <time>2012-05-13T08:25:12Z</time>
      </trkpt>
      <trkpt lat="46.36325" lon="4.71168">
        <ele>444.75</ele>
        <time>2012-05-13T08:25:15Z</time>
      </trkpt>
      <trkpt lat="46.36313" lon="4.71161">
        <ele>442.34</ele>
        <time>2012-05-13T08:25:20Z</time>
      </trkpt>
      <trkpt lat="46.36296" lon="4.71162">
        <ele>438.98</ele>
        <time>2012-05-13T08:25:26Z</time>
      </trkpt>
      <trkpt lat="46.36275" lon="4.71159">
        <ele>435.61</ele>
        <time>2012-05-13T08:25:33Z</time>
      </trkpt>
      <trkpt lat="46.36251" lon="4.7116">
        <ele>432.25</ele>
        <time>2012-05-13T08:25:43Z</time>
      </trkpt>
      <trkpt lat="46.36237" lon="4.71164">
        <ele>428.4</ele>
        <time>2012-05-13T08:25:48Z</time>
      </trkpt>
      <trkpt lat="46.36234" lon="4.71164">
        <ele>428.4</ele>
        <time>2012-05-13T08:25:49Z</time>
      </trkpt>
      <trkpt lat="46.36216" lon="4.7116">
        <ele>424.08</ele>
        <time>2012-05-13T08:25:56Z</time>
      </trkpt>
      <trkpt lat="46.36214" lon="4.7116">
        <ele>424.08</ele>
        <time>2012-05-13T08:25:57Z</time>
      </trkpt>
      <trkpt lat="46.362" lon="4.71157">
        <ele>420.71</ele>
        <time>2012-05-13T08:26:02Z</time>
      </trkpt>
      <trkpt lat="46.36184" lon="4.71153">
        <ele>417.35</ele>
        <time>2012-05-13T08:26:08Z</time>
      </trkpt>
      <trkpt lat="46.36174" lon="4.71151">
        <ele>415.43</ele>
        <time>2012-05-13T08:26:12Z</time>
      </trkpt>
      <trkpt lat="46.36163" lon="4.7115">
        <ele>413.02</ele>
        <time>2012-05-13T08:26:16Z</time>
      </trkpt>
      <trkpt lat="46.36142" lon="4.71156">
        <ele>410.14</ele>
        <time>2012-05-13T08:26:22Z</time>
      </trkpt>
      <trkpt lat="46.36122" lon="4.71163">
        <ele>406.77</ele>
        <time>2012-05-13T08:26:28Z</time>
      </trkpt>
      <trkpt lat="46.36118" lon="4.71164">
        <ele>406.29</ele>
        <time>2012-05-13T08:26:29Z</time>
      </trkpt>
      <trkpt lat="46.36098" lon="4.71162">
        <ele>403.41</ele>
        <time>2012-05-13T08:26:36Z</time>
      </trkpt>
      <trkpt lat="46.36085" lon="4.71156">
        <ele>401.01</ele>
        <time>2012-05-13T08:26:39Z</time>
      </trkpt>
      <trkpt lat="46.36077" lon="4.71155">
        <ele>400.05</ele>
        <time>2012-05-13T08:26:41Z</time>
      </trkpt>
      <trkpt lat="46.36049" lon="4.71163">
        <ele>397.64</ele>
        <time>2012-05-13T08:26:51Z</time>
      </trkpt>
      <trkpt lat="46.36029" lon="4.71166">
        <ele>394.76</ele>
        <time>2012-05-13T08:26:56Z</time>
      </trkpt>
      <trkpt lat="46.36013" lon="4.71168">
        <ele>392.84</ele>
        <time>2012-05-13T08:27:00Z</time>
      </trkpt>
      <trkpt lat="46.35994" lon="4.71177">
        <ele>390.91</ele>
        <time>2012-05-13T08:27:05Z</time>
      </trkpt>
      <trkpt lat="46.35979" lon="4.71183">
        <ele>388.99</ele>
        <time>2012-05-13T08:27:17Z</time>
      </trkpt>
      <trkpt lat="46.35979" lon="4.71183">
        <ele>388.51</ele>
        <time>2012-05-13T08:27:29Z</time>
      </trkpt>
      <trkpt lat="46.35955" lon="4.7117">
        <ele>385.15</ele>
        <time>2012-05-13T08:27:37Z</time>
      </trkpt>
      <trkpt lat="46.35941" lon="4.71169">
        <ele>383.22</ele>
        <time>2012-05-13T08:27:40Z</time>
      </trkpt>
      <trkpt lat="46.35926" lon="4.71169">
        <ele>381.3</ele>
        <time>2012-05-13T08:27:43Z</time>
      </trkpt>
      <trkpt lat="46.35893" lon="4.71175">
        <ele>377.45</ele>
        <time>2012-05-13T08:27:51Z</time>
      </trkpt>
      <trkpt lat="46.35874" lon="4.71177">
        <ele>375.53</ele>
        <time>2012-05-13T08:27:55Z</time>
      </trkpt>
      <trkpt lat="46.3586" lon="4.71177">
        <ele>373.61</ele>
        <time>2012-05-13T08:27:58Z</time>
      </trkpt>
      <trkpt lat="46.35846" lon="4.71178">
        <ele>372.17</ele>
        <time>2012-05-13T08:28:01Z</time>
      </trkpt>
      <trkpt lat="46.35837" lon="4.71178">
        <ele>370.24</ele>
        <time>2012-05-13T08:28:03Z</time>
      </trkpt>
      <trkpt lat="46.35812" lon="4.71176">
        <ele>366.4</ele>
        <time>2012-05-13T08:28:09Z</time>
      </trkpt>
      <trkpt lat="46.35808" lon="4.71176">
        <ele>366.4</ele>
        <time>2012-05-13T08:28:10Z</time>
      </trkpt>
      <trkpt lat="46.3579" lon="4.71176">
        <ele>363.04</ele>
        <time>2012-05-13T08:28:15Z</time>
      </trkpt>
      <trkpt lat="46.35772" lon="4.71175">
        <ele>360.15</ele>
        <time>2012-05-13T08:28:20Z</time>
      </trkpt>
      <trkpt lat="46.35754" lon="4.71177">
        <ele>357.27</ele>
        <time>2012-05-13T08:28:25Z</time>
      </trkpt>
      <trkpt lat="46.35739" lon="4.71179">
        <ele>354.38</ele>
        <time>2012-05-13T08:28:30Z</time>
      </trkpt>
      <trkpt lat="46.35734" lon="4.71182">
        <ele>353.42</ele>
        <time>2012-05-13T08:28:32Z</time>
      </trkpt>
      <trkpt lat="46.35725" lon="4.71184">
        <ele>351.98</ele>
        <time>2012-05-13T08:28:37Z</time>
      </trkpt>
      <trkpt lat="46.35724" lon="4.71185">
        <ele>351.98</ele>
        <time>2012-05-13T08:29:02Z</time>
      </trkpt>
      <trkpt lat="46.35723" lon="4.71185">
        <ele>353.42</ele>
        <time>2012-05-13T08:29:37Z</time>
      </trkpt>
      <trkpt lat="46.35723" lon="4.71185">
        <ele>352.94</ele>
        <time>2012-05-13T08:29:38Z</time>
      </trkpt>
      <trkpt lat="46.35723" lon="4.71185">
        <ele>352.46</ele>
        <time>2012-05-13T08:29:40Z</time>
      </trkpt>
      <trkpt lat="46.35706" lon="4.71173">
        <ele>348.62</ele>
        <time>2012-05-13T08:29:48Z</time>
      </trkpt>
      <trkpt lat="46.35689" lon="4.7117">
        <ele>346.21</ele>
        <time>2012-05-13T08:29:52Z</time>
      </trkpt>
      <trkpt lat="46.35686" lon="4.71173">
        <ele>345.73</ele>
        <time>2012-05-13T08:29:53Z</time>
      </trkpt>
      <trkpt lat="46.35676" lon="4.71182">
        <ele>344.77</ele>
        <time>2012-05-13T08:29:56Z</time>
      </trkpt>
      <trkpt lat="46.35661" lon="4.71191">
        <ele>342.85</ele>
        <time>2012-05-13T08:30:00Z</time>
      </trkpt>
      <trkpt lat="46.35655" lon="4.71198">
        <ele>342.37</ele>
        <time>2012-05-13T08:30:02Z</time>
      </trkpt>
      <trkpt lat="46.35625" lon="4.71217">
        <ele>338.04</ele>
        <time>2012-05-13T08:30:08Z</time>
      </trkpt>
      <trkpt lat="46.35602" lon="4.7123">
        <ele>334.68</ele>
        <time>2012-05-13T08:30:13Z</time>
      </trkpt>
      <trkpt lat="46.35578" lon="4.71245">
        <ele>331.31</ele>
        <time>2012-05-13T08:30:22Z</time>
      </trkpt>
      <trkpt lat="46.35557" lon="4.71259">
        <ele>327.95</ele>
        <time>2012-05-13T08:30:29Z</time>
      </trkpt>
      <trkpt lat="46.35555" lon="4.71261">
        <ele>327.95</ele>
        <time>2012-05-13T08:30:30Z</time>
      </trkpt>
      <trkpt lat="46.35546" lon="4.71268">
        <ele>326.02</ele>
        <time>2012-05-13T08:30:33Z</time>
      </trkpt>
      <trkpt lat="46.35525" lon="4.7127">
        <ele>323.62</ele>
        <time>2012-05-13T08:30:39Z</time>
      </trkpt>
      <trkpt lat="46.35509" lon="4.7128">
        <ele>321.22</ele>
        <time>2012-05-13T08:30:43Z</time>
      </trkpt>
      <trkpt lat="46.35494" lon="4.71292">
        <ele>317.85</ele>
        <time>2012-05-13T08:30:47Z</time>
      </trkpt>
      <trkpt lat="46.35485" lon="4.71296">
        <ele>316.41</ele>
        <time>2012-05-13T08:30:49Z</time>
      </trkpt>
      <trkpt lat="46.35472" lon="4.71302">
        <ele>314.49</ele>
        <time>2012-05-13T08:30:52Z</time>
      </trkpt>
      <trkpt lat="46.35463" lon="4.71306">
        <ele>313.05</ele>
        <time>2012-05-13T08:30:54Z</time>
      </trkpt>
      <trkpt lat="46.35456" lon="4.71304">
        <ele>312.09</ele>
        <time>2012-05-13T08:30:56Z</time>
      </trkpt>
      <trkpt lat="46.35449" lon="4.71303">
        <ele>310.16</ele>
        <time>2012-05-13T08:30:58Z</time>
      </trkpt>
      <trkpt lat="46.35439" lon="4.71302">
        <ele>307.76</ele>
        <time>2012-05-13T08:31:01Z</time>
      </trkpt>
      <trkpt lat="46.35432" lon="4.71296">
        <ele>307.28</ele>
        <time>2012-05-13T08:31:03Z</time>
      </trkpt>
      <trkpt lat="46.35416" lon="4.7128">
        <ele>303.91</ele>
        <time>2012-05-13T08:31:10Z</time>
      </trkpt>
      <trkpt lat="46.35421" lon="4.71197">
        <ele>300.07</ele>
        <time>2012-05-13T08:31:23Z</time>
      </trkpt>
      <trkpt lat="46.35424" lon="4.71183">
        <ele>300.55</ele>
        <time>2012-05-13T08:31:25Z</time>
      </trkpt>
      <trkpt lat="46.3544" lon="4.71141">
        <ele>298.63</ele>
        <time>2012-05-13T08:31:32Z</time>
      </trkpt>
      <trkpt lat="46.35446" lon="4.71131">
        <ele>298.15</ele>
        <time>2012-05-13T08:31:34Z</time>
      </trkpt>
      <trkpt lat="46.35456" lon="4.71119">
        <ele>296.22</ele>
        <time>2012-05-13T08:31:37Z</time>
      </trkpt>
      <trkpt lat="46.35469" lon="4.711">
        <ele>293.82</ele>
        <time>2012-05-13T08:31:41Z</time>
      </trkpt>
      <trkpt lat="46.35475" lon="4.71088">
        <ele>292.86</ele>
        <time>2012-05-13T08:31:43Z</time>
      </trkpt>
      <trkpt lat="46.35485" lon="4.71064">
        <ele>289.49</ele>
        <time>2012-05-13T08:31:48Z</time>
      </trkpt>
      <trkpt lat="46.35485" lon="4.71061">
        <ele>289.49</ele>
        <time>2012-05-13T08:31:49Z</time>
      </trkpt>
      <trkpt lat="46.35479" lon="4.71057">
        <ele>289.01</ele>
        <time>2012-05-13T08:31:54Z</time>
      </trkpt>
      <trkpt lat="46.35458" lon="4.71072">
        <ele>286.61</ele>
        <time>2012-05-13T08:32:00Z</time>
      </trkpt>
      <trkpt lat="46.35434" lon="4.71084">
        <ele>284.21</ele>
        <time>2012-05-13T08:32:05Z</time>
      </trkpt>
      <trkpt lat="46.35421" lon="4.71086">
        <ele>280.36</ele>
        <time>2012-05-13T08:32:07Z</time>
      </trkpt>
      <trkpt lat="46.35414" lon="4.71086">
        <ele>282.77</ele>
        <time>2012-05-13T08:32:08Z</time>
      </trkpt>
      <trkpt lat="46.35406" lon="4.71087">
        <ele>280.84</ele>
        <time>2012-05-13T08:32:09Z</time>
      </trkpt>
      <trkpt lat="46.35379" lon="4.71094">
        <ele>276.52</ele>
        <time>2012-05-13T08:32:12Z</time>
      </trkpt>
      <trkpt lat="46.35348" lon="4.71106">
        <ele>273.15</ele>
        <time>2012-05-13T08:32:15Z</time>
      </trkpt>
      <trkpt lat="46.35315" lon="4.71118">
        <ele>269.79</ele>
        <time>2012-05-13T08:32:18Z</time>
      </trkpt>
      <trkpt lat="46.35264" lon="4.71152">
        <ele>264.5</ele>
        <time>2012-05-13T08:32:23Z</time>
      </trkpt>
      <trkpt lat="46.35234" lon="4.71176">
        <ele>261.14</ele>
        <time>2012-05-13T08:32:27Z</time>
      </trkpt>
      <trkpt lat="46.35223" lon="4.71186">
        <ele>258.73</ele>
        <time>2012-05-13T08:32:29Z</time>
      </trkpt>
      <trkpt lat="46.35214" lon="4.71191">
        <ele>257.77</ele>
        <time>2012-05-13T08:32:31Z</time>
      </trkpt>
      <trkpt lat="46.35201" lon="4.71182">
        <ele>255.85</ele>
        <time>2012-05-13T08:32:36Z</time>
      </trkpt>
      <trkpt lat="46.35194" lon="4.71168">
        <ele>253.93</ele>
        <time>2012-05-13T08:32:38Z</time>
      </trkpt>
      <trkpt lat="46.35176" lon="4.71129">
        <ele>249.12</ele>
        <time>2012-05-13T08:32:42Z</time>
      </trkpt>
      <trkpt lat="46.35171" lon="4.71119">
        <ele>248.16</ele>
        <time>2012-05-13T08:32:43Z</time>
      </trkpt>
      <trkpt lat="46.35166" lon="4.71101">
        <ele>245.27</ele>
        <time>2012-05-13T08:32:45Z</time>
      </trkpt>
      <trkpt lat="46.35159" lon="4.71084">
        <ele>244.31</ele>
        <time>2012-05-13T08:32:47Z</time>
      </trkpt>
      <trkpt lat="46.35145" lon="4.71059">
        <ele>243.83</ele>
        <time>2012-05-13T08:32:50Z</time>
      </trkpt>
      <trkpt lat="46.35117" lon="4.70999">
        <ele>243.83</ele>
        <time>2012-05-13T08:33:02Z</time>
      </trkpt>
      <trkpt lat="46.35115" lon="4.70989">
        <ele>243.83</ele>
        <time>2012-05-13T08:33:04Z</time>
      </trkpt>
      <trkpt lat="46.35118" lon="4.70964">
        <ele>242.39</ele>
        <time>2012-05-13T08:33:08Z</time>
      </trkpt>
      <trkpt lat="46.35123" lon="4.70852">
        <ele>240.95</ele>
        <time>2012-05-13T08:33:28Z</time>
      </trkpt>
      <trkpt lat="46.35111" lon="4.70794">
        <ele>240.95</ele>
        <time>2012-05-13T08:33:43Z</time>
      </trkpt>
      <trkpt lat="46.35086" lon="4.70729">
        <ele>240.95</ele>
        <time>2012-05-13T08:33:59Z</time>
      </trkpt>
      <trkpt lat="46.35051" lon="4.70635">
        <ele>241.91</ele>
        <time>2012-05-13T08:34:18Z</time>
      </trkpt>
      <trkpt lat="46.35045" lon="4.70509">
        <ele>244.31</ele>
        <time>2012-05-13T08:34:40Z</time>
      </trkpt>
      <trkpt lat="46.35036" lon="4.7051">
        <ele>245.27</ele>
        <time>2012-05-13T08:34:44Z</time>
      </trkpt>
      <trkpt lat="46.35007" lon="4.70568">
        <ele>245.75</ele>
        <time>2012-05-13T08:34:58Z</time>
      </trkpt>
      <trkpt lat="46.34972" lon="4.70548">
        <ele>249.6</ele>
        <time>2012-05-13T08:35:12Z</time>
      </trkpt>
      <trkpt lat="46.34967" lon="4.70535">
        <ele>250.56</ele>
        <time>2012-05-13T08:35:17Z</time>
      </trkpt>
      <trkpt lat="46.34954" lon="4.70469">
        <ele>253.44</ele>
        <time>2012-05-13T08:35:36Z</time>
      </trkpt>
      <trkpt lat="46.34932" lon="4.70393">
        <ele>257.29</ele>
        <time>2012-05-13T08:35:58Z</time>
      </trkpt>
      <trkpt lat="46.34932" lon="4.70324">
        <ele>260.17</ele>
        <time>2012-05-13T08:36:16Z</time>
      </trkpt>
      <trkpt lat="46.34932" lon="4.70284">
        <ele>264.5</ele>
        <time>2012-05-13T08:36:27Z</time>
      </trkpt>
      <trkpt lat="46.34934" lon="4.70243">
        <ele>264.5</ele>
        <time>2012-05-13T08:36:39Z</time>
      </trkpt>
      <trkpt lat="46.34932" lon="4.70225">
        <ele>265.94</ele>
        <time>2012-05-13T08:36:45Z</time>
      </trkpt>
      <trkpt lat="46.34926" lon="4.70206">
        <ele>268.35</ele>
        <time>2012-05-13T08:36:52Z</time>
      </trkpt>
      <trkpt lat="46.34912" lon="4.70198">
        <ele>269.31</ele>
        <time>2012-05-13T08:37:03Z</time>
      </trkpt>
      <trkpt lat="46.34877" lon="4.70236">
        <ele>270.27</ele>
        <time>2012-05-13T08:37:23Z</time>
      </trkpt>
      <trkpt lat="46.34851" lon="4.70243">
        <ele>273.63</ele>
        <time>2012-05-13T08:37:38Z</time>
      </trkpt>
      <trkpt lat="46.34827" lon="4.70217">
        <ele>276.52</ele>
        <time>2012-05-13T08:37:53Z</time>
      </trkpt>
      <trkpt lat="46.34815" lon="4.70201">
        <ele>278.92</ele>
        <time>2012-05-13T08:38:01Z</time>
      </trkpt>
      <trkpt lat="46.34788" lon="4.70163">
        <ele>281.32</ele>
        <time>2012-05-13T08:38:21Z</time>
      </trkpt>
      <trkpt lat="46.34758" lon="4.70136">
        <ele>284.69</ele>
        <time>2012-05-13T08:38:39Z</time>
      </trkpt>
      <trkpt lat="46.3473" lon="4.70115">
        <ele>288.05</ele>
        <time>2012-05-13T08:38:57Z</time>
      </trkpt>
      <trkpt lat="46.34707" lon="4.70096">
        <ele>291.42</ele>
        <time>2012-05-13T08:39:13Z</time>
      </trkpt>
      <trkpt lat="46.34679" lon="4.70071">
        <ele>294.3</ele>
        <time>2012-05-13T08:39:33Z</time>
      </trkpt>
      <trkpt lat="46.34652" lon="4.70043">
        <ele>297.67</ele>
        <time>2012-05-13T08:39:53Z</time>
      </trkpt>
      <trkpt lat="46.34643" lon="4.70025">
        <ele>299.11</ele>
        <time>2012-05-13T08:40:03Z</time>
      </trkpt>
      <trkpt lat="46.34637" lon="4.70016">
        <ele>301.51</ele>
        <time>2012-05-13T08:40:09Z</time>
      </trkpt>
      <trkpt lat="46.34626" lon="4.70011">
        <ele>303.43</ele>
        <time>2012-05-13T08:40:17Z</time>
      </trkpt>
      <trkpt lat="46.34607" lon="4.70013">
        <ele>305.84</ele>
        <time>2012-05-13T08:40:30Z</time>
      </trkpt>
      <trkpt lat="46.34591" lon="4.70009">
        <ele>309.2</ele>
        <time>2012-05-13T08:40:43Z</time>
      </trkpt>
      <trkpt lat="46.34577" lon="4.7">
        <ele>312.09</ele>
        <time>2012-05-13T08:40:56Z</time>
      </trkpt>
      <trkpt lat="46.34569" lon="4.69995">
        <ele>314.01</ele>
        <time>2012-05-13T08:41:04Z</time>
      </trkpt>
      <trkpt lat="46.34561" lon="4.69987">
        <ele>315.93</ele>
        <time>2012-05-13T08:41:12Z</time>
      </trkpt>
      <trkpt lat="46.34549" lon="4.69976">
        <ele>320.26</ele>
        <time>2012-05-13T08:41:25Z</time>
      </trkpt>
      <trkpt lat="46.34538" lon="4.69964">
        <ele>323.62</ele>
        <time>2012-05-13T08:41:38Z</time>
      </trkpt>
      <trkpt lat="46.34533" lon="4.6996">
        <ele>325.06</ele>
        <time>2012-05-13T08:41:43Z</time>
      </trkpt>
      <trkpt lat="46.34525" lon="4.69952">
        <ele>326.5</ele>
        <time>2012-05-13T08:41:53Z</time>
      </trkpt>
      <trkpt lat="46.34517" lon="4.6995">
        <ele>328.91</ele>
        <time>2012-05-13T08:42:01Z</time>
      </trkpt>
      <trkpt lat="46.34508" lon="4.69948">
        <ele>330.83</ele>
        <time>2012-05-13T08:42:09Z</time>
      </trkpt>
      <trkpt lat="46.34505" lon="4.69948">
        <ele>331.31</ele>
        <time>2012-05-13T08:42:11Z</time>
      </trkpt>
      <trkpt lat="46.34499" lon="4.69948">
        <ele>333.23</ele>
        <time>2012-05-13T08:42:17Z</time>
      </trkpt>
      <trkpt lat="46.34486" lon="4.69946">
        <ele>334.2</ele>
        <time>2012-05-13T08:42:28Z</time>
      </trkpt>
      <trkpt lat="46.34477" lon="4.69934">
        <ele>334.68</ele>
        <time>2012-05-13T08:42:39Z</time>
      </trkpt>
      <trkpt lat="46.34479" lon="4.69845">
        <ele>335.64</ele>
        <time>2012-05-13T08:43:05Z</time>
      </trkpt>
      <trkpt lat="46.34465" lon="4.69788">
        <ele>337.56</ele>
        <time>2012-05-13T08:43:24Z</time>
      </trkpt>
      <trkpt lat="46.34459" lon="4.69746">
        <ele>340.92</ele>
        <time>2012-05-13T08:43:39Z</time>
      </trkpt>
      <trkpt lat="46.3445" lon="4.69711">
        <ele>343.81</ele>
        <time>2012-05-13T08:43:53Z</time>
      </trkpt>
      <trkpt lat="46.34443" lon="4.6968">
        <ele>346.69</ele>
        <time>2012-05-13T08:44:08Z</time>
      </trkpt>
      <trkpt lat="46.34438" lon="4.69654">
        <ele>349.58</ele>
        <time>2012-05-13T08:44:20Z</time>
      </trkpt>
      <trkpt lat="46.34431" lon="4.69633">
        <ele>352.46</ele>
        <time>2012-05-13T08:44:31Z</time>
      </trkpt>
      <trkpt lat="46.3441" lon="4.69623">
        <ele>355.34</ele>
        <time>2012-05-13T08:44:46Z</time>
      </trkpt>
      <trkpt lat="46.34414" lon="4.69616">
        <ele>354.86</ele>
        <time>2012-05-13T08:44:52Z</time>
      </trkpt>
      <trkpt lat="46.34457" lon="4.69603">
        <ele>355.83</ele>
        <time>2012-05-13T08:45:14Z</time>
      </trkpt>
      <trkpt lat="46.34508" lon="4.69578">
        <ele>352.94</ele>
        <time>2012-05-13T08:45:34Z</time>
      </trkpt>
      <trkpt lat="46.34528" lon="4.69569">
        <ele>351.5</ele>
        <time>2012-05-13T08:45:40Z</time>
      </trkpt>
      <trkpt lat="46.34552" lon="4.69575">
        <ele>350.06</ele>
        <time>2012-05-13T08:45:46Z</time>
      </trkpt>
      <trkpt lat="46.34563" lon="4.69581">
        <ele>348.62</ele>
        <time>2012-05-13T08:45:49Z</time>
      </trkpt>
      <trkpt lat="46.34585" lon="4.69604">
        <ele>345.73</ele>
        <time>2012-05-13T08:45:58Z</time>
      </trkpt>
      <trkpt lat="46.34588" lon="4.69606">
        <ele>344.77</ele>
        <time>2012-05-13T08:46:00Z</time>
      </trkpt>
      <trkpt lat="46.34583" lon="4.69584">
        <ele>346.21</ele>
        <time>2012-05-13T08:46:11Z</time>
      </trkpt>
      <trkpt lat="46.34558" lon="4.69502">
        <ele>349.58</ele>
        <time>2012-05-13T08:46:36Z</time>
      </trkpt>
      <trkpt lat="46.3454" lon="4.69419">
        <ele>352.46</ele>
        <time>2012-05-13T08:47:00Z</time>
      </trkpt>
      <trkpt lat="46.34526" lon="4.69354">
        <ele>354.86</ele>
        <time>2012-05-13T08:47:20Z</time>
      </trkpt>
      <trkpt lat="46.34513" lon="4.69286">
        <ele>358.23</ele>
        <time>2012-05-13T08:47:42Z</time>
      </trkpt>
      <trkpt lat="46.345" lon="4.69234">
        <ele>361.11</ele>
        <time>2012-05-13T08:47:58Z</time>
      </trkpt>
      <trkpt lat="46.34485" lon="4.69163">
        <ele>364</ele>
        <time>2012-05-13T08:48:20Z</time>
      </trkpt>
      <trkpt lat="46.34485" lon="4.69107">
        <ele>365.44</ele>
        <time>2012-05-13T08:48:37Z</time>
      </trkpt>
      <trkpt lat="46.34515" lon="4.69064">
        <ele>367.36</ele>
        <time>2012-05-13T08:48:56Z</time>
      </trkpt>
      <trkpt lat="46.34551" lon="4.69055">
        <ele>368.8</ele>
        <time>2012-05-13T08:49:12Z</time>
      </trkpt>
      <trkpt lat="46.34597" lon="4.69039">
        <ele>371.69</ele>
        <time>2012-05-13T08:49:29Z</time>
      </trkpt>
      <trkpt lat="46.34649" lon="4.69011">
        <ele>374.09</ele>
        <time>2012-05-13T08:49:50Z</time>
      </trkpt>
      <trkpt lat="46.34699" lon="4.68983">
        <ele>376.49</ele>
        <time>2012-05-13T08:50:11Z</time>
      </trkpt>
      <trkpt lat="46.34741" lon="4.68963">
        <ele>377.94</ele>
        <time>2012-05-13T08:50:28Z</time>
      </trkpt>
      <trkpt lat="46.34787" lon="4.68937">
        <ele>379.38</ele>
        <time>2012-05-13T08:50:46Z</time>
      </trkpt>
      <trkpt lat="46.34807" lon="4.68926">
        <ele>380.82</ele>
        <time>2012-05-13T08:50:54Z</time>
      </trkpt>
      <trkpt lat="46.34854" lon="4.68902">
        <ele>383.22</ele>
        <time>2012-05-13T08:51:13Z</time>
      </trkpt>
      <trkpt lat="46.34889" lon="4.68886">
        <ele>385.15</ele>
        <time>2012-05-13T08:51:28Z</time>
      </trkpt>
      <trkpt lat="46.34929" lon="4.68881">
        <ele>386.59</ele>
        <time>2012-05-13T08:51:43Z</time>
      </trkpt>
      <trkpt lat="46.34959" lon="4.68876">
        <ele>389.47</ele>
        <time>2012-05-13T08:51:54Z</time>
      </trkpt>
      <trkpt lat="46.35013" lon="4.68864">
        <ele>390.43</ele>
        <time>2012-05-13T08:52:15Z</time>
      </trkpt>
      <trkpt lat="46.35066" lon="4.6886">
        <ele>389.47</ele>
        <time>2012-05-13T08:52:30Z</time>
      </trkpt>
      <trkpt lat="46.35104" lon="4.68856">
        <ele>387.07</ele>
        <time>2012-05-13T08:52:38Z</time>
      </trkpt>
      <trkpt lat="46.35159" lon="4.68837">
        <ele>386.11</ele>
        <time>2012-05-13T08:52:49Z</time>
      </trkpt>
      <trkpt lat="46.35167" lon="4.68831">
        <ele>386.59</ele>
        <time>2012-05-13T08:52:51Z</time>
      </trkpt>
      <trkpt lat="46.35201" lon="4.68811">
        <ele>385.15</ele>
        <time>2012-05-13T08:52:59Z</time>
      </trkpt>
      <trkpt lat="46.35213" lon="4.68803">
        <ele>385.63</ele>
        <time>2012-05-13T08:53:02Z</time>
      </trkpt>
      <trkpt lat="46.35275" lon="4.68731">
        <ele>386.11</ele>
        <time>2012-05-13T08:53:22Z</time>
      </trkpt>
      <trkpt lat="46.3529" lon="4.68666">
        <ele>386.59</ele>
        <time>2012-05-13T08:53:39Z</time>
      </trkpt>
      <trkpt lat="46.35239" lon="4.68596">
        <ele>387.07</ele>
        <time>2012-05-13T08:53:58Z</time>
      </trkpt>
      <trkpt lat="46.35192" lon="4.68543">
        <ele>389.47</ele>
        <time>2012-05-13T08:54:15Z</time>
      </trkpt>
      <trkpt lat="46.3516" lon="4.68493">
        <ele>391.39</ele>
        <time>2012-05-13T08:54:31Z</time>
      </trkpt>
      <trkpt lat="46.35136" lon="4.68425">
        <ele>389.95</ele>
        <time>2012-05-13T08:54:46Z</time>
      </trkpt>
      <trkpt lat="46.35098" lon="4.6836">
        <ele>390.43</ele>
        <time>2012-05-13T08:55:02Z</time>
      </trkpt>
      <trkpt lat="46.35051" lon="4.68287">
        <ele>392.36</ele>
        <time>2012-05-13T08:55:22Z</time>
      </trkpt>
      <trkpt lat="46.35021" lon="4.68237">
        <ele>395.72</ele>
        <time>2012-05-13T08:55:38Z</time>
      </trkpt>
      <trkpt lat="46.35015" lon="4.68228">
        <ele>396.2</ele>
        <time>2012-05-13T08:55:42Z</time>
      </trkpt>
      <trkpt lat="46.34995" lon="4.68189">
        <ele>399.08</ele>
        <time>2012-05-13T08:55:59Z</time>
      </trkpt>
      <trkpt lat="46.34986" lon="4.68172">
        <ele>400.05</ele>
        <time>2012-05-13T08:56:07Z</time>
      </trkpt>
      <trkpt lat="46.34983" lon="4.68165">
        <ele>400.05</ele>
        <time>2012-05-13T08:56:10Z</time>
      </trkpt>
      <trkpt lat="46.34965" lon="4.68134">
        <ele>403.89</ele>
        <time>2012-05-13T08:56:27Z</time>
      </trkpt>
      <trkpt lat="46.3495" lon="4.68108">
        <ele>407.26</ele>
        <time>2012-05-13T08:56:43Z</time>
      </trkpt>
      <trkpt lat="46.34936" lon="4.68087">
        <ele>410.14</ele>
        <time>2012-05-13T08:56:59Z</time>
      </trkpt>
      <trkpt lat="46.34925" lon="4.68068">
        <ele>413.5</ele>
        <time>2012-05-13T08:57:15Z</time>
      </trkpt>
      <trkpt lat="46.34924" lon="4.68068">
        <ele>413.5</ele>
        <time>2012-05-13T08:57:16Z</time>
      </trkpt>
      <trkpt lat="46.34908" lon="4.68042">
        <ele>416.87</ele>
        <time>2012-05-13T08:57:34Z</time>
      </trkpt>
      <trkpt lat="46.349" lon="4.68022">
        <ele>419.75</ele>
        <time>2012-05-13T08:57:47Z</time>
      </trkpt>
      <trkpt lat="46.34894" lon="4.67998">
        <ele>422.64</ele>
        <time>2012-05-13T08:58:01Z</time>
      </trkpt>
      <trkpt lat="46.34885" lon="4.67985">
        <ele>425.52</ele>
        <time>2012-05-13T08:58:13Z</time>
      </trkpt>
      <trkpt lat="46.34879" lon="4.6798">
        <ele>427.44</ele>
        <time>2012-05-13T08:58:19Z</time>
      </trkpt>
      <trkpt lat="46.34875" lon="4.67975">
        <ele>428.4</ele>
        <time>2012-05-13T08:58:24Z</time>
      </trkpt>
      <trkpt lat="46.34873" lon="4.67973">
        <ele>428.89</ele>
        <time>2012-05-13T08:58:27Z</time>
      </trkpt>
      <trkpt lat="46.34866" lon="4.67965">
        <ele>431.29</ele>
        <time>2012-05-13T08:58:36Z</time>
      </trkpt>
      <trkpt lat="46.34856" lon="4.67953">
        <ele>433.21</ele>
        <time>2012-05-13T08:58:48Z</time>
      </trkpt>
      <trkpt lat="46.34844" lon="4.67941">
        <ele>435.61</ele>
        <time>2012-05-13T08:59:02Z</time>
      </trkpt>
      <trkpt lat="46.3484" lon="4.67931">
        <ele>436.1</ele>
        <time>2012-05-13T08:59:08Z</time>
      </trkpt>
      <trkpt lat="46.34825" lon="4.67888">
        <ele>436.1</ele>
        <time>2012-05-13T08:59:26Z</time>
      </trkpt>
      <trkpt lat="46.34799" lon="4.67837">
        <ele>437.06</ele>
        <time>2012-05-13T08:59:46Z</time>
      </trkpt>
      <trkpt lat="46.34778" lon="4.67782">
        <ele>438.02</ele>
        <time>2012-05-13T09:00:04Z</time>
      </trkpt>
      <trkpt lat="46.34771" lon="4.67717">
        <ele>440.42</ele>
        <time>2012-05-13T09:00:25Z</time>
      </trkpt>
      <trkpt lat="46.3479" lon="4.67678">
        <ele>443.31</ele>
        <time>2012-05-13T09:00:42Z</time>
      </trkpt>
      <trkpt lat="46.34814" lon="4.67659">
        <ele>445.71</ele>
        <time>2012-05-13T09:00:58Z</time>
      </trkpt>
      <trkpt lat="46.34831" lon="4.67661">
        <ele>448.11</ele>
        <time>2012-05-13T09:01:13Z</time>
      </trkpt>
      <trkpt lat="46.34834" lon="4.67661">
        <ele>448.11</ele>
        <time>2012-05-13T09:01:15Z</time>
      </trkpt>
      <trkpt lat="46.34855" lon="4.67659">
        <ele>451.48</ele>
        <time>2012-05-13T09:01:31Z</time>
      </trkpt>
      <trkpt lat="46.34879" lon="4.6765">
        <ele>454.36</ele>
        <time>2012-05-13T09:01:47Z</time>
      </trkpt>
      <trkpt lat="46.34889" lon="4.67624">
        <ele>457.24</ele>
        <time>2012-05-13T09:02:00Z</time>
      </trkpt>
      <trkpt lat="46.3489" lon="4.6761">
        <ele>457.72</ele>
        <time>2012-05-13T09:02:09Z</time>
      </trkpt>
      <trkpt lat="46.3489" lon="4.67599">
        <ele>457.72</ele>
        <time>2012-05-13T09:02:14Z</time>
      </trkpt>
      <trkpt lat="46.34894" lon="4.67569">
        <ele>461.09</ele>
        <time>2012-05-13T09:02:29Z</time>
      </trkpt>
      <trkpt lat="46.34895" lon="4.67558">
        <ele>462.53</ele>
        <time>2012-05-13T09:02:36Z</time>
      </trkpt>
      <trkpt lat="46.34896" lon="4.67551">
        <ele>463.01</ele>
        <time>2012-05-13T09:02:39Z</time>
      </trkpt>
      <trkpt lat="46.34896" lon="4.67533">
        <ele>465.42</ele>
        <time>2012-05-13T09:02:51Z</time>
      </trkpt>
      <trkpt lat="46.34904" lon="4.67517">
        <ele>466.86</ele>
        <time>2012-05-13T09:02:59Z</time>
      </trkpt>
      <trkpt lat="46.34909" lon="4.67498">
        <ele>468.78</ele>
        <time>2012-05-13T09:03:12Z</time>
      </trkpt>
      <trkpt lat="46.34913" lon="4.67487">
        <ele>468.78</ele>
        <time>2012-05-13T09:03:17Z</time>
      </trkpt>
      <trkpt lat="46.34922" lon="4.6746">
        <ele>470.22</ele>
        <time>2012-05-13T09:03:30Z</time>
      </trkpt>
      <trkpt lat="46.34935" lon="4.67424">
        <ele>471.66</ele>
        <time>2012-05-13T09:03:47Z</time>
      </trkpt>
      <trkpt lat="46.34936" lon="4.67423">
        <ele>471.18</ele>
        <time>2012-05-13T09:03:48Z</time>
      </trkpt>
      <trkpt lat="46.34937" lon="4.6741">
        <ele>471.66</ele>
        <time>2012-05-13T09:03:53Z</time>
      </trkpt>
      <trkpt lat="46.34942" lon="4.67378">
        <ele>474.55</ele>
        <time>2012-05-13T09:04:06Z</time>
      </trkpt>
      <trkpt lat="46.34953" lon="4.67321">
        <ele>475.51</ele>
        <time>2012-05-13T09:04:23Z</time>
      </trkpt>
      <trkpt lat="46.34953" lon="4.67244">
        <ele>474.55</ele>
        <time>2012-05-13T09:04:38Z</time>
      </trkpt>
      <trkpt lat="46.34951" lon="4.6722">
        <ele>474.07</ele>
        <time>2012-05-13T09:04:42Z</time>
      </trkpt>
      <trkpt lat="46.34951" lon="4.6715">
        <ele>474.55</ele>
        <time>2012-05-13T09:04:59Z</time>
      </trkpt>
      <trkpt lat="46.34958" lon="4.67137">
        <ele>475.51</ele>
        <time>2012-05-13T09:05:06Z</time>
      </trkpt>
      <trkpt lat="46.34964" lon="4.67117">
        <ele>476.95</ele>
        <time>2012-05-13T09:05:15Z</time>
      </trkpt>
      <trkpt lat="46.34973" lon="4.67096">
        <ele>480.8</ele>
        <time>2012-05-13T09:05:29Z</time>
      </trkpt>
      <trkpt lat="46.34975" lon="4.67083">
        <ele>482.24</ele>
        <time>2012-05-13T09:05:38Z</time>
      </trkpt>
      <trkpt lat="46.34972" lon="4.67057">
        <ele>484.64</ele>
        <time>2012-05-13T09:05:55Z</time>
      </trkpt>
      <trkpt lat="46.34969" lon="4.6704">
        <ele>487.53</ele>
        <time>2012-05-13T09:06:08Z</time>
      </trkpt>
      <trkpt lat="46.34968" lon="4.67031">
        <ele>489.45</ele>
        <time>2012-05-13T09:06:17Z</time>
      </trkpt>
      <trkpt lat="46.34964" lon="4.67014">
        <ele>492.33</ele>
        <time>2012-05-13T09:06:34Z</time>
      </trkpt>
      <trkpt lat="46.34961" lon="4.67007">
        <ele>493.29</ele>
        <time>2012-05-13T09:06:59Z</time>
      </trkpt>
      <trkpt lat="46.34957" lon="4.66995">
        <ele>496.18</ele>
        <time>2012-05-13T09:07:16Z</time>
      </trkpt>
      <trkpt lat="46.34953" lon="4.66983">
        <ele>498.1</ele>
        <time>2012-05-13T09:07:31Z</time>
      </trkpt>
      <trkpt lat="46.34947" lon="4.66967">
        <ele>500.98</ele>
        <time>2012-05-13T09:07:46Z</time>
      </trkpt>
      <trkpt lat="46.3494" lon="4.66949">
        <ele>503.87</ele>
        <time>2012-05-13T09:08:04Z</time>
      </trkpt>
      <trkpt lat="46.34935" lon="4.66938">
        <ele>505.79</ele>
        <time>2012-05-13T09:08:20Z</time>
      </trkpt>
      <trkpt lat="46.34929" lon="4.66916">
        <ele>508.19</ele>
        <time>2012-05-13T09:08:36Z</time>
      </trkpt>
      <trkpt lat="46.34929" lon="4.66914">
        <ele>508.67</ele>
        <time>2012-05-13T09:08:37Z</time>
      </trkpt>
      <trkpt lat="46.3493" lon="4.66893">
        <ele>511.08</ele>
        <time>2012-05-13T09:08:53Z</time>
      </trkpt>
      <trkpt lat="46.34932" lon="4.66884">
        <ele>513</ele>
        <time>2012-05-13T09:09:09Z</time>
      </trkpt>
      <trkpt lat="46.34938" lon="4.6688">
        <ele>513.96</ele>
        <time>2012-05-13T09:09:18Z</time>
      </trkpt>
      <trkpt lat="46.34953" lon="4.66877">
        <ele>517.33</ele>
        <time>2012-05-13T09:09:37Z</time>
      </trkpt>
      <trkpt lat="46.34957" lon="4.66877">
        <ele>517.33</ele>
        <time>2012-05-13T09:09:43Z</time>
      </trkpt>
      <trkpt lat="46.3496" lon="4.66876">
        <ele>517.81</ele>
        <time>2012-05-13T09:09:49Z</time>
      </trkpt>
      <trkpt lat="46.34973" lon="4.66874">
        <ele>518.77</ele>
        <time>2012-05-13T09:09:59Z</time>
      </trkpt>
      <trkpt lat="46.35006" lon="4.66869">
        <ele>520.69</ele>
        <time>2012-05-13T09:10:18Z</time>
      </trkpt>
      <trkpt lat="46.35029" lon="4.66865">
        <ele>523.09</ele>
        <time>2012-05-13T09:10:34Z</time>
      </trkpt>
      <trkpt lat="46.35049" lon="4.66857">
        <ele>524.06</ele>
        <time>2012-05-13T09:10:48Z</time>
      </trkpt>
      <trkpt lat="46.35058" lon="4.6685">
        <ele>524.06</ele>
        <time>2012-05-13T09:10:53Z</time>
      </trkpt>
      <trkpt lat="46.35085" lon="4.66829">
        <ele>526.46</ele>
        <time>2012-05-13T09:11:09Z</time>
      </trkpt>
      <trkpt lat="46.35098" lon="4.66814">
        <ele>529.34</ele>
        <time>2012-05-13T09:11:19Z</time>
      </trkpt>
      <trkpt lat="46.35104" lon="4.66807">
        <ele>530.79</ele>
        <time>2012-05-13T09:11:23Z</time>
      </trkpt>
      <trkpt lat="46.35141" lon="4.6677">
        <ele>530.79</ele>
        <time>2012-05-13T09:11:39Z</time>
      </trkpt>
      <trkpt lat="46.35149" lon="4.66764">
        <ele>530.3</ele>
        <time>2012-05-13T09:11:41Z</time>
      </trkpt>
      <trkpt lat="46.35172" lon="4.66736">
        <ele>528.38</ele>
        <time>2012-05-13T09:11:47Z</time>
      </trkpt>
      <trkpt lat="46.35185" lon="4.66716">
        <ele>527.42</ele>
        <time>2012-05-13T09:11:51Z</time>
      </trkpt>
      <trkpt lat="46.35196" lon="4.66701">
        <ele>526.46</ele>
        <time>2012-05-13T09:11:54Z</time>
      </trkpt>
      <trkpt lat="46.35205" lon="4.66689">
        <ele>525.02</ele>
        <time>2012-05-13T09:11:56Z</time>
      </trkpt>
      <trkpt lat="46.35217" lon="4.66675">
        <ele>523.58</ele>
        <time>2012-05-13T09:11:59Z</time>
      </trkpt>
      <trkpt lat="46.3522" lon="4.66669">
        <ele>523.58</ele>
        <time>2012-05-13T09:12:01Z</time>
      </trkpt>
      <trkpt lat="46.35226" lon="4.66658">
        <ele>523.58</ele>
        <time>2012-05-13T09:12:17Z</time>
      </trkpt>
      <trkpt lat="46.35239" lon="4.66632">
        <ele>523.58</ele>
        <time>2012-05-13T09:12:31Z</time>
      </trkpt>
      <trkpt lat="46.35244" lon="4.66622">
        <ele>524.06</ele>
        <time>2012-05-13T09:12:47Z</time>
      </trkpt>
      <trkpt lat="46.35244" lon="4.6662">
        <ele>525.02</ele>
        <time>2012-05-13T09:12:50Z</time>
      </trkpt>
      <trkpt lat="46.35248" lon="4.6661">
        <ele>525.5</ele>
        <time>2012-05-13T09:12:55Z</time>
      </trkpt>
      <trkpt lat="46.35253" lon="4.66602">
        <ele>526.46</ele>
        <time>2012-05-13T09:12:59Z</time>
      </trkpt>
      <trkpt lat="46.35266" lon="4.66581">
        <ele>525.5</ele>
        <time>2012-05-13T09:13:09Z</time>
      </trkpt>
      <trkpt lat="46.35289" lon="4.66558">
        <ele>525.5</ele>
        <time>2012-05-13T09:13:16Z</time>
      </trkpt>
      <trkpt lat="46.353" lon="4.66529">
        <ele>525.5</ele>
        <time>2012-05-13T09:13:22Z</time>
      </trkpt>
      <trkpt lat="46.35313" lon="4.66477">
        <ele>525.02</ele>
        <time>2012-05-13T09:13:32Z</time>
      </trkpt>
      <trkpt lat="46.35315" lon="4.66452">
        <ele>525.5</ele>
        <time>2012-05-13T09:13:37Z</time>
      </trkpt>
      <trkpt lat="46.35315" lon="4.66437">
        <ele>525.98</ele>
        <time>2012-05-13T09:13:40Z</time>
      </trkpt>
      <trkpt lat="46.35317" lon="4.66421">
        <ele>525.02</ele>
        <time>2012-05-13T09:13:44Z</time>
      </trkpt>
      <trkpt lat="46.35318" lon="4.6638">
        <ele>523.09</ele>
        <time>2012-05-13T09:13:51Z</time>
      </trkpt>
      <trkpt lat="46.35319" lon="4.66374">
        <ele>523.09</ele>
        <time>2012-05-13T09:13:52Z</time>
      </trkpt>
      <trkpt lat="46.35332" lon="4.6633">
        <ele>522.13</ele>
        <time>2012-05-13T09:14:00Z</time>
      </trkpt>
      <trkpt lat="46.35331" lon="4.66295">
        <ele>524.54</ele>
        <time>2012-05-13T09:14:08Z</time>
      </trkpt>
      <trkpt lat="46.35329" lon="4.66287">
        <ele>525.98</ele>
        <time>2012-05-13T09:14:10Z</time>
      </trkpt>
      <trkpt lat="46.35323" lon="4.66268">
        <ele>527.9</ele>
        <time>2012-05-13T09:14:19Z</time>
      </trkpt>
      <trkpt lat="46.3532" lon="4.66258">
        <ele>529.34</ele>
        <time>2012-05-13T09:14:23Z</time>
      </trkpt>
      <trkpt lat="46.35316" lon="4.66248">
        <ele>531.27</ele>
        <time>2012-05-13T09:14:30Z</time>
      </trkpt>
      <trkpt lat="46.35295" lon="4.66223">
        <ele>534.63</ele>
        <time>2012-05-13T09:14:49Z</time>
      </trkpt>
      <trkpt lat="46.35283" lon="4.66206">
        <ele>537.99</ele>
        <time>2012-05-13T09:15:03Z</time>
      </trkpt>
      <trkpt lat="46.35283" lon="4.66205">
        <ele>537.99</ele>
        <time>2012-05-13T09:15:04Z</time>
      </trkpt>
      <trkpt lat="46.35282" lon="4.66199">
        <ele>537.99</ele>
        <time>2012-05-13T09:15:08Z</time>
      </trkpt>
      <trkpt lat="46.35285" lon="4.66179">
        <ele>537.99</ele>
        <time>2012-05-13T09:15:16Z</time>
      </trkpt>
      <trkpt lat="46.35283" lon="4.66172">
        <ele>538.48</ele>
        <time>2012-05-13T09:15:19Z</time>
      </trkpt>
      <trkpt lat="46.35276" lon="4.66161">
        <ele>539.92</ele>
        <time>2012-05-13T09:15:27Z</time>
      </trkpt>
      <trkpt lat="46.35264" lon="4.66141">
        <ele>541.84</ele>
        <time>2012-05-13T09:15:39Z</time>
      </trkpt>
      <trkpt lat="46.35261" lon="4.66134">
        <ele>542.8</ele>
        <time>2012-05-13T09:15:44Z</time>
      </trkpt>
      <trkpt lat="46.35261" lon="4.66126">
        <ele>542.32</ele>
        <time>2012-05-13T09:15:49Z</time>
      </trkpt>
      <trkpt lat="46.35271" lon="4.66104">
        <ele>541.36</ele>
        <time>2012-05-13T09:15:58Z</time>
      </trkpt>
      <trkpt lat="46.35271" lon="4.66088">
        <ele>543.28</ele>
        <time>2012-05-13T09:16:04Z</time>
      </trkpt>
      <trkpt lat="46.35269" lon="4.66074">
        <ele>545.2</ele>
        <time>2012-05-13T09:16:11Z</time>
      </trkpt>
      <trkpt lat="46.35263" lon="4.66057">
        <ele>548.09</ele>
        <time>2012-05-13T09:16:27Z</time>
      </trkpt>
      <trkpt lat="46.35258" lon="4.66041">
        <ele>550.01</ele>
        <time>2012-05-13T09:16:36Z</time>
      </trkpt>
      <trkpt lat="46.35252" lon="4.66025">
        <ele>551.45</ele>
        <time>2012-05-13T09:16:44Z</time>
      </trkpt>
      <trkpt lat="46.35247" lon="4.66017">
        <ele>552.41</ele>
        <time>2012-05-13T09:16:49Z</time>
      </trkpt>
      <trkpt lat="46.35237" lon="4.66009">
        <ele>552.41</ele>
        <time>2012-05-13T09:17:06Z</time>
      </trkpt>
      <trkpt lat="46.35237" lon="4.66009">
        <ele>552.9</ele>
        <time>2012-05-13T09:17:42Z</time>
      </trkpt>
      <trkpt lat="46.35236" lon="4.6601">
        <ele>552.9</ele>
        <time>2012-05-13T09:18:31Z</time>
      </trkpt>
      <trkpt lat="46.35236" lon="4.66009">
        <ele>552.9</ele>
        <time>2012-05-13T09:19:14Z</time>
      </trkpt>
      <trkpt lat="46.35236" lon="4.66009">
        <ele>551.93</ele>
        <time>2012-05-13T09:19:58Z</time>
      </trkpt>
      <trkpt lat="46.35236" lon="4.66009">
        <ele>553.86</ele>
        <time>2012-05-13T09:20:39Z</time>
      </trkpt>
      <trkpt lat="46.35236" lon="4.66008">
        <ele>553.38</ele>
        <time>2012-05-13T09:21:32Z</time>
      </trkpt>
      <trkpt lat="46.35236" lon="4.66009">
        <ele>553.38</ele>
        <time>2012-05-13T09:22:27Z</time>
      </trkpt>
      <trkpt lat="46.35236" lon="4.66009">
        <ele>553.38</ele>
        <time>2012-05-13T09:22:47Z</time>
      </trkpt>
      <trkpt lat="46.35235" lon="4.6601">
        <ele>552.41</ele>
        <time>2012-05-13T09:23:28Z</time>
      </trkpt>
      <trkpt lat="46.35235" lon="4.6601">
        <ele>552.9</ele>
        <time>2012-05-13T09:24:11Z</time>
      </trkpt>
      <trkpt lat="46.35236" lon="4.6601">
        <ele>553.38</ele>
        <time>2012-05-13T09:24:52Z</time>
      </trkpt>
      <trkpt lat="46.35236" lon="4.66011">
        <ele>553.86</ele>
        <time>2012-05-13T09:25:36Z</time>
      </trkpt>
      <trkpt lat="46.35235" lon="4.6601">
        <ele>552.9</ele>
        <time>2012-05-13T09:26:24Z</time>
      </trkpt>
      <trkpt lat="46.35236" lon="4.66009">
        <ele>552.41</ele>
        <time>2012-05-13T09:27:05Z</time>
      </trkpt>
      <trkpt lat="46.35235" lon="4.66009">
        <ele>553.38</ele>
        <time>2012-05-13T09:27:52Z</time>
      </trkpt>
      <trkpt lat="46.35236" lon="4.66009">
        <ele>553.86</ele>
        <time>2012-05-13T09:28:34Z</time>
      </trkpt>
      <trkpt lat="46.35236" lon="4.6601">
        <ele>552.9</ele>
        <time>2012-05-13T09:29:18Z</time>
      </trkpt>
      <trkpt lat="46.35235" lon="4.66009">
        <ele>553.86</ele>
        <time>2012-05-13T09:29:59Z</time>
      </trkpt>
      <trkpt lat="46.35236" lon="4.6601">
        <ele>553.86</ele>
        <time>2012-05-13T09:30:46Z</time>
      </trkpt>
      <trkpt lat="46.35236" lon="4.6601">
        <ele>553.86</ele>
        <time>2012-05-13T09:31:25Z</time>
      </trkpt>
      <trkpt lat="46.35236" lon="4.6601">
        <ele>554.34</ele>
        <time>2012-05-13T09:32:09Z</time>
      </trkpt>
      <trkpt lat="46.35236" lon="4.66009">
        <ele>553.38</ele>
        <time>2012-05-13T09:32:55Z</time>
      </trkpt>
      <trkpt lat="46.35236" lon="4.66008">
        <ele>553.86</ele>
        <time>2012-05-13T09:33:37Z</time>
      </trkpt>
      <trkpt lat="46.35236" lon="4.66008">
        <ele>553.86</ele>
        <time>2012-05-13T09:34:18Z</time>
      </trkpt>
      <trkpt lat="46.35237" lon="4.66011">
        <ele>553.38</ele>
        <time>2012-05-13T09:34:54Z</time>
      </trkpt>
      <trkpt lat="46.35231" lon="4.65989">
        <ele>552.41</ele>
        <time>2012-05-13T09:35:09Z</time>
      </trkpt>
      <trkpt lat="46.35211" lon="4.65978">
        <ele>550.01</ele>
        <time>2012-05-13T09:35:18Z</time>
      </trkpt>
      <trkpt lat="46.35205" lon="4.65979">
        <ele>550.01</ele>
        <time>2012-05-13T09:35:21Z</time>
      </trkpt>
      <trkpt lat="46.35191" lon="4.65986">
        <ele>549.05</ele>
        <time>2012-05-13T09:35:26Z</time>
      </trkpt>
      <trkpt lat="46.35176" lon="4.65989">
        <ele>547.61</ele>
        <time>2012-05-13T09:35:30Z</time>
      </trkpt>
      <trkpt lat="46.35163" lon="4.65992">
        <ele>546.17</ele>
        <time>2012-05-13T09:35:33Z</time>
      </trkpt>
      <trkpt lat="46.3515" lon="4.65993">
        <ele>544.24</ele>
        <time>2012-05-13T09:35:36Z</time>
      </trkpt>
      <trkpt lat="46.35129" lon="4.65995">
        <ele>540.88</ele>
        <time>2012-05-13T09:35:40Z</time>
      </trkpt>
      <trkpt lat="46.35098" lon="4.66006">
        <ele>537.99</ele>
        <time>2012-05-13T09:35:45Z</time>
      </trkpt>
      <trkpt lat="46.35068" lon="4.66019">
        <ele>535.11</ele>
        <time>2012-05-13T09:35:49Z</time>
      </trkpt>
      <trkpt lat="46.35013" lon="4.66046">
        <ele>531.75</ele>
        <time>2012-05-13T09:35:57Z</time>
      </trkpt>
      <trkpt lat="46.34961" lon="4.66073">
        <ele>531.27</ele>
        <time>2012-05-13T09:36:06Z</time>
      </trkpt>
      <trkpt lat="46.34942" lon="4.66074">
        <ele>529.82</ele>
        <time>2012-05-13T09:36:10Z</time>
      </trkpt>
      <trkpt lat="46.34927" lon="4.66066">
        <ele>529.82</ele>
        <time>2012-05-13T09:36:18Z</time>
      </trkpt>
      <trkpt lat="46.349" lon="4.66045">
        <ele>532.71</ele>
        <time>2012-05-13T09:36:34Z</time>
      </trkpt>
      <trkpt lat="46.34864" lon="4.66022">
        <ele>536.07</ele>
        <time>2012-05-13T09:36:53Z</time>
      </trkpt>
      <trkpt lat="46.34815" lon="4.65997">
        <ele>538.48</ele>
        <time>2012-05-13T09:37:16Z</time>
      </trkpt>
      <trkpt lat="46.34803" lon="4.66004">
        <ele>540.4</ele>
        <time>2012-05-13T09:37:22Z</time>
      </trkpt>
      <trkpt lat="46.34792" lon="4.66005">
        <ele>541.36</ele>
        <time>2012-05-13T09:37:29Z</time>
      </trkpt>
      <trkpt lat="46.34781" lon="4.66004">
        <ele>542.32</ele>
        <time>2012-05-13T09:37:35Z</time>
      </trkpt>
      <trkpt lat="46.34777" lon="4.66002">
        <ele>543.28</ele>
        <time>2012-05-13T09:37:38Z</time>
      </trkpt>
      <trkpt lat="46.34765" lon="4.66002">
        <ele>544.72</ele>
        <time>2012-05-13T09:37:46Z</time>
      </trkpt>
      <trkpt lat="46.3476" lon="4.66005">
        <ele>545.69</ele>
        <time>2012-05-13T09:37:50Z</time>
      </trkpt>
      <trkpt lat="46.34748" lon="4.66016">
        <ele>548.57</ele>
        <time>2012-05-13T09:38:02Z</time>
      </trkpt>
      <trkpt lat="46.34728" lon="4.66008">
        <ele>551.93</ele>
        <time>2012-05-13T09:38:18Z</time>
      </trkpt>
      <trkpt lat="46.3472" lon="4.66001">
        <ele>552.41</ele>
        <time>2012-05-13T09:38:24Z</time>
      </trkpt>
      <trkpt lat="46.34714" lon="4.65993">
        <ele>553.38</ele>
        <time>2012-05-13T09:38:29Z</time>
      </trkpt>
      <trkpt lat="46.3469" lon="4.65962">
        <ele>555.3</ele>
        <time>2012-05-13T09:38:49Z</time>
      </trkpt>
      <trkpt lat="46.34674" lon="4.65942">
        <ele>558.66</ele>
        <time>2012-05-13T09:39:03Z</time>
      </trkpt>
      <trkpt lat="46.34665" lon="4.65933">
        <ele>559.62</ele>
        <time>2012-05-13T09:39:11Z</time>
      </trkpt>
      <trkpt lat="46.34645" lon="4.65912">
        <ele>563.47</ele>
        <time>2012-05-13T09:39:29Z</time>
      </trkpt>
      <trkpt lat="46.34633" lon="4.65901">
        <ele>566.35</ele>
        <time>2012-05-13T09:39:39Z</time>
      </trkpt>
      <trkpt lat="46.34618" lon="4.6589">
        <ele>569.72</ele>
        <time>2012-05-13T09:39:50Z</time>
      </trkpt>
      <trkpt lat="46.34597" lon="4.65872">
        <ele>572.6</ele>
        <time>2012-05-13T09:40:07Z</time>
      </trkpt>
      <trkpt lat="46.34583" lon="4.65859">
        <ele>574.53</ele>
        <time>2012-05-13T09:40:18Z</time>
      </trkpt>
      <trkpt lat="46.34576" lon="4.65854">
        <ele>575.01</ele>
        <time>2012-05-13T09:40:23Z</time>
      </trkpt>
      <trkpt lat="46.34574" lon="4.65851">
        <ele>576.45</ele>
        <time>2012-05-13T09:40:25Z</time>
      </trkpt>
      <trkpt lat="46.34561" lon="4.65792">
        <ele>578.37</ele>
        <time>2012-05-13T09:40:47Z</time>
      </trkpt>
      <trkpt lat="46.34553" lon="4.65718">
        <ele>581.73</ele>
        <time>2012-05-13T09:41:11Z</time>
      </trkpt>
      <trkpt lat="46.34543" lon="4.65667">
        <ele>585.1</ele>
        <time>2012-05-13T09:41:29Z</time>
      </trkpt>
      <trkpt lat="46.34521" lon="4.65615">
        <ele>587.98</ele>
        <time>2012-05-13T09:41:51Z</time>
      </trkpt>
      <trkpt lat="46.34517" lon="4.65608">
        <ele>588.46</ele>
        <time>2012-05-13T09:41:55Z</time>
      </trkpt>
      <trkpt lat="46.34493" lon="4.65585">
        <ele>592.31</ele>
        <time>2012-05-13T09:42:13Z</time>
      </trkpt>
      <trkpt lat="46.34471" lon="4.65558">
        <ele>595.67</ele>
        <time>2012-05-13T09:42:31Z</time>
      </trkpt>
      <trkpt lat="46.34468" lon="4.65552">
        <ele>596.15</ele>
        <time>2012-05-13T09:42:35Z</time>
      </trkpt>
      <trkpt lat="46.34465" lon="4.65536">
        <ele>597.6</ele>
        <time>2012-05-13T09:42:44Z</time>
      </trkpt>
      <trkpt lat="46.34463" lon="4.65526">
        <ele>598.08</ele>
        <time>2012-05-13T09:42:50Z</time>
      </trkpt>
      <trkpt lat="46.3446" lon="4.6552">
        <ele>599.04</ele>
        <time>2012-05-13T09:42:54Z</time>
      </trkpt>
      <trkpt lat="46.34457" lon="4.65509">
        <ele>600.48</ele>
        <time>2012-05-13T09:43:00Z</time>
      </trkpt>
      <trkpt lat="46.3445" lon="4.65492">
        <ele>602.88</ele>
        <time>2012-05-13T09:43:10Z</time>
      </trkpt>
      <trkpt lat="46.34448" lon="4.65484">
        <ele>602.88</ele>
        <time>2012-05-13T09:43:14Z</time>
      </trkpt>
      <trkpt lat="46.34445" lon="4.65477">
        <ele>604.33</ele>
        <time>2012-05-13T09:43:18Z</time>
      </trkpt>
      <trkpt lat="46.34425" lon="4.65443">
        <ele>607.21</ele>
        <time>2012-05-13T09:43:39Z</time>
      </trkpt>
      <trkpt lat="46.34409" lon="4.6541">
        <ele>609.13</ele>
        <time>2012-05-13T09:43:56Z</time>
      </trkpt>
      <trkpt lat="46.34405" lon="4.65402">
        <ele>609.13</ele>
        <time>2012-05-13T09:44:00Z</time>
      </trkpt>
      <trkpt lat="46.34399" lon="4.65392">
        <ele>609.61</ele>
        <time>2012-05-13T09:44:05Z</time>
      </trkpt>
      <trkpt lat="46.34366" lon="4.65353">
        <ele>610.57</ele>
        <time>2012-05-13T09:44:25Z</time>
      </trkpt>
      <trkpt lat="46.34312" lon="4.65321">
        <ele>611.06</ele>
        <time>2012-05-13T09:44:46Z</time>
      </trkpt>
      <trkpt lat="46.34268" lon="4.65285">
        <ele>612.98</ele>
        <time>2012-05-13T09:45:06Z</time>
      </trkpt>
      <trkpt lat="46.34225" lon="4.65261">
        <ele>611.06</ele>
        <time>2012-05-13T09:45:24Z</time>
      </trkpt>
      <trkpt lat="46.34185" lon="4.65245">
        <ele>610.09</ele>
        <time>2012-05-13T09:45:37Z</time>
      </trkpt>
      <trkpt lat="46.3417" lon="4.65237">
        <ele>609.13</ele>
        <time>2012-05-13T09:45:42Z</time>
      </trkpt>
      <trkpt lat="46.34116" lon="4.65232">
        <ele>607.21</ele>
        <time>2012-05-13T09:45:58Z</time>
      </trkpt>
      <trkpt lat="46.34083" lon="4.65257">
        <ele>605.29</ele>
        <time>2012-05-13T09:46:06Z</time>
      </trkpt>
      <trkpt lat="46.34063" lon="4.65269">
        <ele>605.77</ele>
        <time>2012-05-13T09:46:12Z</time>
      </trkpt>
      <trkpt lat="46.34054" lon="4.65268">
        <ele>606.25</ele>
        <time>2012-05-13T09:46:17Z</time>
      </trkpt>
      <trkpt lat="46.34044" lon="4.6526">
        <ele>607.69</ele>
        <time>2012-05-13T09:46:24Z</time>
      </trkpt>
      <trkpt lat="46.34042" lon="4.65258">
        <ele>609.13</ele>
        <time>2012-05-13T09:46:26Z</time>
      </trkpt>
      <trkpt lat="46.34034" lon="4.65253">
        <ele>611.54</ele>
        <time>2012-05-13T09:46:34Z</time>
      </trkpt>
      <trkpt lat="46.34031" lon="4.65251">
        <ele>612.5</ele>
        <time>2012-05-13T09:46:36Z</time>
      </trkpt>
      <trkpt lat="46.34025" lon="4.65246">
        <ele>613.94</ele>
        <time>2012-05-13T09:46:41Z</time>
      </trkpt>
      <trkpt lat="46.34022" lon="4.65243">
        <ele>614.42</ele>
        <time>2012-05-13T09:46:44Z</time>
      </trkpt>
      <trkpt lat="46.34013" lon="4.65234">
        <ele>617.3</ele>
        <time>2012-05-13T09:46:58Z</time>
      </trkpt>
      <trkpt lat="46.34003" lon="4.65221">
        <ele>620.67</ele>
        <time>2012-05-13T09:47:12Z</time>
      </trkpt>
      <trkpt lat="46.33998" lon="4.65213">
        <ele>624.03</ele>
        <time>2012-05-13T09:47:28Z</time>
      </trkpt>
      <trkpt lat="46.33981" lon="4.65186">
        <ele>627.4</ele>
        <time>2012-05-13T09:47:47Z</time>
      </trkpt>
      <trkpt lat="46.33971" lon="4.65164">
        <ele>628.84</ele>
        <time>2012-05-13T09:48:01Z</time>
      </trkpt>
      <trkpt lat="46.33967" lon="4.65158">
        <ele>629.32</ele>
        <time>2012-05-13T09:48:05Z</time>
      </trkpt>
      <trkpt lat="46.33958" lon="4.65141">
        <ele>632.68</ele>
        <time>2012-05-13T09:48:19Z</time>
      </trkpt>
      <trkpt lat="46.33953" lon="4.65135">
        <ele>634.13</ele>
        <time>2012-05-13T09:48:25Z</time>
      </trkpt>
      <trkpt lat="46.3395" lon="4.65131">
        <ele>635.09</ele>
        <time>2012-05-13T09:48:30Z</time>
      </trkpt>
      <trkpt lat="46.3394" lon="4.65118">
        <ele>636.53</ele>
        <time>2012-05-13T09:48:42Z</time>
      </trkpt>
      <trkpt lat="46.33938" lon="4.65116">
        <ele>637.01</ele>
        <time>2012-05-13T09:48:44Z</time>
      </trkpt>
      <trkpt lat="46.33934" lon="4.65107">
        <ele>637.49</ele>
        <time>2012-05-13T09:48:51Z</time>
      </trkpt>
      <trkpt lat="46.33932" lon="4.65105">
        <ele>637.97</ele>
        <time>2012-05-13T09:48:53Z</time>
      </trkpt>
      <trkpt lat="46.33929" lon="4.65098">
        <ele>638.93</ele>
        <time>2012-05-13T09:48:57Z</time>
      </trkpt>
      <trkpt lat="46.33914" lon="4.65071">
        <ele>640.86</ele>
        <time>2012-05-13T09:49:16Z</time>
      </trkpt>
      <trkpt lat="46.33907" lon="4.65054">
        <ele>641.34</ele>
        <time>2012-05-13T09:49:28Z</time>
      </trkpt>
      <trkpt lat="46.33902" lon="4.65038">
        <ele>642.78</ele>
        <time>2012-05-13T09:49:39Z</time>
      </trkpt>
      <trkpt lat="46.33901" lon="4.65035">
        <ele>643.26</ele>
        <time>2012-05-13T09:49:41Z</time>
      </trkpt>
      <trkpt lat="46.33898" lon="4.65027">
        <ele>643.26</ele>
        <time>2012-05-13T09:49:46Z</time>
      </trkpt>
      <trkpt lat="46.3389" lon="4.65012">
        <ele>644.22</ele>
        <time>2012-05-13T09:49:56Z</time>
      </trkpt>
      <trkpt lat="46.33885" lon="4.64999">
        <ele>645.18</ele>
        <time>2012-05-13T09:50:03Z</time>
      </trkpt>
      <trkpt lat="46.33873" lon="4.64977">
        <ele>646.62</ele>
        <time>2012-05-13T09:50:17Z</time>
      </trkpt>
      <trkpt lat="46.33869" lon="4.6497">
        <ele>647.1</ele>
        <time>2012-05-13T09:50:22Z</time>
      </trkpt>
      <trkpt lat="46.33866" lon="4.64965">
        <ele>647.1</ele>
        <time>2012-05-13T09:50:25Z</time>
      </trkpt>
      <trkpt lat="46.3385" lon="4.64936">
        <ele>648.55</ele>
        <time>2012-05-13T09:50:44Z</time>
      </trkpt>
      <trkpt lat="46.33847" lon="4.64934">
        <ele>647.59</ele>
        <time>2012-05-13T09:50:46Z</time>
      </trkpt>
      <trkpt lat="46.33832" lon="4.64921">
        <ele>649.51</ele>
        <time>2012-05-13T09:51:00Z</time>
      </trkpt>
      <trkpt lat="46.33808" lon="4.6492">
        <ele>651.91</ele>
        <time>2012-05-13T09:51:17Z</time>
      </trkpt>
      <trkpt lat="46.33786" lon="4.64923">
        <ele>655.28</ele>
        <time>2012-05-13T09:51:36Z</time>
      </trkpt>
      <trkpt lat="46.3378" lon="4.64925">
        <ele>655.28</ele>
        <time>2012-05-13T09:51:40Z</time>
      </trkpt>
      <trkpt lat="46.33773" lon="4.64927">
        <ele>656.24</ele>
        <time>2012-05-13T09:51:44Z</time>
      </trkpt>
      <trkpt lat="46.33752" lon="4.64939">
        <ele>659.12</ele>
        <time>2012-05-13T09:51:59Z</time>
      </trkpt>
      <trkpt lat="46.33751" lon="4.6494">
        <ele>659.12</ele>
        <time>2012-05-13T09:52:00Z</time>
      </trkpt>
      <trkpt lat="46.33732" lon="4.64946">
        <ele>662.01</ele>
        <time>2012-05-13T09:52:13Z</time>
      </trkpt>
      <trkpt lat="46.3373" lon="4.64946">
        <ele>662.49</ele>
        <time>2012-05-13T09:52:15Z</time>
      </trkpt>
      <trkpt lat="46.33728" lon="4.64945">
        <ele>662.49</ele>
        <time>2012-05-13T09:52:17Z</time>
      </trkpt>
      <trkpt lat="46.33724" lon="4.64944">
        <ele>663.45</ele>
        <time>2012-05-13T09:52:21Z</time>
      </trkpt>
      <trkpt lat="46.3371" lon="4.64937">
        <ele>666.33</ele>
        <time>2012-05-13T09:52:33Z</time>
      </trkpt>
      <trkpt lat="46.33688" lon="4.64921">
        <ele>668.73</ele>
        <time>2012-05-13T09:52:53Z</time>
      </trkpt>
      <trkpt lat="46.33674" lon="4.64911">
        <ele>670.18</ele>
        <time>2012-05-13T09:53:06Z</time>
      </trkpt>
      <trkpt lat="46.33668" lon="4.64909">
        <ele>669.7</ele>
        <time>2012-05-13T09:53:10Z</time>
      </trkpt>
      <trkpt lat="46.33664" lon="4.64907">
        <ele>671.14</ele>
        <time>2012-05-13T09:53:13Z</time>
      </trkpt>
      <trkpt lat="46.33658" lon="4.64904">
        <ele>671.14</ele>
        <time>2012-05-13T09:53:17Z</time>
      </trkpt>
      <trkpt lat="46.33646" lon="4.64899">
        <ele>672.1</ele>
        <time>2012-05-13T09:53:25Z</time>
      </trkpt>
      <trkpt lat="46.3364" lon="4.64897">
        <ele>672.58</ele>
        <time>2012-05-13T09:53:29Z</time>
      </trkpt>
      <trkpt lat="46.33637" lon="4.64893">
        <ele>673.06</ele>
        <time>2012-05-13T09:53:32Z</time>
      </trkpt>
      <trkpt lat="46.33624" lon="4.64889">
        <ele>674.5</ele>
        <time>2012-05-13T09:53:40Z</time>
      </trkpt>
      <trkpt lat="46.33585" lon="4.64878">
        <ele>675.94</ele>
        <time>2012-05-13T09:53:58Z</time>
      </trkpt>
      <trkpt lat="46.33537" lon="4.6487">
        <ele>676.42</ele>
        <time>2012-05-13T09:54:15Z</time>
      </trkpt>
      <trkpt lat="46.33499" lon="4.64851">
        <ele>678.35</ele>
        <time>2012-05-13T09:54:30Z</time>
      </trkpt>
      <trkpt lat="46.33465" lon="4.64823">
        <ele>681.71</ele>
        <time>2012-05-13T09:54:48Z</time>
      </trkpt>
      <trkpt lat="46.33436" lon="4.64797">
        <ele>684.12</ele>
        <time>2012-05-13T09:55:06Z</time>
      </trkpt>
      <trkpt lat="46.33396" lon="4.6478">
        <ele>685.08</ele>
        <time>2012-05-13T09:55:25Z</time>
      </trkpt>
      <trkpt lat="46.3339" lon="4.64777">
        <ele>686.04</ele>
        <time>2012-05-13T09:55:28Z</time>
      </trkpt>
      <trkpt lat="46.33372" lon="4.64772">
        <ele>688.44</ele>
        <time>2012-05-13T09:55:37Z</time>
      </trkpt>
      <trkpt lat="46.3337" lon="4.64771">
        <ele>688.44</ele>
        <time>2012-05-13T09:55:38Z</time>
      </trkpt>
      <trkpt lat="46.33336" lon="4.64762">
        <ele>690.36</ele>
        <time>2012-05-13T09:55:54Z</time>
      </trkpt>
      <trkpt lat="46.33301" lon="4.6475">
        <ele>691.33</ele>
        <time>2012-05-13T09:56:09Z</time>
      </trkpt>
      <trkpt lat="46.33265" lon="4.64731">
        <ele>693.73</ele>
        <time>2012-05-13T09:56:27Z</time>
      </trkpt>
      <trkpt lat="46.33257" lon="4.64726">
        <ele>693.73</ele>
        <time>2012-05-13T09:56:30Z</time>
      </trkpt>
      <trkpt lat="46.33231" lon="4.64713">
        <ele>695.65</ele>
        <time>2012-05-13T09:56:42Z</time>
      </trkpt>
      <trkpt lat="46.33204" lon="4.64696">
        <ele>697.09</ele>
        <time>2012-05-13T09:56:57Z</time>
      </trkpt>
      <trkpt lat="46.33193" lon="4.64683">
        <ele>698.05</ele>
        <time>2012-05-13T09:57:05Z</time>
      </trkpt>
      <trkpt lat="46.33186" lon="4.64674">
        <ele>699.5</ele>
        <time>2012-05-13T09:57:09Z</time>
      </trkpt>
      <trkpt lat="46.33181" lon="4.64667">
        <ele>700.46</ele>
        <time>2012-05-13T09:57:12Z</time>
      </trkpt>
      <trkpt lat="46.3317" lon="4.64644">
        <ele>703.82</ele>
        <time>2012-05-13T09:57:24Z</time>
      </trkpt>
      <trkpt lat="46.33162" lon="4.64623">
        <ele>706.71</ele>
        <time>2012-05-13T09:57:39Z</time>
      </trkpt>
      <trkpt lat="46.33156" lon="4.64607">
        <ele>706.71</ele>
        <time>2012-05-13T09:57:48Z</time>
      </trkpt>
      <trkpt lat="46.3314" lon="4.64573">
        <ele>708.63</ele>
        <time>2012-05-13T09:58:05Z</time>
      </trkpt>
      <trkpt lat="46.33127" lon="4.64547">
        <ele>709.11</ele>
        <time>2012-05-13T09:58:16Z</time>
      </trkpt>
      <trkpt lat="46.33124" lon="4.64539">
        <ele>709.59</ele>
        <time>2012-05-13T09:58:19Z</time>
      </trkpt>
      <trkpt lat="46.33119" lon="4.64528">
        <ele>709.11</ele>
        <time>2012-05-13T09:58:23Z</time>
      </trkpt>
      <trkpt lat="46.33117" lon="4.64521">
        <ele>709.11</ele>
        <time>2012-05-13T09:58:26Z</time>
      </trkpt>
      <trkpt lat="46.33113" lon="4.6451">
        <ele>708.15</ele>
        <time>2012-05-13T09:58:30Z</time>
      </trkpt>
      <trkpt lat="46.33097" lon="4.64465">
        <ele>708.63</ele>
        <time>2012-05-13T09:58:49Z</time>
      </trkpt>
      <trkpt lat="46.33084" lon="4.64443">
        <ele>708.15</ele>
        <time>2012-05-13T09:58:56Z</time>
      </trkpt>
      <trkpt lat="46.3306" lon="4.64399">
        <ele>710.07</ele>
        <time>2012-05-13T09:59:12Z</time>
      </trkpt>
      <trkpt lat="46.33057" lon="4.64394">
        <ele>710.07</ele>
        <time>2012-05-13T09:59:18Z</time>
      </trkpt>
      <trkpt lat="46.33043" lon="4.64389">
        <ele>706.23</ele>
        <time>2012-05-13T09:59:22Z</time>
      </trkpt>
      <trkpt lat="46.33039" lon="4.64387">
        <ele>705.26</ele>
        <time>2012-05-13T09:59:23Z</time>
      </trkpt>
      <trkpt lat="46.33027" lon="4.64383">
        <ele>703.82</ele>
        <time>2012-05-13T09:59:26Z</time>
      </trkpt>
      <trkpt lat="46.3301" lon="4.64381">
        <ele>699.5</ele>
        <time>2012-05-13T09:59:30Z</time>
      </trkpt>
      <trkpt lat="46.32957" lon="4.64364">
        <ele>696.13</ele>
        <time>2012-05-13T09:59:43Z</time>
      </trkpt>
      <trkpt lat="46.32948" lon="4.64362">
        <ele>696.13</ele>
        <time>2012-05-13T09:59:46Z</time>
      </trkpt>
      <trkpt lat="46.3294" lon="4.64356">
        <ele>698.05</ele>
        <time>2012-05-13T09:59:51Z</time>
      </trkpt>
      <trkpt lat="46.32939" lon="4.6435">
        <ele>699.02</ele>
        <time>2012-05-13T09:59:54Z</time>
      </trkpt>
      <trkpt lat="46.3293" lon="4.64322">
        <ele>700.46</ele>
        <time>2012-05-13T10:00:05Z</time>
      </trkpt>
      <trkpt lat="46.32906" lon="4.64289">
        <ele>700.46</ele>
        <time>2012-05-13T10:00:22Z</time>
      </trkpt>
      <trkpt lat="46.32881" lon="4.64295">
        <ele>703.34</ele>
        <time>2012-05-13T10:00:38Z</time>
      </trkpt>
      <trkpt lat="46.3286" lon="4.64308">
        <ele>705.26</ele>
        <time>2012-05-13T10:00:59Z</time>
      </trkpt>
      <trkpt lat="46.32848" lon="4.64318">
        <ele>708.63</ele>
        <time>2012-05-13T10:01:12Z</time>
      </trkpt>
      <trkpt lat="46.3284" lon="4.64326">
        <ele>711.99</ele>
        <time>2012-05-13T10:01:22Z</time>
      </trkpt>
      <trkpt lat="46.32827" lon="4.64332">
        <ele>715.36</ele>
        <time>2012-05-13T10:01:34Z</time>
      </trkpt>
      <trkpt lat="46.32821" lon="4.64335">
        <ele>717.76</ele>
        <time>2012-05-13T10:01:42Z</time>
      </trkpt>
      <trkpt lat="46.3281" lon="4.64339">
        <ele>721.13</ele>
        <time>2012-05-13T10:01:53Z</time>
      </trkpt>
      <trkpt lat="46.32795" lon="4.64341">
        <ele>724.49</ele>
        <time>2012-05-13T10:02:08Z</time>
      </trkpt>
      <trkpt lat="46.32794" lon="4.64341">
        <ele>724.97</ele>
        <time>2012-05-13T10:02:09Z</time>
      </trkpt>
      <trkpt lat="46.3279" lon="4.64341">
        <ele>724.97</ele>
        <time>2012-05-13T10:02:12Z</time>
      </trkpt>
      <trkpt lat="46.32775" lon="4.64343">
        <ele>727.37</ele>
        <time>2012-05-13T10:02:27Z</time>
      </trkpt>
      <trkpt lat="46.32763" lon="4.64328">
        <ele>730.26</ele>
        <time>2012-05-13T10:02:45Z</time>
      </trkpt>
      <trkpt lat="46.3276" lon="4.64326">
        <ele>731.22</ele>
        <time>2012-05-13T10:02:48Z</time>
      </trkpt>
      <trkpt lat="46.32746" lon="4.64314">
        <ele>732.18</ele>
        <time>2012-05-13T10:03:04Z</time>
      </trkpt>
      <trkpt lat="46.32727" lon="4.64295">
        <ele>731.7</ele>
        <time>2012-05-13T10:03:17Z</time>
      </trkpt>
      <trkpt lat="46.32717" lon="4.64281">
        <ele>730.74</ele>
        <time>2012-05-13T10:03:24Z</time>
      </trkpt>
      <trkpt lat="46.32699" lon="4.64267">
        <ele>728.34</ele>
        <time>2012-05-13T10:03:29Z</time>
      </trkpt>
      <trkpt lat="46.32684" lon="4.64251">
        <ele>724.97</ele>
        <time>2012-05-13T10:03:33Z</time>
      </trkpt>
      <trkpt lat="46.3268" lon="4.64248">
        <ele>724.49</ele>
        <time>2012-05-13T10:03:34Z</time>
      </trkpt>
      <trkpt lat="46.3267" lon="4.64238">
        <ele>724.01</ele>
        <time>2012-05-13T10:03:36Z</time>
      </trkpt>
      <trkpt lat="46.32648" lon="4.64214">
        <ele>722.09</ele>
        <time>2012-05-13T10:03:41Z</time>
      </trkpt>
      <trkpt lat="46.32626" lon="4.64192">
        <ele>720.16</ele>
        <time>2012-05-13T10:03:46Z</time>
      </trkpt>
      <trkpt lat="46.32622" lon="4.64184">
        <ele>719.2</ele>
        <time>2012-05-13T10:03:49Z</time>
      </trkpt>
      <trkpt lat="46.32609" lon="4.64182">
        <ele>715.84</ele>
        <time>2012-05-13T10:03:54Z</time>
      </trkpt>
      <trkpt lat="46.32605" lon="4.64182">
        <ele>715.84</ele>
        <time>2012-05-13T10:03:55Z</time>
      </trkpt>
      <trkpt lat="46.32589" lon="4.64189">
        <ele>712.95</ele>
        <time>2012-05-13T10:04:00Z</time>
      </trkpt>
      <trkpt lat="46.3257" lon="4.64206">
        <ele>708.63</ele>
        <time>2012-05-13T10:04:05Z</time>
      </trkpt>
      <trkpt lat="46.32565" lon="4.64209">
        <ele>708.15</ele>
        <time>2012-05-13T10:04:06Z</time>
      </trkpt>
      <trkpt lat="46.32555" lon="4.64211">
        <ele>706.71</ele>
        <time>2012-05-13T10:04:08Z</time>
      </trkpt>
      <trkpt lat="46.32545" lon="4.64211">
        <ele>705.75</ele>
        <time>2012-05-13T10:04:10Z</time>
      </trkpt>
      <trkpt lat="46.32538" lon="4.64208">
        <ele>705.75</ele>
        <time>2012-05-13T10:04:12Z</time>
      </trkpt>
      <trkpt lat="46.3249" lon="4.64191">
        <ele>705.26</ele>
        <time>2012-05-13T10:04:26Z</time>
      </trkpt>
      <trkpt lat="46.32433" lon="4.64183">
        <ele>705.75</ele>
        <time>2012-05-13T10:04:40Z</time>
      </trkpt>
      <trkpt lat="46.32388" lon="4.64177">
        <ele>706.71</ele>
        <time>2012-05-13T10:04:54Z</time>
      </trkpt>
      <trkpt lat="46.32335" lon="4.6418">
        <ele>705.26</ele>
        <time>2012-05-13T10:05:09Z</time>
      </trkpt>
      <trkpt lat="46.32307" lon="4.64156">
        <ele>706.23</ele>
        <time>2012-05-13T10:05:23Z</time>
      </trkpt>
      <trkpt lat="46.32294" lon="4.64103">
        <ele>705.26</ele>
        <time>2012-05-13T10:05:38Z</time>
      </trkpt>
      <trkpt lat="46.32288" lon="4.64077">
        <ele>703.82</ele>
        <time>2012-05-13T10:05:43Z</time>
      </trkpt>
      <trkpt lat="46.32277" lon="4.64047">
        <ele>700.46</ele>
        <time>2012-05-13T10:05:47Z</time>
      </trkpt>
      <trkpt lat="46.32274" lon="4.64041">
        <ele>699.5</ele>
        <time>2012-05-13T10:05:48Z</time>
      </trkpt>
      <trkpt lat="46.32263" lon="4.64024">
        <ele>696.61</ele>
        <time>2012-05-13T10:05:51Z</time>
      </trkpt>
      <trkpt lat="46.32255" lon="4.64007">
        <ele>694.69</ele>
        <time>2012-05-13T10:05:54Z</time>
      </trkpt>
      <trkpt lat="46.3225" lon="4.6399">
        <ele>692.29</ele>
        <time>2012-05-13T10:05:57Z</time>
      </trkpt>
      <trkpt lat="46.32245" lon="4.63969">
        <ele>688.44</ele>
        <time>2012-05-13T10:06:01Z</time>
      </trkpt>
      <trkpt lat="46.32239" lon="4.63958">
        <ele>686.52</ele>
        <time>2012-05-13T10:06:03Z</time>
      </trkpt>
      <trkpt lat="46.32222" lon="4.6394">
        <ele>682.19</ele>
        <time>2012-05-13T10:06:07Z</time>
      </trkpt>
      <trkpt lat="46.32207" lon="4.63929">
        <ele>678.35</ele>
        <time>2012-05-13T10:06:11Z</time>
      </trkpt>
      <trkpt lat="46.322" lon="4.63919">
        <ele>676.42</ele>
        <time>2012-05-13T10:06:13Z</time>
      </trkpt>
      <trkpt lat="46.32184" lon="4.63898">
        <ele>671.14</ele>
        <time>2012-05-13T10:06:19Z</time>
      </trkpt>
      <trkpt lat="46.32171" lon="4.63889">
        <ele>667.29</ele>
        <time>2012-05-13T10:06:23Z</time>
      </trkpt>
      <trkpt lat="46.32158" lon="4.63882">
        <ele>664.41</ele>
        <time>2012-05-13T10:06:27Z</time>
      </trkpt>
      <trkpt lat="46.32147" lon="4.63875">
        <ele>661.04</ele>
        <time>2012-05-13T10:06:30Z</time>
      </trkpt>
      <trkpt lat="46.32133" lon="4.63859">
        <ele>656.24</ele>
        <time>2012-05-13T10:06:34Z</time>
      </trkpt>
      <trkpt lat="46.3213" lon="4.63856">
        <ele>655.28</ele>
        <time>2012-05-13T10:06:35Z</time>
      </trkpt>
      <trkpt lat="46.32124" lon="4.63841">
        <ele>651.43</ele>
        <time>2012-05-13T10:06:40Z</time>
      </trkpt>
      <trkpt lat="46.32117" lon="4.6383">
        <ele>648.55</ele>
        <time>2012-05-13T10:06:43Z</time>
      </trkpt>
      <trkpt lat="46.32111" lon="4.63812">
        <ele>642.78</ele>
        <time>2012-05-13T10:06:48Z</time>
      </trkpt>
      <trkpt lat="46.32108" lon="4.63805">
        <ele>641.34</ele>
        <time>2012-05-13T10:06:50Z</time>
      </trkpt>
      <trkpt lat="46.321" lon="4.63792">
        <ele>638.45</ele>
        <time>2012-05-13T10:06:53Z</time>
      </trkpt>
      <trkpt lat="46.32089" lon="4.63776">
        <ele>634.13</ele>
        <time>2012-05-13T10:06:57Z</time>
      </trkpt>
      <trkpt lat="46.32085" lon="4.63773">
        <ele>633.17</ele>
        <time>2012-05-13T10:06:58Z</time>
      </trkpt>
      <trkpt lat="46.32071" lon="4.63765">
        <ele>629.8</ele>
        <time>2012-05-13T10:07:03Z</time>
      </trkpt>
      <trkpt lat="46.32061" lon="4.63751">
        <ele>626.44</ele>
        <time>2012-05-13T10:07:08Z</time>
      </trkpt>
      <trkpt lat="46.32054" lon="4.63743">
        <ele>625.47</ele>
        <time>2012-05-13T10:07:10Z</time>
      </trkpt>
      <trkpt lat="46.32044" lon="4.63732">
        <ele>623.55</ele>
        <time>2012-05-13T10:07:12Z</time>
      </trkpt>
      <trkpt lat="46.32034" lon="4.63721">
        <ele>622.11</ele>
        <time>2012-05-13T10:07:14Z</time>
      </trkpt>
      <trkpt lat="46.32028" lon="4.63716">
        <ele>621.15</ele>
        <time>2012-05-13T10:07:15Z</time>
      </trkpt>
      <trkpt lat="46.32015" lon="4.63699">
        <ele>619.23</ele>
        <time>2012-05-13T10:07:18Z</time>
      </trkpt>
      <trkpt lat="46.31993" lon="4.63677">
        <ele>618.75</ele>
        <time>2012-05-13T10:07:24Z</time>
      </trkpt>
      <trkpt lat="46.31979" lon="4.63683">
        <ele>616.82</ele>
        <time>2012-05-13T10:07:29Z</time>
      </trkpt>
      <trkpt lat="46.31976" lon="4.63695">
        <ele>614.42</ele>
        <time>2012-05-13T10:07:31Z</time>
      </trkpt>
      <trkpt lat="46.31975" lon="4.63731">
        <ele>611.06</ele>
        <time>2012-05-13T10:07:35Z</time>
      </trkpt>
      <trkpt lat="46.31969" lon="4.63771">
        <ele>606.25</ele>
        <time>2012-05-13T10:07:40Z</time>
      </trkpt>
      <trkpt lat="46.31948" lon="4.6382">
        <ele>602.4</ele>
        <time>2012-05-13T10:07:45Z</time>
      </trkpt>
      <trkpt lat="46.31909" lon="4.63922">
        <ele>600</ele>
        <time>2012-05-13T10:07:57Z</time>
      </trkpt>
      <trkpt lat="46.31895" lon="4.63958">
        <ele>599.04</ele>
        <time>2012-05-13T10:08:02Z</time>
      </trkpt>
      <trkpt lat="46.31869" lon="4.6401">
        <ele>595.19</ele>
        <time>2012-05-13T10:08:10Z</time>
      </trkpt>
      <trkpt lat="46.31865" lon="4.64017">
        <ele>594.23</ele>
        <time>2012-05-13T10:08:12Z</time>
      </trkpt>
      <trkpt lat="46.31861" lon="4.64009">
        <ele>593.27</ele>
        <time>2012-05-13T10:08:17Z</time>
      </trkpt>
      <trkpt lat="46.31892" lon="4.63937">
        <ele>592.31</ele>
        <time>2012-05-13T10:08:34Z</time>
      </trkpt>
      <trkpt lat="46.31921" lon="4.63866">
        <ele>591.83</ele>
        <time>2012-05-13T10:08:49Z</time>
      </trkpt>
      <trkpt lat="46.31928" lon="4.63809">
        <ele>591.83</ele>
        <time>2012-05-13T10:09:04Z</time>
      </trkpt>
      <trkpt lat="46.31919" lon="4.63806">
        <ele>591.83</ele>
        <time>2012-05-13T10:09:09Z</time>
      </trkpt>
      <trkpt lat="46.31891" lon="4.63792">
        <ele>592.31</ele>
        <time>2012-05-13T10:09:18Z</time>
      </trkpt>
      <trkpt lat="46.31877" lon="4.63734">
        <ele>593.75</ele>
        <time>2012-05-13T10:09:32Z</time>
      </trkpt>
      <trkpt lat="46.31868" lon="4.63705">
        <ele>594.71</ele>
        <time>2012-05-13T10:09:39Z</time>
      </trkpt>
      <trkpt lat="46.31841" lon="4.63673">
        <ele>597.12</ele>
        <time>2012-05-13T10:09:54Z</time>
      </trkpt>
      <trkpt lat="46.31816" lon="4.63672">
        <ele>597.6</ele>
        <time>2012-05-13T10:10:03Z</time>
      </trkpt>
      <trkpt lat="46.31812" lon="4.63674">
        <ele>598.08</ele>
        <time>2012-05-13T10:10:05Z</time>
      </trkpt>
      <trkpt lat="46.31771" lon="4.63655">
        <ele>599.04</ele>
        <time>2012-05-13T10:10:16Z</time>
      </trkpt>
      <trkpt lat="46.31751" lon="4.63657">
        <ele>600.48</ele>
        <time>2012-05-13T10:10:24Z</time>
      </trkpt>
      <trkpt lat="46.31724" lon="4.63631">
        <ele>600.96</ele>
        <time>2012-05-13T10:10:27Z</time>
      </trkpt>
      <trkpt lat="46.31711" lon="4.63624">
        <ele>600.48</ele>
        <time>2012-05-13T10:10:31Z</time>
      </trkpt>
      <trkpt lat="46.31672" lon="4.63618">
        <ele>602.88</ele>
        <time>2012-05-13T10:10:48Z</time>
      </trkpt>
      <trkpt lat="46.31647" lon="4.63622">
        <ele>603.85</ele>
        <time>2012-05-13T10:10:59Z</time>
      </trkpt>
      <trkpt lat="46.31606" lon="4.63631">
        <ele>606.73</ele>
        <time>2012-05-13T10:11:16Z</time>
      </trkpt>
      <trkpt lat="46.31603" lon="4.63631">
        <ele>607.21</ele>
        <time>2012-05-13T10:11:17Z</time>
      </trkpt>
      <trkpt lat="46.31602" lon="4.63631">
        <ele>606.25</ele>
        <time>2012-05-13T10:11:18Z</time>
      </trkpt>
      <trkpt lat="46.31587" lon="4.63633">
        <ele>608.17</ele>
        <time>2012-05-13T10:11:24Z</time>
      </trkpt>
      <trkpt lat="46.3154" lon="4.63648">
        <ele>610.57</ele>
        <time>2012-05-13T10:11:43Z</time>
      </trkpt>
      <trkpt lat="46.31491" lon="4.63659">
        <ele>612.98</ele>
        <time>2012-05-13T10:12:03Z</time>
      </trkpt>
      <trkpt lat="46.31481" lon="4.63661">
        <ele>613.46</ele>
        <time>2012-05-13T10:12:08Z</time>
      </trkpt>
      <trkpt lat="46.31469" lon="4.6366">
        <ele>614.9</ele>
        <time>2012-05-13T10:12:14Z</time>
      </trkpt>
      <trkpt lat="46.31457" lon="4.63656">
        <ele>616.34</ele>
        <time>2012-05-13T10:12:21Z</time>
      </trkpt>
      <trkpt lat="46.3143" lon="4.63633">
        <ele>618.75</ele>
        <time>2012-05-13T10:12:38Z</time>
      </trkpt>
      <trkpt lat="46.31405" lon="4.6358">
        <ele>620.67</ele>
        <time>2012-05-13T10:12:54Z</time>
      </trkpt>
      <trkpt lat="46.31369" lon="4.63524">
        <ele>622.59</ele>
        <time>2012-05-13T10:13:13Z</time>
      </trkpt>
      <trkpt lat="46.31332" lon="4.63505">
        <ele>624.99</ele>
        <time>2012-05-13T10:13:30Z</time>
      </trkpt>
      <trkpt lat="46.3132" lon="4.63498">
        <ele>625.96</ele>
        <time>2012-05-13T10:13:36Z</time>
      </trkpt>
      <trkpt lat="46.31317" lon="4.63495">
        <ele>626.44</ele>
        <time>2012-05-13T10:13:38Z</time>
      </trkpt>
      <trkpt lat="46.31304" lon="4.63485">
        <ele>627.4</ele>
        <time>2012-05-13T10:13:45Z</time>
      </trkpt>
      <trkpt lat="46.31276" lon="4.63457">
        <ele>629.8</ele>
        <time>2012-05-13T10:13:59Z</time>
      </trkpt>
      <trkpt lat="46.31261" lon="4.63445">
        <ele>630.28</ele>
        <time>2012-05-13T10:14:06Z</time>
      </trkpt>
      <trkpt lat="46.31232" lon="4.63413">
        <ele>631.24</ele>
        <time>2012-05-13T10:14:18Z</time>
      </trkpt>
      <trkpt lat="46.31201" lon="4.63375">
        <ele>630.28</ele>
        <time>2012-05-13T10:14:31Z</time>
      </trkpt>
      <trkpt lat="46.31188" lon="4.63377">
        <ele>631.24</ele>
        <time>2012-05-13T10:14:36Z</time>
      </trkpt>
      <trkpt lat="46.31177" lon="4.63388">
        <ele>631.24</ele>
        <time>2012-05-13T10:14:41Z</time>
      </trkpt>
      <trkpt lat="46.31133" lon="4.63437">
        <ele>629.32</ele>
        <time>2012-05-13T10:15:00Z</time>
      </trkpt>
      <trkpt lat="46.31102" lon="4.63465">
        <ele>627.4</ele>
        <time>2012-05-13T10:15:08Z</time>
      </trkpt>
      <trkpt lat="46.3109" lon="4.63471">
        <ele>626.44</ele>
        <time>2012-05-13T10:15:11Z</time>
      </trkpt>
      <trkpt lat="46.31071" lon="4.63477">
        <ele>626.44</ele>
        <time>2012-05-13T10:15:16Z</time>
      </trkpt>
      <trkpt lat="46.31031" lon="4.63525">
        <ele>628.36</ele>
        <time>2012-05-13T10:15:31Z</time>
      </trkpt>
      <trkpt lat="46.30987" lon="4.63598">
        <ele>627.88</ele>
        <time>2012-05-13T10:15:48Z</time>
      </trkpt>
      <trkpt lat="46.3094" lon="4.63583">
        <ele>625.96</ele>
        <time>2012-05-13T10:16:04Z</time>
      </trkpt>
      <trkpt lat="46.30922" lon="4.63547">
        <ele>622.59</ele>
        <time>2012-05-13T10:16:14Z</time>
      </trkpt>
      <trkpt lat="46.30915" lon="4.63533">
        <ele>621.63</ele>
        <time>2012-05-13T10:16:17Z</time>
      </trkpt>
      <trkpt lat="46.30908" lon="4.63508">
        <ele>620.19</ele>
        <time>2012-05-13T10:16:21Z</time>
      </trkpt>
      <trkpt lat="46.30906" lon="4.63494">
        <ele>619.23</ele>
        <time>2012-05-13T10:16:23Z</time>
      </trkpt>
      <trkpt lat="46.30904" lon="4.63487">
        <ele>619.23</ele>
        <time>2012-05-13T10:16:24Z</time>
      </trkpt>
      <trkpt lat="46.30885" lon="4.63398">
        <ele>618.26</ele>
        <time>2012-05-13T10:16:39Z</time>
      </trkpt>
      <trkpt lat="46.30873" lon="4.63376">
        <ele>617.3</ele>
        <time>2012-05-13T10:16:43Z</time>
      </trkpt>
      <trkpt lat="46.30849" lon="4.6336">
        <ele>617.78</ele>
        <time>2012-05-13T10:16:49Z</time>
      </trkpt>
      <trkpt lat="46.30793" lon="4.63365">
        <ele>616.34</ele>
        <time>2012-05-13T10:17:05Z</time>
      </trkpt>
      <trkpt lat="46.30788" lon="4.63368">
        <ele>616.34</ele>
        <time>2012-05-13T10:17:07Z</time>
      </trkpt>
      <trkpt lat="46.30768" lon="4.63376">
        <ele>612.98</ele>
        <time>2012-05-13T10:17:13Z</time>
      </trkpt>
      <trkpt lat="46.3075" lon="4.63388">
        <ele>610.09</ele>
        <time>2012-05-13T10:17:16Z</time>
      </trkpt>
      <trkpt lat="46.30726" lon="4.63403">
        <ele>607.69</ele>
        <time>2012-05-13T10:17:20Z</time>
      </trkpt>
      <trkpt lat="46.30707" lon="4.63421">
        <ele>605.77</ele>
        <time>2012-05-13T10:17:24Z</time>
      </trkpt>
      <trkpt lat="46.30692" lon="4.63431">
        <ele>602.88</ele>
        <time>2012-05-13T10:17:27Z</time>
      </trkpt>
      <trkpt lat="46.3067" lon="4.63432">
        <ele>600.96</ele>
        <time>2012-05-13T10:17:31Z</time>
      </trkpt>
      <trkpt lat="46.3066" lon="4.63433">
        <ele>600.48</ele>
        <time>2012-05-13T10:17:41Z</time>
      </trkpt>
      <trkpt lat="46.3066" lon="4.63433">
        <ele>600</ele>
        <time>2012-05-13T10:18:05Z</time>
      </trkpt>
      <trkpt lat="46.30658" lon="4.63433">
        <ele>600</ele>
        <time>2012-05-13T10:18:42Z</time>
      </trkpt>
      <trkpt lat="46.30655" lon="4.63434">
        <ele>599.04</ele>
        <time>2012-05-13T10:19:07Z</time>
      </trkpt>
      <trkpt lat="46.30649" lon="4.63437">
        <ele>599.04</ele>
        <time>2012-05-13T10:19:20Z</time>
      </trkpt>
      <trkpt lat="46.30645" lon="4.6344">
        <ele>599.52</ele>
        <time>2012-05-13T10:19:40Z</time>
      </trkpt>
      <trkpt lat="46.30645" lon="4.6344">
        <ele>602.88</ele>
        <time>2012-05-13T10:19:43Z</time>
      </trkpt>
      <trkpt lat="46.30645" lon="4.63439">
        <ele>599.52</ele>
        <time>2012-05-13T10:19:48Z</time>
      </trkpt>
      <trkpt lat="46.30644" lon="4.6344">
        <ele>600</ele>
        <time>2012-05-13T10:20:12Z</time>
      </trkpt>
      <trkpt lat="46.30643" lon="4.63444">
        <ele>598.56</ele>
        <time>2012-05-13T10:20:45Z</time>
      </trkpt>
      <trkpt lat="46.30637" lon="4.63466">
        <ele>595.19</ele>
        <time>2012-05-13T10:20:52Z</time>
      </trkpt>
      <trkpt lat="46.30635" lon="4.63471">
        <ele>595.19</ele>
        <time>2012-05-13T10:20:53Z</time>
      </trkpt>
      <trkpt lat="46.30611" lon="4.63525">
        <ele>597.6</ele>
        <time>2012-05-13T10:21:04Z</time>
      </trkpt>
      <trkpt lat="46.30605" lon="4.63547">
        <ele>596.64</ele>
        <time>2012-05-13T10:21:08Z</time>
      </trkpt>
      <trkpt lat="46.30606" lon="4.63564">
        <ele>594.23</ele>
        <time>2012-05-13T10:21:11Z</time>
      </trkpt>
      <trkpt lat="46.30607" lon="4.63584">
        <ele>591.35</ele>
        <time>2012-05-13T10:21:14Z</time>
      </trkpt>
      <trkpt lat="46.30604" lon="4.63623">
        <ele>587.02</ele>
        <time>2012-05-13T10:21:18Z</time>
      </trkpt>
      <trkpt lat="46.30603" lon="4.6366">
        <ele>582.22</ele>
        <time>2012-05-13T10:21:22Z</time>
      </trkpt>
      <trkpt lat="46.30604" lon="4.63677">
        <ele>579.33</ele>
        <time>2012-05-13T10:21:24Z</time>
      </trkpt>
      <trkpt lat="46.30603" lon="4.6371">
        <ele>575.01</ele>
        <time>2012-05-13T10:21:28Z</time>
      </trkpt>
      <trkpt lat="46.30603" lon="4.63741">
        <ele>569.24</ele>
        <time>2012-05-13T10:21:32Z</time>
      </trkpt>
      <trkpt lat="46.30603" lon="4.63749">
        <ele>568.28</ele>
        <time>2012-05-13T10:21:33Z</time>
      </trkpt>
      <trkpt lat="46.30601" lon="4.63771">
        <ele>564.91</ele>
        <time>2012-05-13T10:21:36Z</time>
      </trkpt>
      <trkpt lat="46.30596" lon="4.63811">
        <ele>561.07</ele>
        <time>2012-05-13T10:21:41Z</time>
      </trkpt>
      <trkpt lat="46.30597" lon="4.63842">
        <ele>556.26</ele>
        <time>2012-05-13T10:21:45Z</time>
      </trkpt>
      <trkpt lat="46.30597" lon="4.63849">
        <ele>555.78</ele>
        <time>2012-05-13T10:21:46Z</time>
      </trkpt>
      <trkpt lat="46.30591" lon="4.63878">
        <ele>551.45</ele>
        <time>2012-05-13T10:21:50Z</time>
      </trkpt>
      <trkpt lat="46.30589" lon="4.63894">
        <ele>550.49</ele>
        <time>2012-05-13T10:21:52Z</time>
      </trkpt>
      <trkpt lat="46.30584" lon="4.63925">
        <ele>546.17</ele>
        <time>2012-05-13T10:21:56Z</time>
      </trkpt>
      <trkpt lat="46.30578" lon="4.6395">
        <ele>544.72</ele>
        <time>2012-05-13T10:21:59Z</time>
      </trkpt>
      <trkpt lat="46.30574" lon="4.63964">
        <ele>543.28</ele>
        <time>2012-05-13T10:22:01Z</time>
      </trkpt>
      <trkpt lat="46.30552" lon="4.64014">
        <ele>540.4</ele>
        <time>2012-05-13T10:22:08Z</time>
      </trkpt>
      <trkpt lat="46.30531" lon="4.64031">
        <ele>537.03</ele>
        <time>2012-05-13T10:22:12Z</time>
      </trkpt>
      <trkpt lat="46.30511" lon="4.64033">
        <ele>535.11</ele>
        <time>2012-05-13T10:22:16Z</time>
      </trkpt>
      <trkpt lat="46.30483" lon="4.64018">
        <ele>530.79</ele>
        <time>2012-05-13T10:22:22Z</time>
      </trkpt>
      <trkpt lat="46.30479" lon="4.64021">
        <ele>529.82</ele>
        <time>2012-05-13T10:22:25Z</time>
      </trkpt>
      <trkpt lat="46.30479" lon="4.64031">
        <ele>527.9</ele>
        <time>2012-05-13T10:22:28Z</time>
      </trkpt>
      <trkpt lat="46.30476" lon="4.64088">
        <ele>527.9</ele>
        <time>2012-05-13T10:22:39Z</time>
      </trkpt>
      <trkpt lat="46.30485" lon="4.64147">
        <ele>529.82</ele>
        <time>2012-05-13T10:22:52Z</time>
      </trkpt>
      <trkpt lat="46.30486" lon="4.64154">
        <ele>530.79</ele>
        <time>2012-05-13T10:22:55Z</time>
      </trkpt>
      <trkpt lat="46.30484" lon="4.64196">
        <ele>533.67</ele>
        <time>2012-05-13T10:23:06Z</time>
      </trkpt>
      <trkpt lat="46.30482" lon="4.64236">
        <ele>535.11</ele>
        <time>2012-05-13T10:23:19Z</time>
      </trkpt>
      <trkpt lat="46.30481" lon="4.64241">
        <ele>535.59</ele>
        <time>2012-05-13T10:23:21Z</time>
      </trkpt>
      <trkpt lat="46.30481" lon="4.64251">
        <ele>536.07</ele>
        <time>2012-05-13T10:23:25Z</time>
      </trkpt>
      <trkpt lat="46.30481" lon="4.64258">
        <ele>536.55</ele>
        <time>2012-05-13T10:23:28Z</time>
      </trkpt>
      <trkpt lat="46.30482" lon="4.6427">
        <ele>537.51</ele>
        <time>2012-05-13T10:23:32Z</time>
      </trkpt>
      <trkpt lat="46.30488" lon="4.64289">
        <ele>538.96</ele>
        <time>2012-05-13T10:23:39Z</time>
      </trkpt>
      <trkpt lat="46.30503" lon="4.64307">
        <ele>541.36</ele>
        <time>2012-05-13T10:23:54Z</time>
      </trkpt>
      <trkpt lat="46.30524" lon="4.64324">
        <ele>542.8</ele>
        <time>2012-05-13T10:24:09Z</time>
      </trkpt>
      <trkpt lat="46.30534" lon="4.64332">
        <ele>543.76</ele>
        <time>2012-05-13T10:24:14Z</time>
      </trkpt>
      <trkpt lat="46.30543" lon="4.64346">
        <ele>545.69</ele>
        <time>2012-05-13T10:24:22Z</time>
      </trkpt>
      <trkpt lat="46.30547" lon="4.64356">
        <ele>546.17</ele>
        <time>2012-05-13T10:24:27Z</time>
      </trkpt>
      <trkpt lat="46.30549" lon="4.64362">
        <ele>546.65</ele>
        <time>2012-05-13T10:24:30Z</time>
      </trkpt>
      <trkpt lat="46.30559" lon="4.64376">
        <ele>546.65</ele>
        <time>2012-05-13T10:24:36Z</time>
      </trkpt>
      <trkpt lat="46.30584" lon="4.64433">
        <ele>546.65</ele>
        <time>2012-05-13T10:24:52Z</time>
      </trkpt>
      <trkpt lat="46.30596" lon="4.64468">
        <ele>547.13</ele>
        <time>2012-05-13T10:25:00Z</time>
      </trkpt>
      <trkpt lat="46.30598" lon="4.64474">
        <ele>547.13</ele>
        <time>2012-05-13T10:25:02Z</time>
      </trkpt>
      <trkpt lat="46.30605" lon="4.64486">
        <ele>547.13</ele>
        <time>2012-05-13T10:25:05Z</time>
      </trkpt>
      <trkpt lat="46.30614" lon="4.64509">
        <ele>545.69</ele>
        <time>2012-05-13T10:25:10Z</time>
      </trkpt>
      <trkpt lat="46.30626" lon="4.6453">
        <ele>544.72</ele>
        <time>2012-05-13T10:25:14Z</time>
      </trkpt>
      <trkpt lat="46.30643" lon="4.64542">
        <ele>542.8</ele>
        <time>2012-05-13T10:25:17Z</time>
      </trkpt>
      <trkpt lat="46.30656" lon="4.64552">
        <ele>540.88</ele>
        <time>2012-05-13T10:25:19Z</time>
      </trkpt>
      <trkpt lat="46.30688" lon="4.64583">
        <ele>537.99</ele>
        <time>2012-05-13T10:25:24Z</time>
      </trkpt>
      <trkpt lat="46.30692" lon="4.6459">
        <ele>537.51</ele>
        <time>2012-05-13T10:25:25Z</time>
      </trkpt>
      <trkpt lat="46.30713" lon="4.64614">
        <ele>534.63</ele>
        <time>2012-05-13T10:25:30Z</time>
      </trkpt>
      <trkpt lat="46.30725" lon="4.64628">
        <ele>532.23</ele>
        <time>2012-05-13T10:25:34Z</time>
      </trkpt>
      <trkpt lat="46.30741" lon="4.64622">
        <ele>527.42</ele>
        <time>2012-05-13T10:25:39Z</time>
      </trkpt>
      <trkpt lat="46.30744" lon="4.64621">
        <ele>526.94</ele>
        <time>2012-05-13T10:25:40Z</time>
      </trkpt>
      <trkpt lat="46.30758" lon="4.6463">
        <ele>522.13</ele>
        <time>2012-05-13T10:25:44Z</time>
      </trkpt>
      <trkpt lat="46.30763" lon="4.64645">
        <ele>520.69</ele>
        <time>2012-05-13T10:25:46Z</time>
      </trkpt>
      <trkpt lat="46.3076" lon="4.64679">
        <ele>517.33</ele>
        <time>2012-05-13T10:25:50Z</time>
      </trkpt>
      <trkpt lat="46.30758" lon="4.64688">
        <ele>516.85</ele>
        <time>2012-05-13T10:25:51Z</time>
      </trkpt>
      <trkpt lat="46.30754" lon="4.64706">
        <ele>515.4</ele>
        <time>2012-05-13T10:25:53Z</time>
      </trkpt>
      <trkpt lat="46.30735" lon="4.64756">
        <ele>513.96</ele>
        <time>2012-05-13T10:25:59Z</time>
      </trkpt>
      <trkpt lat="46.30722" lon="4.64801">
        <ele>511.08</ele>
        <time>2012-05-13T10:26:05Z</time>
      </trkpt>
      <trkpt lat="46.30718" lon="4.64817">
        <ele>509.16</ele>
        <time>2012-05-13T10:26:07Z</time>
      </trkpt>
      <trkpt lat="46.30707" lon="4.64838">
        <ele>507.71</ele>
        <time>2012-05-13T10:26:10Z</time>
      </trkpt>
      <trkpt lat="46.30702" lon="4.64843">
        <ele>507.71</ele>
        <time>2012-05-13T10:26:11Z</time>
      </trkpt>
      <trkpt lat="46.30678" lon="4.64861">
        <ele>506.27</ele>
        <time>2012-05-13T10:26:16Z</time>
      </trkpt>
      <trkpt lat="46.30668" lon="4.64864">
        <ele>506.75</ele>
        <time>2012-05-13T10:26:18Z</time>
      </trkpt>
      <trkpt lat="46.30637" lon="4.64872">
        <ele>506.27</ele>
        <time>2012-05-13T10:26:24Z</time>
      </trkpt>
      <trkpt lat="46.3063" lon="4.64876">
        <ele>505.31</ele>
        <time>2012-05-13T10:26:25Z</time>
      </trkpt>
      <trkpt lat="46.30603" lon="4.64895">
        <ele>502.91</ele>
        <time>2012-05-13T10:26:29Z</time>
      </trkpt>
      <trkpt lat="46.30593" lon="4.64905">
        <ele>500.98</ele>
        <time>2012-05-13T10:26:31Z</time>
      </trkpt>
      <trkpt lat="46.30584" lon="4.64923">
        <ele>499.54</ele>
        <time>2012-05-13T10:26:33Z</time>
      </trkpt>
      <trkpt lat="46.30572" lon="4.64953">
        <ele>495.22</ele>
        <time>2012-05-13T10:26:36Z</time>
      </trkpt>
      <trkpt lat="46.30553" lon="4.64987">
        <ele>494.74</ele>
        <time>2012-05-13T10:26:40Z</time>
      </trkpt>
      <trkpt lat="46.30545" lon="4.65008">
        <ele>495.22</ele>
        <time>2012-05-13T10:26:43Z</time>
      </trkpt>
      <trkpt lat="46.30549" lon="4.65052">
        <ele>491.85</ele>
        <time>2012-05-13T10:26:47Z</time>
      </trkpt>
      <trkpt lat="46.3055" lon="4.65097">
        <ele>488.97</ele>
        <time>2012-05-13T10:26:51Z</time>
      </trkpt>
      <trkpt lat="46.30549" lon="4.65142">
        <ele>486.08</ele>
        <time>2012-05-13T10:26:55Z</time>
      </trkpt>
      <trkpt lat="46.30549" lon="4.65155">
        <ele>484.64</ele>
        <time>2012-05-13T10:26:56Z</time>
      </trkpt>
      <trkpt lat="46.30548" lon="4.6518">
        <ele>483.68</ele>
        <time>2012-05-13T10:26:58Z</time>
      </trkpt>
      <trkpt lat="46.30551" lon="4.65235">
        <ele>483.68</ele>
        <time>2012-05-13T10:27:03Z</time>
      </trkpt>
      <trkpt lat="46.30551" lon="4.65253">
        <ele>484.16</ele>
        <time>2012-05-13T10:27:05Z</time>
      </trkpt>
      <trkpt lat="46.30555" lon="4.65284">
        <ele>480.8</ele>
        <time>2012-05-13T10:27:11Z</time>
      </trkpt>
      <trkpt lat="46.3056" lon="4.65269">
        <ele>477.43</ele>
        <time>2012-05-13T10:27:15Z</time>
      </trkpt>
      <trkpt lat="46.30583" lon="4.65243">
        <ele>471.66</ele>
        <time>2012-05-13T10:27:20Z</time>
      </trkpt>
      <trkpt lat="46.30592" lon="4.65237">
        <ele>470.7</ele>
        <time>2012-05-13T10:27:22Z</time>
      </trkpt>
      <trkpt lat="46.30595" lon="4.65268">
        <ele>468.78</ele>
        <time>2012-05-13T10:27:32Z</time>
      </trkpt>
      <trkpt lat="46.30593" lon="4.65274">
        <ele>468.3</ele>
        <time>2012-05-13T10:27:34Z</time>
      </trkpt>
      <trkpt lat="46.30588" lon="4.65309">
        <ele>468.78</ele>
        <time>2012-05-13T10:27:41Z</time>
      </trkpt>
      <trkpt lat="46.30576" lon="4.65392">
        <ele>472.14</ele>
        <time>2012-05-13T10:27:56Z</time>
      </trkpt>
      <trkpt lat="46.30556" lon="4.65478">
        <ele>474.55</ele>
        <time>2012-05-13T10:28:13Z</time>
      </trkpt>
      <trkpt lat="46.30553" lon="4.65483">
        <ele>475.03</ele>
        <time>2012-05-13T10:28:14Z</time>
      </trkpt>
      <trkpt lat="46.30534" lon="4.65513">
        <ele>474.07</ele>
        <time>2012-05-13T10:28:20Z</time>
      </trkpt>
      <trkpt lat="46.30522" lon="4.65527">
        <ele>473.59</ele>
        <time>2012-05-13T10:28:23Z</time>
      </trkpt>
      <trkpt lat="46.30504" lon="4.65538">
        <ele>473.59</ele>
        <time>2012-05-13T10:28:27Z</time>
      </trkpt>
      <trkpt lat="46.30478" lon="4.65541">
        <ele>473.59</ele>
        <time>2012-05-13T10:28:32Z</time>
      </trkpt>
      <trkpt lat="46.30409" lon="4.65574">
        <ele>471.66</ele>
        <time>2012-05-13T10:28:45Z</time>
      </trkpt>
      <trkpt lat="46.30404" lon="4.65577">
        <ele>471.18</ele>
        <time>2012-05-13T10:28:46Z</time>
      </trkpt>
      <trkpt lat="46.30399" lon="4.6558">
        <ele>471.18</ele>
        <time>2012-05-13T10:28:47Z</time>
      </trkpt>
      <trkpt lat="46.30389" lon="4.65587">
        <ele>471.18</ele>
        <time>2012-05-13T10:28:49Z</time>
      </trkpt>
      <trkpt lat="46.30385" lon="4.65589">
        <ele>471.66</ele>
        <time>2012-05-13T10:28:50Z</time>
      </trkpt>
      <trkpt lat="46.3038" lon="4.65592">
        <ele>471.66</ele>
        <time>2012-05-13T10:28:51Z</time>
      </trkpt>
      <trkpt lat="46.30372" lon="4.65598">
        <ele>472.14</ele>
        <time>2012-05-13T10:28:53Z</time>
      </trkpt>
      <trkpt lat="46.30368" lon="4.65602">
        <ele>472.63</ele>
        <time>2012-05-13T10:28:54Z</time>
      </trkpt>
      <trkpt lat="46.30364" lon="4.65606">
        <ele>471.66</ele>
        <time>2012-05-13T10:28:55Z</time>
      </trkpt>
      <trkpt lat="46.30361" lon="4.65612">
        <ele>471.66</ele>
        <time>2012-05-13T10:28:56Z</time>
      </trkpt>
      <trkpt lat="46.30358" lon="4.65617">
        <ele>472.14</ele>
        <time>2012-05-13T10:28:57Z</time>
      </trkpt>
      <trkpt lat="46.30355" lon="4.65623">
        <ele>471.66</ele>
        <time>2012-05-13T10:28:58Z</time>
      </trkpt>
      <trkpt lat="46.30352" lon="4.65628">
        <ele>471.66</ele>
        <time>2012-05-13T10:28:59Z</time>
      </trkpt>
      <trkpt lat="46.3035" lon="4.65632">
        <ele>472.14</ele>
        <time>2012-05-13T10:29:00Z</time>
      </trkpt>
      <trkpt lat="46.30348" lon="4.65638">
        <ele>472.14</ele>
        <time>2012-05-13T10:29:01Z</time>
      </trkpt>
      <trkpt lat="46.30343" lon="4.65657">
        <ele>469.74</ele>
        <time>2012-05-13T10:29:05Z</time>
      </trkpt>
      <trkpt lat="46.30339" lon="4.65672">
        <ele>468.3</ele>
        <time>2012-05-13T10:29:10Z</time>
      </trkpt>
      <trkpt lat="46.30329" lon="4.65709">
        <ele>464.93</ele>
        <time>2012-05-13T10:29:19Z</time>
      </trkpt>
      <trkpt lat="46.30328" lon="4.65715">
        <ele>464.45</ele>
        <time>2012-05-13T10:29:20Z</time>
      </trkpt>
      <trkpt lat="46.30328" lon="4.65723">
        <ele>463.49</ele>
        <time>2012-05-13T10:29:21Z</time>
      </trkpt>
      <trkpt lat="46.30327" lon="4.65739">
        <ele>462.53</ele>
        <time>2012-05-13T10:29:23Z</time>
      </trkpt>
      <trkpt lat="46.30328" lon="4.65748">
        <ele>462.05</ele>
        <time>2012-05-13T10:29:24Z</time>
      </trkpt>
      <trkpt lat="46.30331" lon="4.65764">
        <ele>459.65</ele>
        <time>2012-05-13T10:29:26Z</time>
      </trkpt>
      <trkpt lat="46.30332" lon="4.65772">
        <ele>459.65</ele>
        <time>2012-05-13T10:29:27Z</time>
      </trkpt>
      <trkpt lat="46.30333" lon="4.6578">
        <ele>458.69</ele>
        <time>2012-05-13T10:29:28Z</time>
      </trkpt>
      <trkpt lat="46.30338" lon="4.65804">
        <ele>457.24</ele>
        <time>2012-05-13T10:29:31Z</time>
      </trkpt>
      <trkpt lat="46.30339" lon="4.65812">
        <ele>456.76</ele>
        <time>2012-05-13T10:29:32Z</time>
      </trkpt>
      <trkpt lat="46.3034" lon="4.6582">
        <ele>456.76</ele>
        <time>2012-05-13T10:29:33Z</time>
      </trkpt>
      <trkpt lat="46.30341" lon="4.65828">
        <ele>456.28</ele>
        <time>2012-05-13T10:29:34Z</time>
      </trkpt>
      <trkpt lat="46.30341" lon="4.65837">
        <ele>455.32</ele>
        <time>2012-05-13T10:29:35Z</time>
      </trkpt>
      <trkpt lat="46.30342" lon="4.65877">
        <ele>456.28</ele>
        <time>2012-05-13T10:29:40Z</time>
      </trkpt>
      <trkpt lat="46.30343" lon="4.65893">
        <ele>455.32</ele>
        <time>2012-05-13T10:29:42Z</time>
      </trkpt>
      <trkpt lat="46.30343" lon="4.65908">
        <ele>454.84</ele>
        <time>2012-05-13T10:29:44Z</time>
      </trkpt>
      <trkpt lat="46.30338" lon="4.65956">
        <ele>454.84</ele>
        <time>2012-05-13T10:29:51Z</time>
      </trkpt>
      <trkpt lat="46.30342" lon="4.66003">
        <ele>450.52</ele>
        <time>2012-05-13T10:29:57Z</time>
      </trkpt>
      <trkpt lat="46.30345" lon="4.66035">
        <ele>446.67</ele>
        <time>2012-05-13T10:30:01Z</time>
      </trkpt>
      <trkpt lat="46.30348" lon="4.66071">
        <ele>442.82</ele>
        <time>2012-05-13T10:30:05Z</time>
      </trkpt>
      <trkpt lat="46.30352" lon="4.66116">
        <ele>439.46</ele>
        <time>2012-05-13T10:30:09Z</time>
      </trkpt>
      <trkpt lat="46.30354" lon="4.66144">
        <ele>436.58</ele>
        <time>2012-05-13T10:30:12Z</time>
      </trkpt>
      <trkpt lat="46.30355" lon="4.66163">
        <ele>433.69</ele>
        <time>2012-05-13T10:30:14Z</time>
      </trkpt>
      <trkpt lat="46.30352" lon="4.66196">
        <ele>431.77</ele>
        <time>2012-05-13T10:30:18Z</time>
      </trkpt>
      <trkpt lat="46.30349" lon="4.66241">
        <ele>428.89</ele>
        <time>2012-05-13T10:30:24Z</time>
      </trkpt>
      <trkpt lat="46.30366" lon="4.66293">
        <ele>424.56</ele>
        <time>2012-05-13T10:30:29Z</time>
      </trkpt>
      <trkpt lat="46.30373" lon="4.66313">
        <ele>423.12</ele>
        <time>2012-05-13T10:30:31Z</time>
      </trkpt>
      <trkpt lat="46.30392" lon="4.66375">
        <ele>421.19</ele>
        <time>2012-05-13T10:30:37Z</time>
      </trkpt>
      <trkpt lat="46.30408" lon="4.66545">
        <ele>418.31</ele>
        <time>2012-05-13T10:30:55Z</time>
      </trkpt>
      <trkpt lat="46.30383" lon="4.66608">
        <ele>416.39</ele>
        <time>2012-05-13T10:31:02Z</time>
      </trkpt>
      <trkpt lat="46.30365" lon="4.66671">
        <ele>414.47</ele>
        <time>2012-05-13T10:31:10Z</time>
      </trkpt>
      <trkpt lat="46.30363" lon="4.66704">
        <ele>411.1</ele>
        <time>2012-05-13T10:31:15Z</time>
      </trkpt>
      <trkpt lat="46.30363" lon="4.66709">
        <ele>410.62</ele>
        <time>2012-05-13T10:31:16Z</time>
      </trkpt>
      <trkpt lat="46.30366" lon="4.66751">
        <ele>405.81</ele>
        <time>2012-05-13T10:31:22Z</time>
      </trkpt>
      <trkpt lat="46.30373" lon="4.66789">
        <ele>401.97</ele>
        <time>2012-05-13T10:31:27Z</time>
      </trkpt>
      <trkpt lat="46.3038" lon="4.66817">
        <ele>397.16</ele>
        <time>2012-05-13T10:31:31Z</time>
      </trkpt>
      <trkpt lat="46.30387" lon="4.66839">
        <ele>392.36</ele>
        <time>2012-05-13T10:31:34Z</time>
      </trkpt>
      <trkpt lat="46.30399" lon="4.66861">
        <ele>388.51</ele>
        <time>2012-05-13T10:31:37Z</time>
      </trkpt>
      <trkpt lat="46.30409" lon="4.66874">
        <ele>386.59</ele>
        <time>2012-05-13T10:31:39Z</time>
      </trkpt>
      <trkpt lat="46.30415" lon="4.66886">
        <ele>385.15</ele>
        <time>2012-05-13T10:31:41Z</time>
      </trkpt>
      <trkpt lat="46.30406" lon="4.66919">
        <ele>381.3</ele>
        <time>2012-05-13T10:31:47Z</time>
      </trkpt>
      <trkpt lat="46.30412" lon="4.66933">
        <ele>380.34</ele>
        <time>2012-05-13T10:31:51Z</time>
      </trkpt>
      <trkpt lat="46.30433" lon="4.66944">
        <ele>379.38</ele>
        <time>2012-05-13T10:31:57Z</time>
      </trkpt>
      <trkpt lat="46.30469" lon="4.66949">
        <ele>377.94</ele>
        <time>2012-05-13T10:32:05Z</time>
      </trkpt>
      <trkpt lat="46.30473" lon="4.66953">
        <ele>376.97</ele>
        <time>2012-05-13T10:32:07Z</time>
      </trkpt>
      <trkpt lat="46.30487" lon="4.66974">
        <ele>372.65</ele>
        <time>2012-05-13T10:32:11Z</time>
      </trkpt>
      <trkpt lat="46.30491" lon="4.6698">
        <ele>371.21</ele>
        <time>2012-05-13T10:32:12Z</time>
      </trkpt>
      <trkpt lat="46.30499" lon="4.6699">
        <ele>369.28</ele>
        <time>2012-05-13T10:32:14Z</time>
      </trkpt>
      <trkpt lat="46.30514" lon="4.6701">
        <ele>364</ele>
        <time>2012-05-13T10:32:18Z</time>
      </trkpt>
      <trkpt lat="46.30518" lon="4.67015">
        <ele>363.04</ele>
        <time>2012-05-13T10:32:19Z</time>
      </trkpt>
      <trkpt lat="46.30528" lon="4.67028">
        <ele>359.19</ele>
        <time>2012-05-13T10:32:22Z</time>
      </trkpt>
      <trkpt lat="46.30539" lon="4.6705">
        <ele>355.34</ele>
        <time>2012-05-13T10:32:26Z</time>
      </trkpt>
      <trkpt lat="46.30544" lon="4.6706">
        <ele>352.94</ele>
        <time>2012-05-13T10:32:30Z</time>
      </trkpt>
      <trkpt lat="46.30544" lon="4.67061">
        <ele>352.94</ele>
        <time>2012-05-13T10:32:58Z</time>
      </trkpt>
      <trkpt lat="46.30544" lon="4.67061">
        <ele>352.94</ele>
        <time>2012-05-13T10:33:03Z</time>
      </trkpt>
      <trkpt lat="46.30544" lon="4.67062">
        <ele>352.94</ele>
        <time>2012-05-13T10:33:05Z</time>
      </trkpt>
      <trkpt lat="46.30544" lon="4.67074">
        <ele>349.1</ele>
        <time>2012-05-13T10:33:09Z</time>
      </trkpt>
      <trkpt lat="46.30547" lon="4.67084">
        <ele>346.69</ele>
        <time>2012-05-13T10:33:11Z</time>
      </trkpt>
      <trkpt lat="46.3055" lon="4.67095">
        <ele>344.77</ele>
        <time>2012-05-13T10:33:13Z</time>
      </trkpt>
      <trkpt lat="46.30552" lon="4.6711">
        <ele>340.92</ele>
        <time>2012-05-13T10:33:15Z</time>
      </trkpt>
      <trkpt lat="46.30556" lon="4.67147">
        <ele>337.08</ele>
        <time>2012-05-13T10:33:20Z</time>
      </trkpt>
      <trkpt lat="46.30556" lon="4.67189">
        <ele>332.27</ele>
        <time>2012-05-13T10:33:25Z</time>
      </trkpt>
      <trkpt lat="46.30547" lon="4.67244">
        <ele>326.5</ele>
        <time>2012-05-13T10:33:30Z</time>
      </trkpt>
      <trkpt lat="46.30546" lon="4.67253">
        <ele>325.54</ele>
        <time>2012-05-13T10:33:31Z</time>
      </trkpt>
      <trkpt lat="46.30552" lon="4.67286">
        <ele>320.26</ele>
        <time>2012-05-13T10:33:35Z</time>
      </trkpt>
      <trkpt lat="46.30556" lon="4.67292">
        <ele>320.26</ele>
        <time>2012-05-13T10:33:36Z</time>
      </trkpt>
      <trkpt lat="46.30561" lon="4.67298">
        <ele>319.3</ele>
        <time>2012-05-13T10:33:37Z</time>
      </trkpt>
      <trkpt lat="46.30578" lon="4.6732">
        <ele>314.49</ele>
        <time>2012-05-13T10:33:42Z</time>
      </trkpt>
      <trkpt lat="46.30581" lon="4.67344">
        <ele>313.05</ele>
        <time>2012-05-13T10:33:46Z</time>
      </trkpt>
      <trkpt lat="46.30584" lon="4.67363">
        <ele>313.05</ele>
        <time>2012-05-13T10:33:49Z</time>
      </trkpt>
      <trkpt lat="46.30607" lon="4.67401">
        <ele>311.6</ele>
        <time>2012-05-13T10:33:57Z</time>
      </trkpt>
      <trkpt lat="46.30627" lon="4.67423">
        <ele>311.12</ele>
        <time>2012-05-13T10:34:03Z</time>
      </trkpt>
      <trkpt lat="46.30648" lon="4.67438">
        <ele>310.64</ele>
        <time>2012-05-13T10:34:08Z</time>
      </trkpt>
      <trkpt lat="46.3072" lon="4.67491">
        <ele>306.8</ele>
        <time>2012-05-13T10:34:24Z</time>
      </trkpt>
      <trkpt lat="46.30786" lon="4.67572">
        <ele>304.88</ele>
        <time>2012-05-13T10:34:40Z</time>
      </trkpt>
      <trkpt lat="46.30826" lon="4.67612">
        <ele>303.91</ele>
        <time>2012-05-13T10:34:50Z</time>
      </trkpt>
      <trkpt lat="46.30883" lon="4.67671">
        <ele>301.99</ele>
        <time>2012-05-13T10:35:10Z</time>
      </trkpt>
      <trkpt lat="46.30885" lon="4.67717">
        <ele>304.39</ele>
        <time>2012-05-13T10:35:26Z</time>
      </trkpt>
      <trkpt lat="46.30871" lon="4.67775">
        <ele>307.28</ele>
        <time>2012-05-13T10:35:43Z</time>
      </trkpt>
      <trkpt lat="46.30853" lon="4.67841">
        <ele>310.64</ele>
        <time>2012-05-13T10:36:04Z</time>
      </trkpt>
      <trkpt lat="46.3084" lon="4.67899">
        <ele>314.01</ele>
        <time>2012-05-13T10:36:22Z</time>
      </trkpt>
      <trkpt lat="46.3084" lon="4.67903">
        <ele>314.01</ele>
        <time>2012-05-13T10:36:24Z</time>
      </trkpt>
      <trkpt lat="46.3086" lon="4.6794">
        <ele>316.41</ele>
        <time>2012-05-13T10:36:44Z</time>
      </trkpt>
      <trkpt lat="46.30864" lon="4.67952">
        <ele>317.37</ele>
        <time>2012-05-13T10:36:50Z</time>
      </trkpt>
      <trkpt lat="46.30869" lon="4.67961">
        <ele>317.37</ele>
        <time>2012-05-13T10:36:55Z</time>
      </trkpt>
      <trkpt lat="46.30872" lon="4.67968">
        <ele>317.85</ele>
        <time>2012-05-13T10:37:00Z</time>
      </trkpt>
      <trkpt lat="46.30882" lon="4.67987">
        <ele>320.74</ele>
        <time>2012-05-13T10:37:10Z</time>
      </trkpt>
      <trkpt lat="46.30889" lon="4.67997">
        <ele>322.18</ele>
        <time>2012-05-13T10:37:17Z</time>
      </trkpt>
      <trkpt lat="46.30893" lon="4.68005">
        <ele>322.66</ele>
        <time>2012-05-13T10:37:23Z</time>
      </trkpt>
      <trkpt lat="46.30901" lon="4.68015">
        <ele>324.58</ele>
        <time>2012-05-13T10:37:30Z</time>
      </trkpt>
      <trkpt lat="46.30906" lon="4.68025">
        <ele>326.02</ele>
        <time>2012-05-13T10:37:36Z</time>
      </trkpt>
      <trkpt lat="46.30912" lon="4.68035">
        <ele>327.47</ele>
        <time>2012-05-13T10:37:43Z</time>
      </trkpt>
      <trkpt lat="46.30914" lon="4.68039">
        <ele>328.43</ele>
        <time>2012-05-13T10:37:46Z</time>
      </trkpt>
      <trkpt lat="46.30929" lon="4.68068">
        <ele>331.31</ele>
        <time>2012-05-13T10:38:05Z</time>
      </trkpt>
      <trkpt lat="46.3095" lon="4.6811">
        <ele>334.68</ele>
        <time>2012-05-13T10:38:28Z</time>
      </trkpt>
      <trkpt lat="46.3095" lon="4.68115">
        <ele>335.16</ele>
        <time>2012-05-13T10:38:30Z</time>
      </trkpt>
      <trkpt lat="46.30944" lon="4.68126">
        <ele>336.12</ele>
        <time>2012-05-13T10:38:38Z</time>
      </trkpt>
      <trkpt lat="46.30927" lon="4.68163">
        <ele>338.52</ele>
        <time>2012-05-13T10:38:55Z</time>
      </trkpt>
      <trkpt lat="46.30901" lon="4.68189">
        <ele>341.89</ele>
        <time>2012-05-13T10:39:17Z</time>
      </trkpt>
      <trkpt lat="46.30883" lon="4.68192">
        <ele>344.77</ele>
        <time>2012-05-13T10:39:32Z</time>
      </trkpt>
      <trkpt lat="46.30881" lon="4.68192">
        <ele>345.25</ele>
        <time>2012-05-13T10:39:33Z</time>
      </trkpt>
      <trkpt lat="46.30879" lon="4.68193">
        <ele>345.73</ele>
        <time>2012-05-13T10:39:35Z</time>
      </trkpt>
      <trkpt lat="46.30857" lon="4.68196">
        <ele>349.58</ele>
        <time>2012-05-13T10:39:55Z</time>
      </trkpt>
      <trkpt lat="46.30836" lon="4.68198">
        <ele>352.46</ele>
        <time>2012-05-13T10:40:14Z</time>
      </trkpt>
      <trkpt lat="46.30828" lon="4.68198">
        <ele>353.9</ele>
        <time>2012-05-13T10:40:21Z</time>
      </trkpt>
      <trkpt lat="46.30807" lon="4.68208">
        <ele>356.31</ele>
        <time>2012-05-13T10:40:42Z</time>
      </trkpt>
      <trkpt lat="46.30786" lon="4.68215">
        <ele>359.67</ele>
        <time>2012-05-13T10:40:59Z</time>
      </trkpt>
      <trkpt lat="46.30766" lon="4.68226">
        <ele>362.55</ele>
        <time>2012-05-13T10:41:17Z</time>
      </trkpt>
      <trkpt lat="46.30756" lon="4.68232">
        <ele>364</ele>
        <time>2012-05-13T10:41:26Z</time>
      </trkpt>
      <trkpt lat="46.30734" lon="4.68248">
        <ele>367.36</ele>
        <time>2012-05-13T10:41:44Z</time>
      </trkpt>
      <trkpt lat="46.30727" lon="4.68256">
        <ele>368.32</ele>
        <time>2012-05-13T10:41:51Z</time>
      </trkpt>
      <trkpt lat="46.30733" lon="4.68273">
        <ele>371.69</ele>
        <time>2012-05-13T10:42:02Z</time>
      </trkpt>
      <trkpt lat="46.30736" lon="4.68279">
        <ele>372.65</ele>
        <time>2012-05-13T10:42:07Z</time>
      </trkpt>
      <trkpt lat="46.30741" lon="4.68287">
        <ele>374.57</ele>
        <time>2012-05-13T10:42:13Z</time>
      </trkpt>
      <trkpt lat="46.30745" lon="4.68295">
        <ele>375.53</ele>
        <time>2012-05-13T10:42:19Z</time>
      </trkpt>
      <trkpt lat="46.30753" lon="4.6831">
        <ele>377.45</ele>
        <time>2012-05-13T10:42:31Z</time>
      </trkpt>
      <trkpt lat="46.30771" lon="4.68353">
        <ele>377.45</ele>
        <time>2012-05-13T10:42:51Z</time>
      </trkpt>
      <trkpt lat="46.30776" lon="4.68375">
        <ele>374.09</ele>
        <time>2012-05-13T10:42:55Z</time>
      </trkpt>
      <trkpt lat="46.30782" lon="4.68395">
        <ele>371.21</ele>
        <time>2012-05-13T10:42:58Z</time>
      </trkpt>
      <trkpt lat="46.30784" lon="4.68402">
        <ele>369.76</ele>
        <time>2012-05-13T10:42:59Z</time>
      </trkpt>
      <trkpt lat="46.30788" lon="4.68423">
        <ele>367.84</ele>
        <time>2012-05-13T10:43:02Z</time>
      </trkpt>
      <trkpt lat="46.30815" lon="4.68466">
        <ele>369.76</ele>
        <time>2012-05-13T10:43:13Z</time>
      </trkpt>
      <trkpt lat="46.30826" lon="4.68486">
        <ele>370.73</ele>
        <time>2012-05-13T10:43:22Z</time>
      </trkpt>
      <trkpt lat="46.30828" lon="4.68493">
        <ele>371.69</ele>
        <time>2012-05-13T10:43:26Z</time>
      </trkpt>
      <trkpt lat="46.3083" lon="4.685">
        <ele>372.65</ele>
        <time>2012-05-13T10:43:30Z</time>
      </trkpt>
      <trkpt lat="46.3084" lon="4.68528">
        <ele>376.49</ele>
        <time>2012-05-13T10:43:47Z</time>
      </trkpt>
      <trkpt lat="46.30855" lon="4.68567">
        <ele>378.9</ele>
        <time>2012-05-13T10:44:07Z</time>
      </trkpt>
      <trkpt lat="46.30858" lon="4.68597">
        <ele>381.78</ele>
        <time>2012-05-13T10:44:22Z</time>
      </trkpt>
      <trkpt lat="46.30859" lon="4.68645">
        <ele>383.7</ele>
        <time>2012-05-13T10:44:42Z</time>
      </trkpt>
      <trkpt lat="46.30881" lon="4.68679">
        <ele>380.34</ele>
        <time>2012-05-13T10:44:51Z</time>
      </trkpt>
      <trkpt lat="46.30951" lon="4.68738">
        <ele>378.9</ele>
        <time>2012-05-13T10:45:11Z</time>
      </trkpt>
      <trkpt lat="46.30954" lon="4.68742">
        <ele>378.9</ele>
        <time>2012-05-13T10:45:12Z</time>
      </trkpt>
      <trkpt lat="46.30975" lon="4.68783">
        <ele>375.53</ele>
        <time>2012-05-13T10:45:19Z</time>
      </trkpt>
      <trkpt lat="46.30997" lon="4.68847">
        <ele>372.17</ele>
        <time>2012-05-13T10:45:27Z</time>
      </trkpt>
      <trkpt lat="46.31005" lon="4.68882">
        <ele>372.17</ele>
        <time>2012-05-13T10:45:31Z</time>
      </trkpt>
      <trkpt lat="46.31036" lon="4.68909">
        <ele>371.21</ele>
        <time>2012-05-13T10:45:39Z</time>
      </trkpt>
      <trkpt lat="46.3106" lon="4.68909">
        <ele>370.73</ele>
        <time>2012-05-13T10:45:44Z</time>
      </trkpt>
      <trkpt lat="46.3107" lon="4.68906">
        <ele>371.21</ele>
        <time>2012-05-13T10:45:46Z</time>
      </trkpt>
      <trkpt lat="46.31105" lon="4.68886">
        <ele>369.76</ele>
        <time>2012-05-13T10:45:55Z</time>
      </trkpt>
      <trkpt lat="46.31127" lon="4.68881">
        <ele>368.8</ele>
        <time>2012-05-13T10:46:00Z</time>
      </trkpt>
      <trkpt lat="46.31136" lon="4.68882">
        <ele>369.28</ele>
        <time>2012-05-13T10:46:02Z</time>
      </trkpt>
      <trkpt lat="46.31149" lon="4.68883">
        <ele>369.28</ele>
        <time>2012-05-13T10:46:05Z</time>
      </trkpt>
      <trkpt lat="46.31168" lon="4.6889">
        <ele>368.32</ele>
        <time>2012-05-13T10:46:09Z</time>
      </trkpt>
      <trkpt lat="46.31179" lon="4.68896">
        <ele>369.28</ele>
        <time>2012-05-13T10:46:12Z</time>
      </trkpt>
      <trkpt lat="46.31257" lon="4.6891">
        <ele>371.69</ele>
        <time>2012-05-13T10:46:33Z</time>
      </trkpt>
      <trkpt lat="46.313" lon="4.68975">
        <ele>371.21</ele>
        <time>2012-05-13T10:46:50Z</time>
      </trkpt>
      <trkpt lat="46.31354" lon="4.69051">
        <ele>374.09</ele>
        <time>2012-05-13T10:47:10Z</time>
      </trkpt>
      <trkpt lat="46.31396" lon="4.69085">
        <ele>376.97</ele>
        <time>2012-05-13T10:47:27Z</time>
      </trkpt>
      <trkpt lat="46.31424" lon="4.69125">
        <ele>380.34</ele>
        <time>2012-05-13T10:47:47Z</time>
      </trkpt>
      <trkpt lat="46.31442" lon="4.6915">
        <ele>382.74</ele>
        <time>2012-05-13T10:48:04Z</time>
      </trkpt>
      <trkpt lat="46.31464" lon="4.69169">
        <ele>386.59</ele>
        <time>2012-05-13T10:48:23Z</time>
      </trkpt>
      <trkpt lat="46.31474" lon="4.69177">
        <ele>387.55</ele>
        <time>2012-05-13T10:48:31Z</time>
      </trkpt>
      <trkpt lat="46.31479" lon="4.69181">
        <ele>387.55</ele>
        <time>2012-05-13T10:48:35Z</time>
      </trkpt>
      <trkpt lat="46.31503" lon="4.69187">
        <ele>390.91</ele>
        <time>2012-05-13T10:48:51Z</time>
      </trkpt>
      <trkpt lat="46.31539" lon="4.69208">
        <ele>393.8</ele>
        <time>2012-05-13T10:49:13Z</time>
      </trkpt>
      <trkpt lat="46.31553" lon="4.69247">
        <ele>396.68</ele>
        <time>2012-05-13T10:49:33Z</time>
      </trkpt>
      <trkpt lat="46.31554" lon="4.69255">
        <ele>398.12</ele>
        <time>2012-05-13T10:49:37Z</time>
      </trkpt>
      <trkpt lat="46.31553" lon="4.69267">
        <ele>399.57</ele>
        <time>2012-05-13T10:49:43Z</time>
      </trkpt>
      <trkpt lat="46.31553" lon="4.69274">
        <ele>399.57</ele>
        <time>2012-05-13T10:49:47Z</time>
      </trkpt>
      <trkpt lat="46.31538" lon="4.69315">
        <ele>402.93</ele>
        <time>2012-05-13T10:50:08Z</time>
      </trkpt>
      <trkpt lat="46.31527" lon="4.69342">
        <ele>406.77</ele>
        <time>2012-05-13T10:50:21Z</time>
      </trkpt>
      <trkpt lat="46.31522" lon="4.69396">
        <ele>409.18</ele>
        <time>2012-05-13T10:50:44Z</time>
      </trkpt>
      <trkpt lat="46.31549" lon="4.69448">
        <ele>411.1</ele>
        <time>2012-05-13T10:51:09Z</time>
      </trkpt>
      <trkpt lat="46.31571" lon="4.69475">
        <ele>414.47</ele>
        <time>2012-05-13T10:51:26Z</time>
      </trkpt>
      <trkpt lat="46.31587" lon="4.69494">
        <ele>417.35</ele>
        <time>2012-05-13T10:51:40Z</time>
      </trkpt>
      <trkpt lat="46.31607" lon="4.69513">
        <ele>420.71</ele>
        <time>2012-05-13T10:51:55Z</time>
      </trkpt>
      <trkpt lat="46.31627" lon="4.69533">
        <ele>423.6</ele>
        <time>2012-05-13T10:52:11Z</time>
      </trkpt>
      <trkpt lat="46.3163" lon="4.69538">
        <ele>424.08</ele>
        <time>2012-05-13T10:52:14Z</time>
      </trkpt>
      <trkpt lat="46.31653" lon="4.6957">
        <ele>427.44</ele>
        <time>2012-05-13T10:52:35Z</time>
      </trkpt>
      <trkpt lat="46.3167" lon="4.69591">
        <ele>430.33</ele>
        <time>2012-05-13T10:52:49Z</time>
      </trkpt>
      <trkpt lat="46.31704" lon="4.69622">
        <ele>432.73</ele>
        <time>2012-05-13T10:53:11Z</time>
      </trkpt>
      <trkpt lat="46.31755" lon="4.69652">
        <ele>435.13</ele>
        <time>2012-05-13T10:53:36Z</time>
      </trkpt>
      <trkpt lat="46.31793" lon="4.6967">
        <ele>435.61</ele>
        <time>2012-05-13T10:53:53Z</time>
      </trkpt>
      <trkpt lat="46.31827" lon="4.69696">
        <ele>438.98</ele>
        <time>2012-05-13T10:54:11Z</time>
      </trkpt>
      <trkpt lat="46.31851" lon="4.6973">
        <ele>441.38</ele>
        <time>2012-05-13T10:54:30Z</time>
      </trkpt>
      <trkpt lat="46.31869" lon="4.69776">
        <ele>444.75</ele>
        <time>2012-05-13T10:54:51Z</time>
      </trkpt>
      <trkpt lat="46.31874" lon="4.69802">
        <ele>446.19</ele>
        <time>2012-05-13T10:55:01Z</time>
      </trkpt>
      <trkpt lat="46.31876" lon="4.69819">
        <ele>446.67</ele>
        <time>2012-05-13T10:55:08Z</time>
      </trkpt>
      <trkpt lat="46.31877" lon="4.69828">
        <ele>447.15</ele>
        <time>2012-05-13T10:55:12Z</time>
      </trkpt>
      <trkpt lat="46.31878" lon="4.69877">
        <ele>449.55</ele>
        <time>2012-05-13T10:55:31Z</time>
      </trkpt>
      <trkpt lat="46.31878" lon="4.69881">
        <ele>449.55</ele>
        <time>2012-05-13T10:55:33Z</time>
      </trkpt>
      <trkpt lat="46.3188" lon="4.69897">
        <ele>451</ele>
        <time>2012-05-13T10:55:41Z</time>
      </trkpt>
      <trkpt lat="46.31879" lon="4.69908">
        <ele>451.96</ele>
        <time>2012-05-13T10:55:46Z</time>
      </trkpt>
      <trkpt lat="46.31881" lon="4.69921">
        <ele>453.4</ele>
        <time>2012-05-13T10:55:52Z</time>
      </trkpt>
      <trkpt lat="46.31881" lon="4.69925">
        <ele>453.88</ele>
        <time>2012-05-13T10:55:54Z</time>
      </trkpt>
      <trkpt lat="46.31887" lon="4.69955">
        <ele>457.24</ele>
        <time>2012-05-13T10:56:11Z</time>
      </trkpt>
      <trkpt lat="46.31887" lon="4.69957">
        <ele>457.24</ele>
        <time>2012-05-13T10:56:12Z</time>
      </trkpt>
      <trkpt lat="46.3189" lon="4.69972">
        <ele>458.69</ele>
        <time>2012-05-13T10:56:20Z</time>
      </trkpt>
      <trkpt lat="46.31892" lon="4.69987">
        <ele>459.65</ele>
        <time>2012-05-13T10:56:29Z</time>
      </trkpt>
      <trkpt lat="46.31893" lon="4.69994">
        <ele>460.61</ele>
        <time>2012-05-13T10:56:33Z</time>
      </trkpt>
      <trkpt lat="46.31905" lon="4.70031">
        <ele>462.53</ele>
        <time>2012-05-13T10:56:54Z</time>
      </trkpt>
      <trkpt lat="46.31908" lon="4.70045">
        <ele>463.97</ele>
        <time>2012-05-13T10:57:02Z</time>
      </trkpt>
      <trkpt lat="46.31916" lon="4.70065">
        <ele>464.45</ele>
        <time>2012-05-13T10:57:11Z</time>
      </trkpt>
      <trkpt lat="46.31919" lon="4.70073">
        <ele>464.93</ele>
        <time>2012-05-13T10:57:15Z</time>
      </trkpt>
      <trkpt lat="46.31923" lon="4.70081">
        <ele>465.42</ele>
        <time>2012-05-13T10:57:19Z</time>
      </trkpt>
      <trkpt lat="46.31926" lon="4.70092">
        <ele>465.9</ele>
        <time>2012-05-13T10:57:24Z</time>
      </trkpt>
      <trkpt lat="46.31929" lon="4.70115">
        <ele>467.82</ele>
        <time>2012-05-13T10:57:34Z</time>
      </trkpt>
      <trkpt lat="46.31931" lon="4.7013">
        <ele>469.26</ele>
        <time>2012-05-13T10:57:42Z</time>
      </trkpt>
      <trkpt lat="46.31931" lon="4.70136">
        <ele>469.26</ele>
        <time>2012-05-13T10:57:45Z</time>
      </trkpt>
      <trkpt lat="46.31932" lon="4.70149">
        <ele>471.18</ele>
        <time>2012-05-13T10:57:54Z</time>
      </trkpt>
      <trkpt lat="46.31933" lon="4.70153">
        <ele>471.66</ele>
        <time>2012-05-13T10:57:56Z</time>
      </trkpt>
      <trkpt lat="46.31936" lon="4.70167">
        <ele>473.11</ele>
        <time>2012-05-13T10:58:03Z</time>
      </trkpt>
      <trkpt lat="46.31939" lon="4.70197">
        <ele>475.99</ele>
        <time>2012-05-13T10:58:21Z</time>
      </trkpt>
      <trkpt lat="46.31936" lon="4.70224">
        <ele>478.87</ele>
        <time>2012-05-13T10:58:35Z</time>
      </trkpt>
      <trkpt lat="46.31932" lon="4.70234">
        <ele>480.32</ele>
        <time>2012-05-13T10:58:42Z</time>
      </trkpt>
      <trkpt lat="46.31926" lon="4.70241">
        <ele>480.8</ele>
        <time>2012-05-13T10:58:47Z</time>
      </trkpt>
      <trkpt lat="46.31923" lon="4.70244">
        <ele>481.76</ele>
        <time>2012-05-13T10:58:50Z</time>
      </trkpt>
      <trkpt lat="46.31917" lon="4.7025">
        <ele>482.72</ele>
        <time>2012-05-13T10:58:54Z</time>
      </trkpt>
      <trkpt lat="46.3191" lon="4.70255">
        <ele>481.76</ele>
        <time>2012-05-13T10:58:58Z</time>
      </trkpt>
      <trkpt lat="46.31902" lon="4.70258">
        <ele>482.72</ele>
        <time>2012-05-13T10:59:17Z</time>
      </trkpt>
      <trkpt lat="46.31901" lon="4.70258">
        <ele>482.72</ele>
        <time>2012-05-13T11:00:01Z</time>
      </trkpt>
      <trkpt lat="46.31901" lon="4.70258">
        <ele>482.72</ele>
        <time>2012-05-13T11:00:46Z</time>
      </trkpt>
      <trkpt lat="46.31902" lon="4.70258">
        <ele>482.72</ele>
        <time>2012-05-13T11:01:25Z</time>
      </trkpt>
      <trkpt lat="46.31901" lon="4.70258">
        <ele>483.2</ele>
        <time>2012-05-13T11:01:52Z</time>
      </trkpt>
      <trkpt lat="46.31901" lon="4.70258">
        <ele>482.72</ele>
        <time>2012-05-13T11:02:26Z</time>
      </trkpt>
      <trkpt lat="46.31901" lon="4.70258">
        <ele>483.2</ele>
        <time>2012-05-13T11:02:58Z</time>
      </trkpt>
      <trkpt lat="46.31901" lon="4.70258">
        <ele>483.68</ele>
        <time>2012-05-13T11:03:30Z</time>
      </trkpt>
      <trkpt lat="46.31901" lon="4.70258">
        <ele>483.68</ele>
        <time>2012-05-13T11:04:07Z</time>
      </trkpt>
      <trkpt lat="46.31901" lon="4.70257">
        <ele>483.2</ele>
        <time>2012-05-13T11:04:40Z</time>
      </trkpt>
      <trkpt lat="46.31901" lon="4.70258">
        <ele>483.2</ele>
        <time>2012-05-13T11:05:08Z</time>
      </trkpt>
      <trkpt lat="46.31901" lon="4.70258">
        <ele>482.24</ele>
        <time>2012-05-13T11:05:12Z</time>
      </trkpt>
      <trkpt lat="46.31902" lon="4.70266">
        <ele>483.2</ele>
        <time>2012-05-13T11:05:16Z</time>
      </trkpt>
      <trkpt lat="46.31908" lon="4.70275">
        <ele>484.16</ele>
        <time>2012-05-13T11:05:26Z</time>
      </trkpt>
      <trkpt lat="46.31914" lon="4.70285">
        <ele>483.2</ele>
        <time>2012-05-13T11:05:35Z</time>
      </trkpt>
      <trkpt lat="46.31921" lon="4.70287">
        <ele>483.68</ele>
        <time>2012-05-13T11:05:39Z</time>
      </trkpt>
      <trkpt lat="46.31945" lon="4.70292">
        <ele>480.8</ele>
        <time>2012-05-13T11:05:51Z</time>
      </trkpt>
      <trkpt lat="46.31966" lon="4.70293">
        <ele>476.95</ele>
        <time>2012-05-13T11:06:01Z</time>
      </trkpt>
      <trkpt lat="46.31968" lon="4.70293">
        <ele>476.95</ele>
        <time>2012-05-13T11:06:02Z</time>
      </trkpt>
      <trkpt lat="46.31974" lon="4.70294">
        <ele>475.51</ele>
        <time>2012-05-13T11:06:05Z</time>
      </trkpt>
      <trkpt lat="46.31982" lon="4.70295">
        <ele>474.55</ele>
        <time>2012-05-13T11:06:09Z</time>
      </trkpt>
      <trkpt lat="46.31996" lon="4.70297">
        <ele>472.14</ele>
        <time>2012-05-13T11:06:18Z</time>
      </trkpt>
      <trkpt lat="46.32001" lon="4.70304">
        <ele>470.7</ele>
        <time>2012-05-13T11:06:22Z</time>
      </trkpt>
      <trkpt lat="46.32015" lon="4.70314">
        <ele>468.3</ele>
        <time>2012-05-13T11:06:30Z</time>
      </trkpt>
      <trkpt lat="46.32026" lon="4.70318">
        <ele>465.42</ele>
        <time>2012-05-13T11:06:35Z</time>
      </trkpt>
      <trkpt lat="46.3205" lon="4.70334">
        <ele>463.01</ele>
        <time>2012-05-13T11:06:43Z</time>
      </trkpt>
      <trkpt lat="46.32068" lon="4.70335">
        <ele>458.69</ele>
        <time>2012-05-13T11:06:49Z</time>
      </trkpt>
      <trkpt lat="46.32071" lon="4.70336">
        <ele>457.72</ele>
        <time>2012-05-13T11:06:50Z</time>
      </trkpt>
      <trkpt lat="46.32083" lon="4.70339">
        <ele>455.32</ele>
        <time>2012-05-13T11:06:54Z</time>
      </trkpt>
      <trkpt lat="46.32095" lon="4.70344">
        <ele>452.44</ele>
        <time>2012-05-13T11:07:11Z</time>
      </trkpt>
      <trkpt lat="46.32095" lon="4.70344">
        <ele>451</ele>
        <time>2012-05-13T11:07:13Z</time>
      </trkpt>
      <trkpt lat="46.32104" lon="4.70345">
        <ele>449.55</ele>
        <time>2012-05-13T11:07:16Z</time>
      </trkpt>
      <trkpt lat="46.32135" lon="4.7036">
        <ele>449.55</ele>
        <time>2012-05-13T11:07:31Z</time>
      </trkpt>
      <trkpt lat="46.3214" lon="4.70362">
        <ele>448.11</ele>
        <time>2012-05-13T11:07:44Z</time>
      </trkpt>
      <trkpt lat="46.32144" lon="4.70363">
        <ele>447.15</ele>
        <time>2012-05-13T11:07:47Z</time>
      </trkpt>
      <trkpt lat="46.32155" lon="4.70368">
        <ele>443.79</ele>
        <time>2012-05-13T11:07:53Z</time>
      </trkpt>
      <trkpt lat="46.32162" lon="4.70372">
        <ele>443.31</ele>
        <time>2012-05-13T11:07:55Z</time>
      </trkpt>
      <trkpt lat="46.32173" lon="4.70378">
        <ele>442.34</ele>
        <time>2012-05-13T11:08:00Z</time>
      </trkpt>
      <trkpt lat="46.32184" lon="4.70387">
        <ele>440.9</ele>
        <time>2012-05-13T11:08:08Z</time>
      </trkpt>
      <trkpt lat="46.32196" lon="4.70396">
        <ele>436.58</ele>
        <time>2012-05-13T11:08:13Z</time>
      </trkpt>
      <trkpt lat="46.32212" lon="4.70407">
        <ele>432.73</ele>
        <time>2012-05-13T11:08:18Z</time>
      </trkpt>
      <trkpt lat="46.32215" lon="4.70409">
        <ele>431.29</ele>
        <time>2012-05-13T11:08:19Z</time>
      </trkpt>
      <trkpt lat="46.32236" lon="4.70418">
        <ele>426.96</ele>
        <time>2012-05-13T11:08:25Z</time>
      </trkpt>
      <trkpt lat="46.32252" lon="4.70424">
        <ele>426</ele>
        <time>2012-05-13T11:08:29Z</time>
      </trkpt>
      <trkpt lat="46.32267" lon="4.70436">
        <ele>423.12</ele>
        <time>2012-05-13T11:08:34Z</time>
      </trkpt>
      <trkpt lat="46.32276" lon="4.70441">
        <ele>421.19</ele>
        <time>2012-05-13T11:08:37Z</time>
      </trkpt>
      <trkpt lat="46.32297" lon="4.70451">
        <ele>417.83</ele>
        <time>2012-05-13T11:08:46Z</time>
      </trkpt>
      <trkpt lat="46.32297" lon="4.70451">
        <ele>416.87</ele>
        <time>2012-05-13T11:08:47Z</time>
      </trkpt>
      <trkpt lat="46.32325" lon="4.70472">
        <ele>413.5</ele>
        <time>2012-05-13T11:08:55Z</time>
      </trkpt>
      <trkpt lat="46.32348" lon="4.7048">
        <ele>408.22</ele>
        <time>2012-05-13T11:09:02Z</time>
      </trkpt>
      <trkpt lat="46.32356" lon="4.70481">
        <ele>406.77</ele>
        <time>2012-05-13T11:09:04Z</time>
      </trkpt>
      <trkpt lat="46.32363" lon="4.70488">
        <ele>404.85</ele>
        <time>2012-05-13T11:09:08Z</time>
      </trkpt>
      <trkpt lat="46.32373" lon="4.70494">
        <ele>403.41</ele>
        <time>2012-05-13T11:09:12Z</time>
      </trkpt>
      <trkpt lat="46.32382" lon="4.70494">
        <ele>402.93</ele>
        <time>2012-05-13T11:09:15Z</time>
      </trkpt>
      <trkpt lat="46.32372" lon="4.70509">
        <ele>401.49</ele>
        <time>2012-05-13T11:09:23Z</time>
      </trkpt>
      <trkpt lat="46.32366" lon="4.70513">
        <ele>400.53</ele>
        <time>2012-05-13T11:09:25Z</time>
      </trkpt>
      <trkpt lat="46.32348" lon="4.7052">
        <ele>399.08</ele>
        <time>2012-05-13T11:09:29Z</time>
      </trkpt>
      <trkpt lat="46.32305" lon="4.70521">
        <ele>399.57</ele>
        <time>2012-05-13T11:09:43Z</time>
      </trkpt>
      <trkpt lat="46.3229" lon="4.70528">
        <ele>398.12</ele>
        <time>2012-05-13T11:09:48Z</time>
      </trkpt>
      <trkpt lat="46.32287" lon="4.7053">
        <ele>398.6</ele>
        <time>2012-05-13T11:09:49Z</time>
      </trkpt>
      <trkpt lat="46.32236" lon="4.70556">
        <ele>395.72</ele>
        <time>2012-05-13T11:10:04Z</time>
      </trkpt>
      <trkpt lat="46.32207" lon="4.70573">
        <ele>393.32</ele>
        <time>2012-05-13T11:10:14Z</time>
      </trkpt>
      <trkpt lat="46.32168" lon="4.70597">
        <ele>394.28</ele>
        <time>2012-05-13T11:10:31Z</time>
      </trkpt>
      <trkpt lat="46.32146" lon="4.70609">
        <ele>395.24</ele>
        <time>2012-05-13T11:10:41Z</time>
      </trkpt>
      <trkpt lat="46.32138" lon="4.70618">
        <ele>396.2</ele>
        <time>2012-05-13T11:10:45Z</time>
      </trkpt>
      <trkpt lat="46.3209" lon="4.70667">
        <ele>396.68</ele>
        <time>2012-05-13T11:11:02Z</time>
      </trkpt>
      <trkpt lat="46.32052" lon="4.70704">
        <ele>396.2</ele>
        <time>2012-05-13T11:11:14Z</time>
      </trkpt>
      <trkpt lat="46.31983" lon="4.70771">
        <ele>396.68</ele>
        <time>2012-05-13T11:11:31Z</time>
      </trkpt>
      <trkpt lat="46.31937" lon="4.70801">
        <ele>398.12</ele>
        <time>2012-05-13T11:11:42Z</time>
      </trkpt>
      <trkpt lat="46.31917" lon="4.70806">
        <ele>400.05</ele>
        <time>2012-05-13T11:11:47Z</time>
      </trkpt>
      <trkpt lat="46.3186" lon="4.70825">
        <ele>400.53</ele>
        <time>2012-05-13T11:12:02Z</time>
      </trkpt>
      <trkpt lat="46.31747" lon="4.7083">
        <ele>397.64</ele>
        <time>2012-05-13T11:12:25Z</time>
      </trkpt>
      <trkpt lat="46.31618" lon="4.70799">
        <ele>395.24</ele>
        <time>2012-05-13T11:12:47Z</time>
      </trkpt>
      <trkpt lat="46.31586" lon="4.70791">
        <ele>395.24</ele>
        <time>2012-05-13T11:12:53Z</time>
      </trkpt>
      <trkpt lat="46.31563" lon="4.70779">
        <ele>397.64</ele>
        <time>2012-05-13T11:13:01Z</time>
      </trkpt>
      <trkpt lat="46.31578" lon="4.70722">
        <ele>400.53</ele>
        <time>2012-05-13T11:13:23Z</time>
      </trkpt>
      <trkpt lat="46.3158" lon="4.70715">
        <ele>401.97</ele>
        <time>2012-05-13T11:13:26Z</time>
      </trkpt>
      <trkpt lat="46.31584" lon="4.70686">
        <ele>405.33</ele>
        <time>2012-05-13T11:13:38Z</time>
      </trkpt>
      <trkpt lat="46.31573" lon="4.7066">
        <ele>408.22</ele>
        <time>2012-05-13T11:13:51Z</time>
      </trkpt>
      <trkpt lat="46.31557" lon="4.70638">
        <ele>411.1</ele>
        <time>2012-05-13T11:14:06Z</time>
      </trkpt>
      <trkpt lat="46.31554" lon="4.70603">
        <ele>414.47</ele>
        <time>2012-05-13T11:14:23Z</time>
      </trkpt>
      <trkpt lat="46.31554" lon="4.70601">
        <ele>414.47</ele>
        <time>2012-05-13T11:14:24Z</time>
      </trkpt>
      <trkpt lat="46.31576" lon="4.7057">
        <ele>416.87</ele>
        <time>2012-05-13T11:14:45Z</time>
      </trkpt>
      <trkpt lat="46.31584" lon="4.70539">
        <ele>420.23</ele>
        <time>2012-05-13T11:15:00Z</time>
      </trkpt>
      <trkpt lat="46.31579" lon="4.70526">
        <ele>420.71</ele>
        <time>2012-05-13T11:15:07Z</time>
      </trkpt>
      <trkpt lat="46.31572" lon="4.70519">
        <ele>422.16</ele>
        <time>2012-05-13T11:15:13Z</time>
      </trkpt>
      <trkpt lat="46.31548" lon="4.70511">
        <ele>425.04</ele>
        <time>2012-05-13T11:15:29Z</time>
      </trkpt>
      <trkpt lat="46.31522" lon="4.70504">
        <ele>428.4</ele>
        <time>2012-05-13T11:15:46Z</time>
      </trkpt>
      <trkpt lat="46.31517" lon="4.70502">
        <ele>428.89</ele>
        <time>2012-05-13T11:15:50Z</time>
      </trkpt>
      <trkpt lat="46.31498" lon="4.70485">
        <ele>432.25</ele>
        <time>2012-05-13T11:16:05Z</time>
      </trkpt>
      <trkpt lat="46.3149" lon="4.70474">
        <ele>434.17</ele>
        <time>2012-05-13T11:16:12Z</time>
      </trkpt>
      <trkpt lat="46.31481" lon="4.70458">
        <ele>436.1</ele>
        <time>2012-05-13T11:16:22Z</time>
      </trkpt>
      <trkpt lat="46.31477" lon="4.70454">
        <ele>437.06</ele>
        <time>2012-05-13T11:16:26Z</time>
      </trkpt>
      <trkpt lat="46.31461" lon="4.7042">
        <ele>440.42</ele>
        <time>2012-05-13T11:16:47Z</time>
      </trkpt>
      <trkpt lat="46.31453" lon="4.70396">
        <ele>443.31</ele>
        <time>2012-05-13T11:17:02Z</time>
      </trkpt>
      <trkpt lat="46.31448" lon="4.70372">
        <ele>447.15</ele>
        <time>2012-05-13T11:17:18Z</time>
      </trkpt>
      <trkpt lat="46.31444" lon="4.70348">
        <ele>450.03</ele>
        <time>2012-05-13T11:17:34Z</time>
      </trkpt>
      <trkpt lat="46.31443" lon="4.70345">
        <ele>451</ele>
        <time>2012-05-13T11:17:36Z</time>
      </trkpt>
      <trkpt lat="46.31438" lon="4.7031">
        <ele>452.92</ele>
        <time>2012-05-13T11:17:56Z</time>
      </trkpt>
      <trkpt lat="46.31431" lon="4.70263">
        <ele>454.84</ele>
        <time>2012-05-13T11:18:17Z</time>
      </trkpt>
      <trkpt lat="46.31428" lon="4.70252">
        <ele>455.32</ele>
        <time>2012-05-13T11:18:22Z</time>
      </trkpt>
      <trkpt lat="46.31421" lon="4.7023">
        <ele>457.24</ele>
        <time>2012-05-13T11:18:33Z</time>
      </trkpt>
      <trkpt lat="46.31399" lon="4.702">
        <ele>460.61</ele>
        <time>2012-05-13T11:18:53Z</time>
      </trkpt>
      <trkpt lat="46.31384" lon="4.70184">
        <ele>463.01</ele>
        <time>2012-05-13T11:19:08Z</time>
      </trkpt>
      <trkpt lat="46.31368" lon="4.70169">
        <ele>466.38</ele>
        <time>2012-05-13T11:19:22Z</time>
      </trkpt>
      <trkpt lat="46.31356" lon="4.70156">
        <ele>468.3</ele>
        <time>2012-05-13T11:19:33Z</time>
      </trkpt>
      <trkpt lat="46.31338" lon="4.70141">
        <ele>471.18</ele>
        <time>2012-05-13T11:19:47Z</time>
      </trkpt>
      <trkpt lat="46.31335" lon="4.70137">
        <ele>472.14</ele>
        <time>2012-05-13T11:19:50Z</time>
      </trkpt>
      <trkpt lat="46.31327" lon="4.70126">
        <ele>474.07</ele>
        <time>2012-05-13T11:19:58Z</time>
      </trkpt>
      <trkpt lat="46.31306" lon="4.70115">
        <ele>477.43</ele>
        <time>2012-05-13T11:20:16Z</time>
      </trkpt>
      <trkpt lat="46.31291" lon="4.70108">
        <ele>478.87</ele>
        <time>2012-05-13T11:20:28Z</time>
      </trkpt>
      <trkpt lat="46.31289" lon="4.70105">
        <ele>479.84</ele>
        <time>2012-05-13T11:20:30Z</time>
      </trkpt>
      <trkpt lat="46.31263" lon="4.70089">
        <ele>481.76</ele>
        <time>2012-05-13T11:20:49Z</time>
      </trkpt>
      <trkpt lat="46.31255" lon="4.70083">
        <ele>482.72</ele>
        <time>2012-05-13T11:20:55Z</time>
      </trkpt>
      <trkpt lat="46.31252" lon="4.70082">
        <ele>483.2</ele>
        <time>2012-05-13T11:20:57Z</time>
      </trkpt>
      <trkpt lat="46.31248" lon="4.70079">
        <ele>482.24</ele>
        <time>2012-05-13T11:21:13Z</time>
      </trkpt>
      <trkpt lat="46.31248" lon="4.7008">
        <ele>481.76</ele>
        <time>2012-05-13T11:21:44Z</time>
      </trkpt>
      <trkpt lat="46.31248" lon="4.70079">
        <ele>482.24</ele>
        <time>2012-05-13T11:22:20Z</time>
      </trkpt>
      <trkpt lat="46.31248" lon="4.70079">
        <ele>482.24</ele>
        <time>2012-05-13T11:23:04Z</time>
      </trkpt>
      <trkpt lat="46.31248" lon="4.7008">
        <ele>481.76</ele>
        <time>2012-05-13T11:23:41Z</time>
      </trkpt>
      <trkpt lat="46.31248" lon="4.70079">
        <ele>482.24</ele>
        <time>2012-05-13T11:24:22Z</time>
      </trkpt>
      <trkpt lat="46.31248" lon="4.70079">
        <ele>481.76</ele>
        <time>2012-05-13T11:25:03Z</time>
      </trkpt>
      <trkpt lat="46.31248" lon="4.70079">
        <ele>480.8</ele>
        <time>2012-05-13T11:25:42Z</time>
      </trkpt>
      <trkpt lat="46.31247" lon="4.70079">
        <ele>480.8</ele>
        <time>2012-05-13T11:26:15Z</time>
      </trkpt>
      <trkpt lat="46.31247" lon="4.70079">
        <ele>480.8</ele>
        <time>2012-05-13T11:27:00Z</time>
      </trkpt>
      <trkpt lat="46.31247" lon="4.70079">
        <ele>480.8</ele>
        <time>2012-05-13T11:27:37Z</time>
      </trkpt>
      <trkpt lat="46.31247" lon="4.70078">
        <ele>479.84</ele>
        <time>2012-05-13T11:28:15Z</time>
      </trkpt>
      <trkpt lat="46.31247" lon="4.70078">
        <ele>480.32</ele>
        <time>2012-05-13T11:28:55Z</time>
      </trkpt>
      <trkpt lat="46.31247" lon="4.70077">
        <ele>480.8</ele>
        <time>2012-05-13T11:29:39Z</time>
      </trkpt>
      <trkpt lat="46.31247" lon="4.70077">
        <ele>479.84</ele>
        <time>2012-05-13T11:30:20Z</time>
      </trkpt>
      <trkpt lat="46.31247" lon="4.70078">
        <ele>480.32</ele>
        <time>2012-05-13T11:31:00Z</time>
      </trkpt>
      <trkpt lat="46.31246" lon="4.70078">
        <ele>479.84</ele>
        <time>2012-05-13T11:31:37Z</time>
      </trkpt>
      <trkpt lat="46.31246" lon="4.70078">
        <ele>479.84</ele>
        <time>2012-05-13T11:32:18Z</time>
      </trkpt>
      <trkpt lat="46.31246" lon="4.70078">
        <ele>479.35</ele>
        <time>2012-05-13T11:32:59Z</time>
      </trkpt>
      <trkpt lat="46.31246" lon="4.70078">
        <ele>479.84</ele>
        <time>2012-05-13T11:33:36Z</time>
      </trkpt>
      <trkpt lat="46.31246" lon="4.70078">
        <ele>479.35</ele>
        <time>2012-05-13T11:34:11Z</time>
      </trkpt>
      <trkpt lat="46.31246" lon="4.70078">
        <ele>479.35</ele>
        <time>2012-05-13T11:34:43Z</time>
      </trkpt>
      <trkpt lat="46.31246" lon="4.70078">
        <ele>478.87</ele>
        <time>2012-05-13T11:35:19Z</time>
      </trkpt>
      <trkpt lat="46.31246" lon="4.70078">
        <ele>478.87</ele>
        <time>2012-05-13T11:35:56Z</time>
      </trkpt>
      <trkpt lat="46.31245" lon="4.70077">
        <ele>478.39</ele>
        <time>2012-05-13T11:36:26Z</time>
      </trkpt>
      <trkpt lat="46.31245" lon="4.70078">
        <ele>479.35</ele>
        <time>2012-05-13T11:36:53Z</time>
      </trkpt>
      <trkpt lat="46.31245" lon="4.70078">
        <ele>479.84</ele>
        <time>2012-05-13T11:37:00Z</time>
      </trkpt>
      <trkpt lat="46.3124" lon="4.70077">
        <ele>479.35</ele>
        <time>2012-05-13T11:37:05Z</time>
      </trkpt>
      <trkpt lat="46.31236" lon="4.7008">
        <ele>479.84</ele>
        <time>2012-05-13T11:37:08Z</time>
      </trkpt>
      <trkpt lat="46.31234" lon="4.70082">
        <ele>479.84</ele>
        <time>2012-05-13T11:37:10Z</time>
      </trkpt>
      <trkpt lat="46.31226" lon="4.70089">
        <ele>478.87</ele>
        <time>2012-05-13T11:37:16Z</time>
      </trkpt>
      <trkpt lat="46.31209" lon="4.70102">
        <ele>477.43</ele>
        <time>2012-05-13T11:37:22Z</time>
      </trkpt>
      <trkpt lat="46.31191" lon="4.70114">
        <ele>475.03</ele>
        <time>2012-05-13T11:37:26Z</time>
      </trkpt>
      <trkpt lat="46.31174" lon="4.7013">
        <ele>471.66</ele>
        <time>2012-05-13T11:37:30Z</time>
      </trkpt>
      <trkpt lat="46.31146" lon="4.70131">
        <ele>468.78</ele>
        <time>2012-05-13T11:37:35Z</time>
      </trkpt>
      <trkpt lat="46.31135" lon="4.70129">
        <ele>468.3</ele>
        <time>2012-05-13T11:37:37Z</time>
      </trkpt>
      <trkpt lat="46.31112" lon="4.70124">
        <ele>469.26</ele>
        <time>2012-05-13T11:37:42Z</time>
      </trkpt>
      <trkpt lat="46.31058" lon="4.70119">
        <ele>471.18</ele>
        <time>2012-05-13T11:37:58Z</time>
      </trkpt>
      <trkpt lat="46.31047" lon="4.70122">
        <ele>472.14</ele>
        <time>2012-05-13T11:38:01Z</time>
      </trkpt>
      <trkpt lat="46.31017" lon="4.70123">
        <ele>472.14</ele>
        <time>2012-05-13T11:38:10Z</time>
      </trkpt>
      <trkpt lat="46.31005" lon="4.70125">
        <ele>471.18</ele>
        <time>2012-05-13T11:38:14Z</time>
      </trkpt>
      <trkpt lat="46.30963" lon="4.70119">
        <ele>469.74</ele>
        <time>2012-05-13T11:38:26Z</time>
      </trkpt>
      <trkpt lat="46.30958" lon="4.70109">
        <ele>468.78</ele>
        <time>2012-05-13T11:38:31Z</time>
      </trkpt>
      <trkpt lat="46.30953" lon="4.70104">
        <ele>468.3</ele>
        <time>2012-05-13T11:38:34Z</time>
      </trkpt>
      <trkpt lat="46.30931" lon="4.70102">
        <ele>467.34</ele>
        <time>2012-05-13T11:38:41Z</time>
      </trkpt>
      <trkpt lat="46.30921" lon="4.70099">
        <ele>466.38</ele>
        <time>2012-05-13T11:38:44Z</time>
      </trkpt>
      <trkpt lat="46.30877" lon="4.70094">
        <ele>466.38</ele>
        <time>2012-05-13T11:38:49Z</time>
      </trkpt>
      <trkpt lat="46.30824" lon="4.70082">
        <ele>468.3</ele>
        <time>2012-05-13T11:38:59Z</time>
      </trkpt>
      <trkpt lat="46.30799" lon="4.70087">
        <ele>468.78</ele>
        <time>2012-05-13T11:39:05Z</time>
      </trkpt>
      <trkpt lat="46.3079" lon="4.70088">
        <ele>469.26</ele>
        <time>2012-05-13T11:39:07Z</time>
      </trkpt>
      <trkpt lat="46.3075" lon="4.70076">
        <ele>471.18</ele>
        <time>2012-05-13T11:39:17Z</time>
      </trkpt>
      <trkpt lat="46.30748" lon="4.70076">
        <ele>471.18</ele>
        <time>2012-05-13T11:39:18Z</time>
      </trkpt>
      <trkpt lat="46.30699" lon="4.70096">
        <ele>470.7</ele>
        <time>2012-05-13T11:39:33Z</time>
      </trkpt>
      <trkpt lat="46.30695" lon="4.70099">
        <ele>470.22</ele>
        <time>2012-05-13T11:39:34Z</time>
      </trkpt>
      <trkpt lat="46.30686" lon="4.70106">
        <ele>468.78</ele>
        <time>2012-05-13T11:39:36Z</time>
      </trkpt>
      <trkpt lat="46.30663" lon="4.70128">
        <ele>464.45</ele>
        <time>2012-05-13T11:39:41Z</time>
      </trkpt>
      <trkpt lat="46.30652" lon="4.7014">
        <ele>462.05</ele>
        <time>2012-05-13T11:39:45Z</time>
      </trkpt>
      <trkpt lat="46.30633" lon="4.70137">
        <ele>463.49</ele>
        <time>2012-05-13T11:39:53Z</time>
      </trkpt>
      <trkpt lat="46.30621" lon="4.70133">
        <ele>464.93</ele>
        <time>2012-05-13T11:39:59Z</time>
      </trkpt>
      <trkpt lat="46.30598" lon="4.70116">
        <ele>468.3</ele>
        <time>2012-05-13T11:40:13Z</time>
      </trkpt>
      <trkpt lat="46.30579" lon="4.70105">
        <ele>471.18</ele>
        <time>2012-05-13T11:40:25Z</time>
      </trkpt>
      <trkpt lat="46.30562" lon="4.70092">
        <ele>474.55</ele>
        <time>2012-05-13T11:40:38Z</time>
      </trkpt>
      <trkpt lat="46.30549" lon="4.70075">
        <ele>476.95</ele>
        <time>2012-05-13T11:40:52Z</time>
      </trkpt>
      <trkpt lat="46.30543" lon="4.70059">
        <ele>478.87</ele>
        <time>2012-05-13T11:41:02Z</time>
      </trkpt>
      <trkpt lat="46.30541" lon="4.70057">
        <ele>478.87</ele>
        <time>2012-05-13T11:41:04Z</time>
      </trkpt>
      <trkpt lat="46.3053" lon="4.70034">
        <ele>482.72</ele>
        <time>2012-05-13T11:41:21Z</time>
      </trkpt>
      <trkpt lat="46.30527" lon="4.70031">
        <ele>483.2</ele>
        <time>2012-05-13T11:41:25Z</time>
      </trkpt>
      <trkpt lat="46.30513" lon="4.70004">
        <ele>486.56</ele>
        <time>2012-05-13T11:41:44Z</time>
      </trkpt>
      <trkpt lat="46.30497" lon="4.6998">
        <ele>488.49</ele>
        <time>2012-05-13T11:42:01Z</time>
      </trkpt>
      <trkpt lat="46.30484" lon="4.69962">
        <ele>490.41</ele>
        <time>2012-05-13T11:42:13Z</time>
      </trkpt>
      <trkpt lat="46.30478" lon="4.69956">
        <ele>490.41</ele>
        <time>2012-05-13T11:42:18Z</time>
      </trkpt>
      <trkpt lat="46.30476" lon="4.69954">
        <ele>490.41</ele>
        <time>2012-05-13T11:42:20Z</time>
      </trkpt>
      <trkpt lat="46.30471" lon="4.69946">
        <ele>490.89</ele>
        <time>2012-05-13T11:42:25Z</time>
      </trkpt>
      <trkpt lat="46.30469" lon="4.69942">
        <ele>491.37</ele>
        <time>2012-05-13T11:42:27Z</time>
      </trkpt>
      <trkpt lat="46.30434" lon="4.69908">
        <ele>494.26</ele>
        <time>2012-05-13T11:42:49Z</time>
      </trkpt>
      <trkpt lat="46.30412" lon="4.69863">
        <ele>495.22</ele>
        <time>2012-05-13T11:43:06Z</time>
      </trkpt>
      <trkpt lat="46.30408" lon="4.69804">
        <ele>497.62</ele>
        <time>2012-05-13T11:43:23Z</time>
      </trkpt>
      <trkpt lat="46.30398" lon="4.69754">
        <ele>500.98</ele>
        <time>2012-05-13T11:43:39Z</time>
      </trkpt>
      <trkpt lat="46.30383" lon="4.69708">
        <ele>502.43</ele>
        <time>2012-05-13T11:43:57Z</time>
      </trkpt>
      <trkpt lat="46.30381" lon="4.69706">
        <ele>502.43</ele>
        <time>2012-05-13T11:43:58Z</time>
      </trkpt>
      <trkpt lat="46.30355" lon="4.697">
        <ele>505.79</ele>
        <time>2012-05-13T11:44:14Z</time>
      </trkpt>
      <trkpt lat="46.30353" lon="4.697">
        <ele>506.75</ele>
        <time>2012-05-13T11:44:16Z</time>
      </trkpt>
      <trkpt lat="46.30337" lon="4.69694">
        <ele>509.64</ele>
        <time>2012-05-13T11:44:29Z</time>
      </trkpt>
      <trkpt lat="46.30322" lon="4.69689">
        <ele>511.08</ele>
        <time>2012-05-13T11:44:39Z</time>
      </trkpt>
      <trkpt lat="46.30288" lon="4.69673">
        <ele>513.48</ele>
        <time>2012-05-13T11:45:01Z</time>
      </trkpt>
      <trkpt lat="46.30267" lon="4.69662">
        <ele>513.96</ele>
        <time>2012-05-13T11:45:12Z</time>
      </trkpt>
      <trkpt lat="46.30232" lon="4.69623">
        <ele>513.96</ele>
        <time>2012-05-13T11:45:29Z</time>
      </trkpt>
      <trkpt lat="46.30207" lon="4.69616">
        <ele>517.33</ele>
        <time>2012-05-13T11:45:43Z</time>
      </trkpt>
      <trkpt lat="46.30187" lon="4.69624">
        <ele>520.21</ele>
        <time>2012-05-13T11:45:56Z</time>
      </trkpt>
      <trkpt lat="46.30146" lon="4.69613">
        <ele>523.09</ele>
        <time>2012-05-13T11:46:17Z</time>
      </trkpt>
      <trkpt lat="46.30108" lon="4.69595">
        <ele>523.09</ele>
        <time>2012-05-13T11:46:33Z</time>
      </trkpt>
      <trkpt lat="46.30055" lon="4.6957">
        <ele>523.58</ele>
        <time>2012-05-13T11:46:50Z</time>
      </trkpt>
      <trkpt lat="46.30018" lon="4.69555">
        <ele>524.06</ele>
        <time>2012-05-13T11:47:04Z</time>
      </trkpt>
      <trkpt lat="46.3001" lon="4.69557">
        <ele>523.09</ele>
        <time>2012-05-13T11:47:06Z</time>
      </trkpt>
      <trkpt lat="46.3" lon="4.69557">
        <ele>521.17</ele>
        <time>2012-05-13T11:47:08Z</time>
      </trkpt>
      <trkpt lat="46.2995" lon="4.6954">
        <ele>518.29</ele>
        <time>2012-05-13T11:47:16Z</time>
      </trkpt>
      <trkpt lat="46.29936" lon="4.69537">
        <ele>518.77</ele>
        <time>2012-05-13T11:47:18Z</time>
      </trkpt>
      <trkpt lat="46.29902" lon="4.69552">
        <ele>514.92</ele>
        <time>2012-05-13T11:47:26Z</time>
      </trkpt>
      <trkpt lat="46.29896" lon="4.69567">
        <ele>512.52</ele>
        <time>2012-05-13T11:47:30Z</time>
      </trkpt>
      <trkpt lat="46.29891" lon="4.69581">
        <ele>509.16</ele>
        <time>2012-05-13T11:47:33Z</time>
      </trkpt>
      <trkpt lat="46.29883" lon="4.69596">
        <ele>506.27</ele>
        <time>2012-05-13T11:47:36Z</time>
      </trkpt>
      <trkpt lat="46.29878" lon="4.69604">
        <ele>503.87</ele>
        <time>2012-05-13T11:47:38Z</time>
      </trkpt>
      <trkpt lat="46.29861" lon="4.69627">
        <ele>499.54</ele>
        <time>2012-05-13T11:47:43Z</time>
      </trkpt>
      <trkpt lat="46.29852" lon="4.69659">
        <ele>494.26</ele>
        <time>2012-05-13T11:47:49Z</time>
      </trkpt>
      <trkpt lat="46.29849" lon="4.69664">
        <ele>492.81</ele>
        <time>2012-05-13T11:47:50Z</time>
      </trkpt>
      <trkpt lat="46.29823" lon="4.69685">
        <ele>488.97</ele>
        <time>2012-05-13T11:47:56Z</time>
      </trkpt>
      <trkpt lat="46.29809" lon="4.69699">
        <ele>484.64</ele>
        <time>2012-05-13T11:47:59Z</time>
      </trkpt>
      <trkpt lat="46.29799" lon="4.69711">
        <ele>482.24</ele>
        <time>2012-05-13T11:48:01Z</time>
      </trkpt>
      <trkpt lat="46.29777" lon="4.6972">
        <ele>479.35</ele>
        <time>2012-05-13T11:48:05Z</time>
      </trkpt>
      <trkpt lat="46.29766" lon="4.69723">
        <ele>478.39</ele>
        <time>2012-05-13T11:48:07Z</time>
      </trkpt>
      <trkpt lat="46.29755" lon="4.69725">
        <ele>477.43</ele>
        <time>2012-05-13T11:48:09Z</time>
      </trkpt>
      <trkpt lat="46.29747" lon="4.69725">
        <ele>476.47</ele>
        <time>2012-05-13T11:48:11Z</time>
      </trkpt>
      <trkpt lat="46.29743" lon="4.69727">
        <ele>475.51</ele>
        <time>2012-05-13T11:48:12Z</time>
      </trkpt>
      <trkpt lat="46.29735" lon="4.6974">
        <ele>474.07</ele>
        <time>2012-05-13T11:48:15Z</time>
      </trkpt>
      <trkpt lat="46.29729" lon="4.6975">
        <ele>473.11</ele>
        <time>2012-05-13T11:48:17Z</time>
      </trkpt>
      <trkpt lat="46.2972" lon="4.69768">
        <ele>470.7</ele>
        <time>2012-05-13T11:48:21Z</time>
      </trkpt>
      <trkpt lat="46.29707" lon="4.69785">
        <ele>467.82</ele>
        <time>2012-05-13T11:48:25Z</time>
      </trkpt>
      <trkpt lat="46.29699" lon="4.69791">
        <ele>465.42</ele>
        <time>2012-05-13T11:48:27Z</time>
      </trkpt>
      <trkpt lat="46.2967" lon="4.69803">
        <ele>462.53</ele>
        <time>2012-05-13T11:48:32Z</time>
      </trkpt>
      <trkpt lat="46.29645" lon="4.69821">
        <ele>458.69</ele>
        <time>2012-05-13T11:48:37Z</time>
      </trkpt>
      <trkpt lat="46.2964" lon="4.69855">
        <ele>455.8</ele>
        <time>2012-05-13T11:48:42Z</time>
      </trkpt>
      <trkpt lat="46.29645" lon="4.69887">
        <ele>455.8</ele>
        <time>2012-05-13T11:48:49Z</time>
      </trkpt>
      <trkpt lat="46.29649" lon="4.69917">
        <ele>453.88</ele>
        <time>2012-05-13T11:48:54Z</time>
      </trkpt>
      <trkpt lat="46.29655" lon="4.69962">
        <ele>451.48</ele>
        <time>2012-05-13T11:49:02Z</time>
      </trkpt>
      <trkpt lat="46.29661" lon="4.70021">
        <ele>449.55</ele>
        <time>2012-05-13T11:49:12Z</time>
      </trkpt>
      <trkpt lat="46.29667" lon="4.70044">
        <ele>449.55</ele>
        <time>2012-05-13T11:49:16Z</time>
      </trkpt>
      <trkpt lat="46.29667" lon="4.70063">
        <ele>448.59</ele>
        <time>2012-05-13T11:49:19Z</time>
      </trkpt>
      <trkpt lat="46.29669" lon="4.70105">
        <ele>447.63</ele>
        <time>2012-05-13T11:49:25Z</time>
      </trkpt>
      <trkpt lat="46.29662" lon="4.70162">
        <ele>447.15</ele>
        <time>2012-05-13T11:49:35Z</time>
      </trkpt>
      <trkpt lat="46.29658" lon="4.70162">
        <ele>447.63</ele>
        <time>2012-05-13T11:49:37Z</time>
      </trkpt>
      <trkpt lat="46.29628" lon="4.70139">
        <ele>451</ele>
        <time>2012-05-13T11:49:54Z</time>
      </trkpt>
      <trkpt lat="46.29607" lon="4.70124">
        <ele>454.36</ele>
        <time>2012-05-13T11:50:06Z</time>
      </trkpt>
      <trkpt lat="46.29584" lon="4.70112">
        <ele>457.72</ele>
        <time>2012-05-13T11:50:20Z</time>
      </trkpt>
      <trkpt lat="46.29562" lon="4.70088">
        <ele>460.13</ele>
        <time>2012-05-13T11:50:39Z</time>
      </trkpt>
      <trkpt lat="46.29559" lon="4.70085">
        <ele>460.61</ele>
        <time>2012-05-13T11:50:41Z</time>
      </trkpt>
      <trkpt lat="46.29556" lon="4.70082">
        <ele>461.57</ele>
        <time>2012-05-13T11:50:44Z</time>
      </trkpt>
      <trkpt lat="46.29527" lon="4.70068">
        <ele>464.93</ele>
        <time>2012-05-13T11:51:05Z</time>
      </trkpt>
      <trkpt lat="46.29513" lon="4.70079">
        <ele>461.57</ele>
        <time>2012-05-13T11:51:11Z</time>
      </trkpt>
      <trkpt lat="46.29506" lon="4.70084">
        <ele>460.61</ele>
        <time>2012-05-13T11:51:14Z</time>
      </trkpt>
      <trkpt lat="46.29502" lon="4.70106">
        <ele>457.72</ele>
        <time>2012-05-13T11:51:24Z</time>
      </trkpt>
      <trkpt lat="46.29504" lon="4.70132">
        <ele>454.36</ele>
        <time>2012-05-13T11:51:31Z</time>
      </trkpt>
      <trkpt lat="46.29504" lon="4.70141">
        <ele>453.4</ele>
        <time>2012-05-13T11:51:33Z</time>
      </trkpt>
      <trkpt lat="46.29504" lon="4.7016">
        <ele>452.44</ele>
        <time>2012-05-13T11:51:38Z</time>
      </trkpt>
      <trkpt lat="46.29505" lon="4.70177">
        <ele>451</ele>
        <time>2012-05-13T11:51:43Z</time>
      </trkpt>
      <trkpt lat="46.29505" lon="4.70189">
        <ele>449.55</ele>
        <time>2012-05-13T11:51:46Z</time>
      </trkpt>
      <trkpt lat="46.29505" lon="4.70197">
        <ele>449.07</ele>
        <time>2012-05-13T11:51:48Z</time>
      </trkpt>
      <trkpt lat="46.29505" lon="4.70204">
        <ele>448.11</ele>
        <time>2012-05-13T11:51:50Z</time>
      </trkpt>
      <trkpt lat="46.29504" lon="4.70226">
        <ele>446.19</ele>
        <time>2012-05-13T11:51:55Z</time>
      </trkpt>
      <trkpt lat="46.29504" lon="4.70239">
        <ele>444.27</ele>
        <time>2012-05-13T11:51:58Z</time>
      </trkpt>
      <trkpt lat="46.29504" lon="4.70305">
        <ele>440.9</ele>
        <time>2012-05-13T11:52:10Z</time>
      </trkpt>
      <trkpt lat="46.29503" lon="4.70315">
        <ele>438.98</ele>
        <time>2012-05-13T11:52:12Z</time>
      </trkpt>
      <trkpt lat="46.29494" lon="4.7038">
        <ele>438.98</ele>
        <time>2012-05-13T11:52:26Z</time>
      </trkpt>
      <trkpt lat="46.29486" lon="4.70453">
        <ele>438.02</ele>
        <time>2012-05-13T11:52:40Z</time>
      </trkpt>
      <trkpt lat="46.29481" lon="4.70493">
        <ele>436.1</ele>
        <time>2012-05-13T11:52:48Z</time>
      </trkpt>
      <trkpt lat="46.29487" lon="4.7053">
        <ele>432.73</ele>
        <time>2012-05-13T11:52:53Z</time>
      </trkpt>
      <trkpt lat="46.29487" lon="4.70561">
        <ele>429.85</ele>
        <time>2012-05-13T11:52:57Z</time>
      </trkpt>
      <trkpt lat="46.29488" lon="4.70579">
        <ele>428.4</ele>
        <time>2012-05-13T11:52:59Z</time>
      </trkpt>
      <trkpt lat="46.2949" lon="4.70597">
        <ele>427.92</ele>
        <time>2012-05-13T11:53:01Z</time>
      </trkpt>
      <trkpt lat="46.29494" lon="4.70624">
        <ele>427.92</ele>
        <time>2012-05-13T11:53:04Z</time>
      </trkpt>
      <trkpt lat="46.29499" lon="4.70688">
        <ele>425.52</ele>
        <time>2012-05-13T11:53:12Z</time>
      </trkpt>
      <trkpt lat="46.29505" lon="4.70712">
        <ele>426.48</ele>
        <time>2012-05-13T11:53:16Z</time>
      </trkpt>
      <trkpt lat="46.29512" lon="4.70745">
        <ele>425.04</ele>
        <time>2012-05-13T11:53:21Z</time>
      </trkpt>
      <trkpt lat="46.29514" lon="4.70773">
        <ele>422.16</ele>
        <time>2012-05-13T11:53:24Z</time>
      </trkpt>
      <trkpt lat="46.29515" lon="4.70782">
        <ele>421.68</ele>
        <time>2012-05-13T11:53:25Z</time>
      </trkpt>
      <trkpt lat="46.29516" lon="4.70809">
        <ele>420.23</ele>
        <time>2012-05-13T11:53:28Z</time>
      </trkpt>
      <trkpt lat="46.2952" lon="4.70855">
        <ele>417.83</ele>
        <time>2012-05-13T11:53:33Z</time>
      </trkpt>
      <trkpt lat="46.29524" lon="4.70898">
        <ele>415.43</ele>
        <time>2012-05-13T11:53:38Z</time>
      </trkpt>
      <trkpt lat="46.29526" lon="4.70923">
        <ele>415.91</ele>
        <time>2012-05-13T11:53:41Z</time>
      </trkpt>
      <trkpt lat="46.29534" lon="4.70946">
        <ele>416.87</ele>
        <time>2012-05-13T11:53:45Z</time>
      </trkpt>
      <trkpt lat="46.29546" lon="4.70966">
        <ele>415.91</ele>
        <time>2012-05-13T11:53:49Z</time>
      </trkpt>
      <trkpt lat="46.29582" lon="4.71038">
        <ele>413.98</ele>
        <time>2012-05-13T11:54:01Z</time>
      </trkpt>
      <trkpt lat="46.29587" lon="4.71056">
        <ele>412.54</ele>
        <time>2012-05-13T11:54:05Z</time>
      </trkpt>
      <trkpt lat="46.29584" lon="4.71066">
        <ele>412.54</ele>
        <time>2012-05-13T11:54:10Z</time>
      </trkpt>
      <trkpt lat="46.29568" lon="4.71088">
        <ele>409.18</ele>
        <time>2012-05-13T11:54:19Z</time>
      </trkpt>
      <trkpt lat="46.29568" lon="4.711">
        <ele>407.26</ele>
        <time>2012-05-13T11:54:21Z</time>
      </trkpt>
      <trkpt lat="46.2957" lon="4.71136">
        <ele>406.29</ele>
        <time>2012-05-13T11:54:27Z</time>
      </trkpt>
      <trkpt lat="46.29577" lon="4.71152">
        <ele>406.77</ele>
        <time>2012-05-13T11:54:30Z</time>
      </trkpt>
      <trkpt lat="46.29591" lon="4.71172">
        <ele>405.81</ele>
        <time>2012-05-13T11:54:34Z</time>
      </trkpt>
      <trkpt lat="46.29598" lon="4.7122">
        <ele>403.89</ele>
        <time>2012-05-13T11:54:41Z</time>
      </trkpt>
      <trkpt lat="46.29555" lon="4.71289">
        <ele>400.05</ele>
        <time>2012-05-13T11:54:55Z</time>
      </trkpt>
      <trkpt lat="46.29551" lon="4.71297">
        <ele>399.57</ele>
        <time>2012-05-13T11:54:57Z</time>
      </trkpt>
      <trkpt lat="46.29506" lon="4.71308">
        <ele>402.93</ele>
        <time>2012-05-13T11:55:12Z</time>
      </trkpt>
      <trkpt lat="46.29472" lon="4.71308">
        <ele>406.29</ele>
        <time>2012-05-13T11:55:24Z</time>
      </trkpt>
      <trkpt lat="46.29436" lon="4.71306">
        <ele>409.66</ele>
        <time>2012-05-13T11:55:36Z</time>
      </trkpt>
      <trkpt lat="46.29433" lon="4.71306">
        <ele>410.14</ele>
        <time>2012-05-13T11:55:37Z</time>
      </trkpt>
      <trkpt lat="46.29391" lon="4.71314">
        <ele>411.58</ele>
        <time>2012-05-13T11:55:53Z</time>
      </trkpt>
      <trkpt lat="46.29388" lon="4.71316">
        <ele>411.58</ele>
        <time>2012-05-13T11:55:54Z</time>
      </trkpt>
      <trkpt lat="46.29372" lon="4.71326">
        <ele>410.62</ele>
        <time>2012-05-13T11:55:58Z</time>
      </trkpt>
      <trkpt lat="46.29362" lon="4.71343">
        <ele>408.22</ele>
        <time>2012-05-13T11:56:02Z</time>
      </trkpt>
      <trkpt lat="46.29362" lon="4.71348">
        <ele>407.26</ele>
        <time>2012-05-13T11:56:03Z</time>
      </trkpt>
      <trkpt lat="46.2936" lon="4.71378">
        <ele>403.41</ele>
        <time>2012-05-13T11:56:07Z</time>
      </trkpt>
      <trkpt lat="46.29358" lon="4.71408">
        <ele>401.01</ele>
        <time>2012-05-13T11:56:13Z</time>
      </trkpt>
      <trkpt lat="46.29353" lon="4.71415">
        <ele>400.05</ele>
        <time>2012-05-13T11:56:18Z</time>
      </trkpt>
      <trkpt lat="46.29291" lon="4.71406">
        <ele>403.89</ele>
        <time>2012-05-13T11:56:41Z</time>
      </trkpt>
      <trkpt lat="46.29236" lon="4.71397">
        <ele>407.26</ele>
        <time>2012-05-13T11:56:59Z</time>
      </trkpt>
      <trkpt lat="46.29222" lon="4.71392">
        <ele>407.74</ele>
        <time>2012-05-13T11:57:04Z</time>
      </trkpt>
      <trkpt lat="46.29174" lon="4.71371">
        <ele>409.66</ele>
        <time>2012-05-13T11:57:21Z</time>
      </trkpt>
      <trkpt lat="46.29165" lon="4.71369">
        <ele>408.22</ele>
        <time>2012-05-13T11:57:24Z</time>
      </trkpt>
      <trkpt lat="46.2915" lon="4.71365">
        <ele>406.29</ele>
        <time>2012-05-13T11:57:28Z</time>
      </trkpt>
      <trkpt lat="46.29123" lon="4.71351">
        <ele>402.93</ele>
        <time>2012-05-13T11:57:38Z</time>
      </trkpt>
      <trkpt lat="46.29097" lon="4.71372">
        <ele>402.45</ele>
        <time>2012-05-13T11:57:52Z</time>
      </trkpt>
      <trkpt lat="46.29082" lon="4.71395">
        <ele>405.33</ele>
        <time>2012-05-13T11:58:00Z</time>
      </trkpt>
      <trkpt lat="46.29076" lon="4.7141">
        <ele>406.77</ele>
        <time>2012-05-13T11:58:04Z</time>
      </trkpt>
      <trkpt lat="46.29055" lon="4.71441">
        <ele>406.77</ele>
        <time>2012-05-13T11:58:13Z</time>
      </trkpt>
      <trkpt lat="46.29046" lon="4.71454">
        <ele>405.81</ele>
        <time>2012-05-13T11:58:16Z</time>
      </trkpt>
      <trkpt lat="46.29024" lon="4.71477">
        <ele>405.81</ele>
        <time>2012-05-13T11:58:25Z</time>
      </trkpt>
      <trkpt lat="46.29003" lon="4.71529">
        <ele>406.77</ele>
        <time>2012-05-13T11:58:38Z</time>
      </trkpt>
      <trkpt lat="46.28991" lon="4.7153">
        <ele>407.26</ele>
        <time>2012-05-13T11:58:43Z</time>
      </trkpt>
      <trkpt lat="46.28941" lon="4.71506">
        <ele>410.14</ele>
        <time>2012-05-13T11:59:00Z</time>
      </trkpt>
      <trkpt lat="46.28907" lon="4.71492">
        <ele>413.5</ele>
        <time>2012-05-13T11:59:14Z</time>
      </trkpt>
      <trkpt lat="46.28885" lon="4.71481">
        <ele>415.43</ele>
        <time>2012-05-13T11:59:25Z</time>
      </trkpt>
      <trkpt lat="46.2885" lon="4.71462">
        <ele>418.79</ele>
        <time>2012-05-13T11:59:43Z</time>
      </trkpt>
      <trkpt lat="46.28831" lon="4.71459">
        <ele>421.68</ele>
        <time>2012-05-13T11:59:55Z</time>
      </trkpt>
      <trkpt lat="46.28817" lon="4.71471">
        <ele>425.52</ele>
        <time>2012-05-13T12:00:09Z</time>
      </trkpt>
      <trkpt lat="46.28809" lon="4.7148">
        <ele>426.48</ele>
        <time>2012-05-13T12:00:17Z</time>
      </trkpt>
      <trkpt lat="46.28799" lon="4.71482">
        <ele>428.4</ele>
        <time>2012-05-13T12:00:24Z</time>
      </trkpt>
      <trkpt lat="46.28782" lon="4.71482">
        <ele>428.89</ele>
        <time>2012-05-13T12:00:37Z</time>
      </trkpt>
      <trkpt lat="46.28752" lon="4.71476">
        <ele>431.29</ele>
        <time>2012-05-13T12:00:57Z</time>
      </trkpt>
      <trkpt lat="46.28712" lon="4.7148">
        <ele>433.21</ele>
        <time>2012-05-13T12:01:20Z</time>
      </trkpt>
      <trkpt lat="46.28707" lon="4.71479">
        <ele>433.21</ele>
        <time>2012-05-13T12:01:23Z</time>
      </trkpt>
      <trkpt lat="46.28657" lon="4.71472">
        <ele>433.21</ele>
        <time>2012-05-13T12:01:42Z</time>
      </trkpt>
      <trkpt lat="46.28645" lon="4.71475">
        <ele>431.77</ele>
        <time>2012-05-13T12:01:45Z</time>
      </trkpt>
      <trkpt lat="46.28608" lon="4.71478">
        <ele>428.4</ele>
        <time>2012-05-13T12:01:52Z</time>
      </trkpt>
      <trkpt lat="46.28574" lon="4.71478">
        <ele>426.96</ele>
        <time>2012-05-13T12:02:01Z</time>
      </trkpt>
      <trkpt lat="46.28542" lon="4.71486">
        <ele>425.04</ele>
        <time>2012-05-13T12:02:12Z</time>
      </trkpt>
      <trkpt lat="46.28539" lon="4.71503">
        <ele>423.6</ele>
        <time>2012-05-13T12:02:18Z</time>
      </trkpt>
      <trkpt lat="46.28539" lon="4.71531">
        <ele>422.16</ele>
        <time>2012-05-13T12:02:22Z</time>
      </trkpt>
      <trkpt lat="46.28537" lon="4.71561">
        <ele>420.71</ele>
        <time>2012-05-13T12:02:27Z</time>
      </trkpt>
      <trkpt lat="46.28533" lon="4.71601">
        <ele>417.35</ele>
        <time>2012-05-13T12:02:34Z</time>
      </trkpt>
      <trkpt lat="46.28524" lon="4.71654">
        <ele>415.91</ele>
        <time>2012-05-13T12:02:43Z</time>
      </trkpt>
      <trkpt lat="46.28517" lon="4.71686">
        <ele>414.95</ele>
        <time>2012-05-13T12:02:49Z</time>
      </trkpt>
      <trkpt lat="46.28501" lon="4.71743">
        <ele>413.98</ele>
        <time>2012-05-13T12:02:59Z</time>
      </trkpt>
      <trkpt lat="46.28497" lon="4.71756">
        <ele>413.02</ele>
        <time>2012-05-13T12:03:01Z</time>
      </trkpt>
      <trkpt lat="46.28491" lon="4.71783">
        <ele>412.54</ele>
        <time>2012-05-13T12:03:08Z</time>
      </trkpt>
      <trkpt lat="46.28487" lon="4.71814">
        <ele>413.98</ele>
        <time>2012-05-13T12:03:16Z</time>
      </trkpt>
      <trkpt lat="46.28482" lon="4.7184">
        <ele>413.02</ele>
        <time>2012-05-13T12:03:22Z</time>
      </trkpt>
      <trkpt lat="46.28477" lon="4.71921">
        <ele>413.5</ele>
        <time>2012-05-13T12:03:38Z</time>
      </trkpt>
      <trkpt lat="46.28477" lon="4.71927">
        <ele>413.98</ele>
        <time>2012-05-13T12:03:39Z</time>
      </trkpt>
      <trkpt lat="46.28464" lon="4.7202">
        <ele>413.98</ele>
        <time>2012-05-13T12:03:55Z</time>
      </trkpt>
      <trkpt lat="46.28424" lon="4.72152">
        <ele>409.66</ele>
        <time>2012-05-13T12:04:13Z</time>
      </trkpt>
      <trkpt lat="46.28417" lon="4.72167">
        <ele>408.7</ele>
        <time>2012-05-13T12:04:15Z</time>
      </trkpt>
      <trkpt lat="46.2841" lon="4.72184">
        <ele>407.74</ele>
        <time>2012-05-13T12:04:17Z</time>
      </trkpt>
      <trkpt lat="46.284" lon="4.72206">
        <ele>406.29</ele>
        <time>2012-05-13T12:04:20Z</time>
      </trkpt>
      <trkpt lat="46.28388" lon="4.72225">
        <ele>405.81</ele>
        <time>2012-05-13T12:04:23Z</time>
      </trkpt>
      <trkpt lat="46.28374" lon="4.7224">
        <ele>405.33</ele>
        <time>2012-05-13T12:04:26Z</time>
      </trkpt>
      <trkpt lat="46.28353" lon="4.72255">
        <ele>403.41</ele>
        <time>2012-05-13T12:04:31Z</time>
      </trkpt>
      <trkpt lat="46.28335" lon="4.72265">
        <ele>400.53</ele>
        <time>2012-05-13T12:04:35Z</time>
      </trkpt>
      <trkpt lat="46.28299" lon="4.72283">
        <ele>396.68</ele>
        <time>2012-05-13T12:04:41Z</time>
      </trkpt>
      <trkpt lat="46.28259" lon="4.72315">
        <ele>393.8</ele>
        <time>2012-05-13T12:04:51Z</time>
      </trkpt>
      <trkpt lat="46.28231" lon="4.72436">
        <ele>393.32</ele>
        <time>2012-05-13T12:05:10Z</time>
      </trkpt>
      <trkpt lat="46.28228" lon="4.72449">
        <ele>393.8</ele>
        <time>2012-05-13T12:05:12Z</time>
      </trkpt>
      <trkpt lat="46.28182" lon="4.72563">
        <ele>395.24</ele>
        <time>2012-05-13T12:05:33Z</time>
      </trkpt>
      <trkpt lat="46.28116" lon="4.72675">
        <ele>392.36</ele>
        <time>2012-05-13T12:05:54Z</time>
      </trkpt>
      <trkpt lat="46.28058" lon="4.7279">
        <ele>390.43</ele>
        <time>2012-05-13T12:06:12Z</time>
      </trkpt>
      <trkpt lat="46.27997" lon="4.72912">
        <ele>389.47</ele>
        <time>2012-05-13T12:06:32Z</time>
      </trkpt>
      <trkpt lat="46.27983" lon="4.7296">
        <ele>390.43</ele>
        <time>2012-05-13T12:06:40Z</time>
      </trkpt>
      <trkpt lat="46.27957" lon="4.72988">
        <ele>389.47</ele>
        <time>2012-05-13T12:06:47Z</time>
      </trkpt>
      <trkpt lat="46.27854" lon="4.73001">
        <ele>388.51</ele>
        <time>2012-05-13T12:07:05Z</time>
      </trkpt>
      <trkpt lat="46.2784" lon="4.72999">
        <ele>389.47</ele>
        <time>2012-05-13T12:07:08Z</time>
      </trkpt>
      <trkpt lat="46.27815" lon="4.73001">
        <ele>389.95</ele>
        <time>2012-05-13T12:07:13Z</time>
      </trkpt>
      <trkpt lat="46.27794" lon="4.72999">
        <ele>391.39</ele>
        <time>2012-05-13T12:07:18Z</time>
      </trkpt>
      <trkpt lat="46.27743" lon="4.7298">
        <ele>392.84</ele>
        <time>2012-05-13T12:07:31Z</time>
      </trkpt>
      <trkpt lat="46.27735" lon="4.72959">
        <ele>391.87</ele>
        <time>2012-05-13T12:07:36Z</time>
      </trkpt>
      <trkpt lat="46.27717" lon="4.72963">
        <ele>391.39</ele>
        <time>2012-05-13T12:07:41Z</time>
      </trkpt>
      <trkpt lat="46.27703" lon="4.72975">
        <ele>392.36</ele>
        <time>2012-05-13T12:07:45Z</time>
      </trkpt>
      <trkpt lat="46.27691" lon="4.72979">
        <ele>391.87</ele>
        <time>2012-05-13T12:07:48Z</time>
      </trkpt>
      <trkpt lat="46.27671" lon="4.72955">
        <ele>389.95</ele>
        <time>2012-05-13T12:07:56Z</time>
      </trkpt>
      <trkpt lat="46.27669" lon="4.72914">
        <ele>388.99</ele>
        <time>2012-05-13T12:08:03Z</time>
      </trkpt>
      <trkpt lat="46.27657" lon="4.72909">
        <ele>388.03</ele>
        <time>2012-05-13T12:08:07Z</time>
      </trkpt>
      <trkpt lat="46.27635" lon="4.72925">
        <ele>388.51</ele>
        <time>2012-05-13T12:08:13Z</time>
      </trkpt>
      <trkpt lat="46.27587" lon="4.72938">
        <ele>387.55</ele>
        <time>2012-05-13T12:08:22Z</time>
      </trkpt>
      <trkpt lat="46.27576" lon="4.72942">
        <ele>387.55</ele>
        <time>2012-05-13T12:08:24Z</time>
      </trkpt>
      <trkpt lat="46.27567" lon="4.72972">
        <ele>387.55</ele>
        <time>2012-05-13T12:08:30Z</time>
      </trkpt>
      <trkpt lat="46.27561" lon="4.72992">
        <ele>389.95</ele>
        <time>2012-05-13T12:08:34Z</time>
      </trkpt>
      <trkpt lat="46.27547" lon="4.72997">
        <ele>389.95</ele>
        <time>2012-05-13T12:08:38Z</time>
      </trkpt>
      <trkpt lat="46.2753" lon="4.73001">
        <ele>389.47</ele>
        <time>2012-05-13T12:08:42Z</time>
      </trkpt>
      <trkpt lat="46.27491" lon="4.73013">
        <ele>388.51</ele>
        <time>2012-05-13T12:08:51Z</time>
      </trkpt>
      <trkpt lat="46.27474" lon="4.7302">
        <ele>388.03</ele>
        <time>2012-05-13T12:08:55Z</time>
      </trkpt>
      <trkpt lat="46.27462" lon="4.73027">
        <ele>388.03</ele>
        <time>2012-05-13T12:08:58Z</time>
      </trkpt>
      <trkpt lat="46.27437" lon="4.73044">
        <ele>386.11</ele>
        <time>2012-05-13T12:09:04Z</time>
      </trkpt>
      <trkpt lat="46.27432" lon="4.73046">
        <ele>386.59</ele>
        <time>2012-05-13T12:09:05Z</time>
      </trkpt>
      <trkpt lat="46.27413" lon="4.73071">
        <ele>386.59</ele>
        <time>2012-05-13T12:09:11Z</time>
      </trkpt>
      <trkpt lat="46.27404" lon="4.73091">
        <ele>387.55</ele>
        <time>2012-05-13T12:09:15Z</time>
      </trkpt>
      <trkpt lat="46.27398" lon="4.7311">
        <ele>388.03</ele>
        <time>2012-05-13T12:09:19Z</time>
      </trkpt>
      <trkpt lat="46.27397" lon="4.73148">
        <ele>387.55</ele>
        <time>2012-05-13T12:09:26Z</time>
      </trkpt>
      <trkpt lat="46.27393" lon="4.7316">
        <ele>388.03</ele>
        <time>2012-05-13T12:09:28Z</time>
      </trkpt>
      <trkpt lat="46.27387" lon="4.73184">
        <ele>388.99</ele>
        <time>2012-05-13T12:09:32Z</time>
      </trkpt>
      <trkpt lat="46.27381" lon="4.73202">
        <ele>388.99</ele>
        <time>2012-05-13T12:09:35Z</time>
      </trkpt>
      <trkpt lat="46.27369" lon="4.73222">
        <ele>388.51</ele>
        <time>2012-05-13T12:09:39Z</time>
      </trkpt>
      <trkpt lat="46.27347" lon="4.73253">
        <ele>391.87</ele>
        <time>2012-05-13T12:09:47Z</time>
      </trkpt>
      <trkpt lat="46.27324" lon="4.73301">
        <ele>395.24</ele>
        <time>2012-05-13T12:10:02Z</time>
      </trkpt>
      <trkpt lat="46.27321" lon="4.73307">
        <ele>396.2</ele>
        <time>2012-05-13T12:10:04Z</time>
      </trkpt>
      <trkpt lat="46.27292" lon="4.73375">
        <ele>397.16</ele>
        <time>2012-05-13T12:10:27Z</time>
      </trkpt>
      <trkpt lat="46.27271" lon="4.73471">
        <ele>398.6</ele>
        <time>2012-05-13T12:10:49Z</time>
      </trkpt>
      <trkpt lat="46.27257" lon="4.73531">
        <ele>401.01</ele>
        <time>2012-05-13T12:11:02Z</time>
      </trkpt>
      <trkpt lat="46.27246" lon="4.73584">
        <ele>402.45</ele>
        <time>2012-05-13T12:11:15Z</time>
      </trkpt>
      <trkpt lat="46.27231" lon="4.73633">
        <ele>402.45</ele>
        <time>2012-05-13T12:11:25Z</time>
      </trkpt>
      <trkpt lat="46.27217" lon="4.73705">
        <ele>399.57</ele>
        <time>2012-05-13T12:11:37Z</time>
      </trkpt>
      <trkpt lat="46.27214" lon="4.73719">
        <ele>399.57</ele>
        <time>2012-05-13T12:11:39Z</time>
      </trkpt>
      <trkpt lat="46.27217" lon="4.73746">
        <ele>398.6</ele>
        <time>2012-05-13T12:11:42Z</time>
      </trkpt>
      <trkpt lat="46.2722" lon="4.73782">
        <ele>396.68</ele>
        <time>2012-05-13T12:11:46Z</time>
      </trkpt>
      <trkpt lat="46.27228" lon="4.73837">
        <ele>393.8</ele>
        <time>2012-05-13T12:11:52Z</time>
      </trkpt>
      <trkpt lat="46.27231" lon="4.73866">
        <ele>391.87</ele>
        <time>2012-05-13T12:11:55Z</time>
      </trkpt>
      <trkpt lat="46.27239" lon="4.73915">
        <ele>388.51</ele>
        <time>2012-05-13T12:12:00Z</time>
      </trkpt>
      <trkpt lat="46.27241" lon="4.73925">
        <ele>388.51</ele>
        <time>2012-05-13T12:12:01Z</time>
      </trkpt>
      <trkpt lat="46.27246" lon="4.73954">
        <ele>388.03</ele>
        <time>2012-05-13T12:12:04Z</time>
      </trkpt>
      <trkpt lat="46.2725" lon="4.73984">
        <ele>385.63</ele>
        <time>2012-05-13T12:12:07Z</time>
      </trkpt>
      <trkpt lat="46.2726" lon="4.74031">
        <ele>383.7</ele>
        <time>2012-05-13T12:12:12Z</time>
      </trkpt>
      <trkpt lat="46.27267" lon="4.74062">
        <ele>381.78</ele>
        <time>2012-05-13T12:12:15Z</time>
      </trkpt>
      <trkpt lat="46.27271" lon="4.74082">
        <ele>380.34</ele>
        <time>2012-05-13T12:12:17Z</time>
      </trkpt>
      <trkpt lat="46.27278" lon="4.74132">
        <ele>376.49</ele>
        <time>2012-05-13T12:12:22Z</time>
      </trkpt>
      <trkpt lat="46.2728" lon="4.74143">
        <ele>376.01</ele>
        <time>2012-05-13T12:12:23Z</time>
      </trkpt>
      <trkpt lat="46.27286" lon="4.74163">
        <ele>375.53</ele>
        <time>2012-05-13T12:12:25Z</time>
      </trkpt>
      <trkpt lat="46.27293" lon="4.74182">
        <ele>374.09</ele>
        <time>2012-05-13T12:12:27Z</time>
      </trkpt>
      <trkpt lat="46.27296" lon="4.74191">
        <ele>374.09</ele>
        <time>2012-05-13T12:12:28Z</time>
      </trkpt>
      <trkpt lat="46.2731" lon="4.74238">
        <ele>371.69</ele>
        <time>2012-05-13T12:12:33Z</time>
      </trkpt>
      <trkpt lat="46.27317" lon="4.74279">
        <ele>370.24</ele>
        <time>2012-05-13T12:12:37Z</time>
      </trkpt>
      <trkpt lat="46.27321" lon="4.743">
        <ele>368.8</ele>
        <time>2012-05-13T12:12:39Z</time>
      </trkpt>
      <trkpt lat="46.27346" lon="4.74385">
        <ele>366.88</ele>
        <time>2012-05-13T12:12:48Z</time>
      </trkpt>
      <trkpt lat="46.2737" lon="4.74519">
        <ele>366.88</ele>
        <time>2012-05-13T12:13:05Z</time>
      </trkpt>
      <trkpt lat="46.27371" lon="4.74534">
        <ele>366.88</ele>
        <time>2012-05-13T12:13:07Z</time>
      </trkpt>
      <trkpt lat="46.27371" lon="4.74575">
        <ele>366.88</ele>
        <time>2012-05-13T12:13:13Z</time>
      </trkpt>
      <trkpt lat="46.27371" lon="4.74602">
        <ele>367.84</ele>
        <time>2012-05-13T12:13:17Z</time>
      </trkpt>
      <trkpt lat="46.27372" lon="4.74668">
        <ele>364.96</ele>
        <time>2012-05-13T12:13:26Z</time>
      </trkpt>
      <trkpt lat="46.27372" lon="4.74715">
        <ele>361.59</ele>
        <time>2012-05-13T12:13:31Z</time>
      </trkpt>
      <trkpt lat="46.2737" lon="4.74759">
        <ele>358.23</ele>
        <time>2012-05-13T12:13:35Z</time>
      </trkpt>
      <trkpt lat="46.27366" lon="4.74816">
        <ele>355.34</ele>
        <time>2012-05-13T12:13:40Z</time>
      </trkpt>
      <trkpt lat="46.27366" lon="4.74941">
        <ele>352.46</ele>
        <time>2012-05-13T12:13:52Z</time>
      </trkpt>
      <trkpt lat="46.27367" lon="4.7496">
        <ele>351.02</ele>
        <time>2012-05-13T12:13:54Z</time>
      </trkpt>
      <trkpt lat="46.27373" lon="4.75004">
        <ele>348.13</ele>
        <time>2012-05-13T12:13:59Z</time>
      </trkpt>
      <trkpt lat="46.27376" lon="4.75023">
        <ele>347.17</ele>
        <time>2012-05-13T12:14:01Z</time>
      </trkpt>
      <trkpt lat="46.2738" lon="4.75043">
        <ele>345.73</ele>
        <time>2012-05-13T12:14:03Z</time>
      </trkpt>
      <trkpt lat="46.27383" lon="4.75073">
        <ele>342.85</ele>
        <time>2012-05-13T12:14:06Z</time>
      </trkpt>
      <trkpt lat="46.27382" lon="4.75126">
        <ele>339.96</ele>
        <time>2012-05-13T12:14:11Z</time>
      </trkpt>
      <trkpt lat="46.27382" lon="4.75149">
        <ele>337.56</ele>
        <time>2012-05-13T12:14:13Z</time>
      </trkpt>
      <trkpt lat="46.27379" lon="4.75171">
        <ele>336.12</ele>
        <time>2012-05-13T12:14:15Z</time>
      </trkpt>
      <trkpt lat="46.27373" lon="4.75208">
        <ele>333.71</ele>
        <time>2012-05-13T12:14:19Z</time>
      </trkpt>
      <trkpt lat="46.27375" lon="4.75241">
        <ele>330.35</ele>
        <time>2012-05-13T12:14:23Z</time>
      </trkpt>
      <trkpt lat="46.27389" lon="4.75311">
        <ele>327.47</ele>
        <time>2012-05-13T12:14:31Z</time>
      </trkpt>
      <trkpt lat="46.27396" lon="4.75356">
        <ele>324.1</ele>
        <time>2012-05-13T12:14:36Z</time>
      </trkpt>
      <trkpt lat="46.27407" lon="4.75374">
        <ele>322.66</ele>
        <time>2012-05-13T12:14:40Z</time>
      </trkpt>
      <trkpt lat="46.27412" lon="4.75374">
        <ele>319.3</ele>
        <time>2012-05-13T12:14:41Z</time>
      </trkpt>
      <trkpt lat="46.27456" lon="4.75367">
        <ele>319.78</ele>
        <time>2012-05-13T12:14:50Z</time>
      </trkpt>
      <trkpt lat="46.27474" lon="4.75352">
        <ele>320.26</ele>
        <time>2012-05-13T12:14:54Z</time>
      </trkpt>
      <trkpt lat="46.27487" lon="4.75329">
        <ele>318.81</ele>
        <time>2012-05-13T12:14:58Z</time>
      </trkpt>
      <trkpt lat="46.27492" lon="4.75318">
        <ele>317.85</ele>
        <time>2012-05-13T12:15:00Z</time>
      </trkpt>
      <trkpt lat="46.27507" lon="4.75287">
        <ele>316.89</ele>
        <time>2012-05-13T12:15:08Z</time>
      </trkpt>
      <trkpt lat="46.27527" lon="4.75283">
        <ele>313.05</ele>
        <time>2012-05-13T12:15:12Z</time>
      </trkpt>
      <trkpt lat="46.27546" lon="4.75279">
        <ele>309.68</ele>
        <time>2012-05-13T12:15:15Z</time>
      </trkpt>
      <trkpt lat="46.27551" lon="4.75278">
        <ele>309.68</ele>
        <time>2012-05-13T12:15:16Z</time>
      </trkpt>
      <trkpt lat="46.27561" lon="4.75278">
        <ele>308.24</ele>
        <time>2012-05-13T12:15:18Z</time>
      </trkpt>
      <trkpt lat="46.2758" lon="4.75279">
        <ele>304.88</ele>
        <time>2012-05-13T12:15:21Z</time>
      </trkpt>
      <trkpt lat="46.27606" lon="4.7528">
        <ele>303.43</ele>
        <time>2012-05-13T12:15:25Z</time>
      </trkpt>
      <trkpt lat="46.27629" lon="4.75294">
        <ele>301.99</ele>
        <time>2012-05-13T12:15:29Z</time>
      </trkpt>
      <trkpt lat="46.27647" lon="4.75317">
        <ele>300.55</ele>
        <time>2012-05-13T12:15:34Z</time>
      </trkpt>
      <trkpt lat="46.27654" lon="4.75346">
        <ele>301.51</ele>
        <time>2012-05-13T12:15:39Z</time>
      </trkpt>
      <trkpt lat="46.27653" lon="4.75367">
        <ele>301.99</ele>
        <time>2012-05-13T12:15:42Z</time>
      </trkpt>
      <trkpt lat="46.27663" lon="4.75373">
        <ele>302.47</ele>
        <time>2012-05-13T12:15:49Z</time>
      </trkpt>
      <trkpt lat="46.27717" lon="4.75389">
        <ele>304.39</ele>
        <time>2012-05-13T12:16:07Z</time>
      </trkpt>
      <trkpt lat="46.27729" lon="4.75392">
        <ele>304.39</ele>
        <time>2012-05-13T12:16:23Z</time>
      </trkpt>
      <trkpt lat="46.2773" lon="4.75391">
        <ele>304.88</ele>
        <time>2012-05-13T12:16:45Z</time>
      </trkpt>
      <trkpt lat="46.27769" lon="4.7541">
        <ele>302.47</ele>
        <time>2012-05-13T12:17:02Z</time>
      </trkpt>
      <trkpt lat="46.27781" lon="4.75414">
        <ele>301.51</ele>
        <time>2012-05-13T12:17:05Z</time>
      </trkpt>
      <trkpt lat="46.27796" lon="4.75418">
        <ele>300.07</ele>
        <time>2012-05-13T12:17:08Z</time>
      </trkpt>
      <trkpt lat="46.27807" lon="4.75419">
        <ele>298.63</ele>
        <time>2012-05-13T12:17:10Z</time>
      </trkpt>
      <trkpt lat="46.27848" lon="4.7542">
        <ele>298.63</ele>
        <time>2012-05-13T12:17:18Z</time>
      </trkpt>
      <trkpt lat="46.27912" lon="4.75432">
        <ele>301.03</ele>
        <time>2012-05-13T12:17:33Z</time>
      </trkpt>
      <trkpt lat="46.27948" lon="4.75436">
        <ele>300.07</ele>
        <time>2012-05-13T12:17:41Z</time>
      </trkpt>
      <trkpt lat="46.27983" lon="4.75447">
        <ele>301.51</ele>
        <time>2012-05-13T12:17:49Z</time>
      </trkpt>
      <trkpt lat="46.27991" lon="4.75449">
        <ele>301.03</ele>
        <time>2012-05-13T12:17:51Z</time>
      </trkpt>
      <trkpt lat="46.2804" lon="4.75465">
        <ele>298.15</ele>
        <time>2012-05-13T12:18:05Z</time>
      </trkpt>
      <trkpt lat="46.28044" lon="4.75465">
        <ele>298.15</ele>
        <time>2012-05-13T12:18:06Z</time>
      </trkpt>
      <trkpt lat="46.28061" lon="4.75467">
        <ele>294.78</ele>
        <time>2012-05-13T12:18:12Z</time>
      </trkpt>
      <trkpt lat="46.28076" lon="4.75468">
        <ele>291.9</ele>
        <time>2012-05-13T12:18:20Z</time>
      </trkpt>
      <trkpt lat="46.28078" lon="4.75468">
        <ele>291.42</ele>
        <time>2012-05-13T12:18:21Z</time>
      </trkpt>
      <trkpt lat="46.2809" lon="4.75467">
        <ele>288.05</ele>
        <time>2012-05-13T12:18:25Z</time>
      </trkpt>
      <trkpt lat="46.28111" lon="4.75469">
        <ele>284.21</ele>
        <time>2012-05-13T12:18:29Z</time>
      </trkpt>
      <trkpt lat="46.28141" lon="4.75471">
        <ele>281.8</ele>
        <time>2012-05-13T12:18:34Z</time>
      </trkpt>
      <trkpt lat="46.28157" lon="4.75473">
        <ele>280.36</ele>
        <time>2012-05-13T12:18:37Z</time>
      </trkpt>
      <trkpt lat="46.282" lon="4.75503">
        <ele>277</ele>
        <time>2012-05-13T12:18:47Z</time>
      </trkpt>
      <trkpt lat="46.28206" lon="4.75507">
        <ele>277</ele>
        <time>2012-05-13T12:18:48Z</time>
      </trkpt>
      <trkpt lat="46.28238" lon="4.75524">
        <ele>274.59</ele>
        <time>2012-05-13T12:18:54Z</time>
      </trkpt>
      <trkpt lat="46.2826" lon="4.75537">
        <ele>275.56</ele>
        <time>2012-05-13T12:18:59Z</time>
      </trkpt>
      <trkpt lat="46.28343" lon="4.75592">
        <ele>276.52</ele>
        <time>2012-05-13T12:19:20Z</time>
      </trkpt>
      <trkpt lat="46.28414" lon="4.75624">
        <ele>276.04</ele>
        <time>2012-05-13T12:19:38Z</time>
      </trkpt>
      <trkpt lat="46.28465" lon="4.75644">
        <ele>278.92</ele>
        <time>2012-05-13T12:19:54Z</time>
      </trkpt>
      <trkpt lat="46.2847" lon="4.75644">
        <ele>279.88</ele>
        <time>2012-05-13T12:19:56Z</time>
      </trkpt>
      <trkpt lat="46.28503" lon="4.75658">
        <ele>283.73</ele>
        <time>2012-05-13T12:20:08Z</time>
      </trkpt>
      <trkpt lat="46.28545" lon="4.75691">
        <ele>283.73</ele>
        <time>2012-05-13T12:20:27Z</time>
      </trkpt>
      <trkpt lat="46.28606" lon="4.75706">
        <ele>279.88</ele>
        <time>2012-05-13T12:20:45Z</time>
      </trkpt>
      <trkpt lat="46.28632" lon="4.75727">
        <ele>279.88</ele>
        <time>2012-05-13T12:20:53Z</time>
      </trkpt>
      <trkpt lat="46.28639" lon="4.75733">
        <ele>279.88</ele>
        <time>2012-05-13T12:20:55Z</time>
      </trkpt>
      <trkpt lat="46.28705" lon="4.75767">
        <ele>277.48</ele>
        <time>2012-05-13T12:21:12Z</time>
      </trkpt>
      <trkpt lat="46.28717" lon="4.75799">
        <ele>277</ele>
        <time>2012-05-13T12:21:18Z</time>
      </trkpt>
      <trkpt lat="46.28716" lon="4.75817">
        <ele>275.07</ele>
        <time>2012-05-13T12:21:20Z</time>
      </trkpt>
      <trkpt lat="46.28713" lon="4.75842">
        <ele>275.56</ele>
        <time>2012-05-13T12:21:23Z</time>
      </trkpt>
      <trkpt lat="46.28713" lon="4.75884">
        <ele>275.07</ele>
        <time>2012-05-13T12:21:29Z</time>
      </trkpt>
      <trkpt lat="46.2871" lon="4.75948">
        <ele>276.04</ele>
        <time>2012-05-13T12:21:42Z</time>
      </trkpt>
      <trkpt lat="46.28708" lon="4.75986">
        <ele>277.48</ele>
        <time>2012-05-13T12:21:50Z</time>
      </trkpt>
      <trkpt lat="46.28712" lon="4.75997">
        <ele>277</ele>
        <time>2012-05-13T12:21:54Z</time>
      </trkpt>
      <trkpt lat="46.28759" lon="4.76001">
        <ele>278.44</ele>
        <time>2012-05-13T12:22:09Z</time>
      </trkpt>
      <trkpt lat="46.28766" lon="4.76001">
        <ele>278.92</ele>
        <time>2012-05-13T12:22:11Z</time>
      </trkpt>
      <trkpt lat="46.28821" lon="4.75994">
        <ele>282.28</ele>
        <time>2012-05-13T12:22:27Z</time>
      </trkpt>
      <trkpt lat="46.28876" lon="4.75994">
        <ele>281.8</ele>
        <time>2012-05-13T12:22:40Z</time>
      </trkpt>
      <trkpt lat="46.28881" lon="4.75996">
        <ele>281.8</ele>
        <time>2012-05-13T12:22:41Z</time>
      </trkpt>
      <trkpt lat="46.28899" lon="4.76">
        <ele>282.28</ele>
        <time>2012-05-13T12:22:45Z</time>
      </trkpt>
      <trkpt lat="46.28932" lon="4.76051">
        <ele>282.28</ele>
        <time>2012-05-13T12:22:58Z</time>
      </trkpt>
      <trkpt lat="46.28938" lon="4.76057">
        <ele>281.32</ele>
        <time>2012-05-13T12:23:00Z</time>
      </trkpt>
      <trkpt lat="46.28951" lon="4.76071">
        <ele>279.88</ele>
        <time>2012-05-13T12:23:05Z</time>
      </trkpt>
      <trkpt lat="46.28962" lon="4.7608">
        <ele>277.48</ele>
        <time>2012-05-13T12:23:08Z</time>
      </trkpt>
      <trkpt lat="46.28968" lon="4.76088">
        <ele>276.52</ele>
        <time>2012-05-13T12:23:10Z</time>
      </trkpt>
      <trkpt lat="46.28977" lon="4.76098">
        <ele>275.07</ele>
        <time>2012-05-13T12:23:13Z</time>
      </trkpt>
      <trkpt lat="46.28985" lon="4.7611">
        <ele>271.71</ele>
        <time>2012-05-13T12:23:16Z</time>
      </trkpt>
      <trkpt lat="46.29" lon="4.76128">
        <ele>269.31</ele>
        <time>2012-05-13T12:23:21Z</time>
      </trkpt>
      <trkpt lat="46.29013" lon="4.76139">
        <ele>266.42</ele>
        <time>2012-05-13T12:23:25Z</time>
      </trkpt>
      <trkpt lat="46.29026" lon="4.76146">
        <ele>264.02</ele>
        <time>2012-05-13T12:23:28Z</time>
      </trkpt>
      <trkpt lat="46.29029" lon="4.76148">
        <ele>263.54</ele>
        <time>2012-05-13T12:23:29Z</time>
      </trkpt>
      <trkpt lat="46.29045" lon="4.76174">
        <ele>261.62</ele>
        <time>2012-05-13T12:23:36Z</time>
      </trkpt>
      <trkpt lat="46.29048" lon="4.7619">
        <ele>261.62</ele>
        <time>2012-05-13T12:23:39Z</time>
      </trkpt>
      <trkpt lat="46.29048" lon="4.76208">
        <ele>261.14</ele>
        <time>2012-05-13T12:23:43Z</time>
      </trkpt>
      <trkpt lat="46.29057" lon="4.76229">
        <ele>258.25</ele>
        <time>2012-05-13T12:23:49Z</time>
      </trkpt>
      <trkpt lat="46.29054" lon="4.76246">
        <ele>252.48</ele>
        <time>2012-05-13T12:23:54Z</time>
      </trkpt>
      <trkpt lat="46.29047" lon="4.76256">
        <ele>251.04</ele>
        <time>2012-05-13T12:23:57Z</time>
      </trkpt>
      <trkpt lat="46.29045" lon="4.76267">
        <ele>248.64</ele>
        <time>2012-05-13T12:24:00Z</time>
      </trkpt>
      <trkpt lat="46.29045" lon="4.76268">
        <ele>247.68</ele>
        <time>2012-05-13T12:24:01Z</time>
      </trkpt>
      <trkpt lat="46.29047" lon="4.76287">
        <ele>247.68</ele>
        <time>2012-05-13T12:24:04Z</time>
      </trkpt>
      <trkpt lat="46.29041" lon="4.76312">
        <ele>243.83</ele>
        <time>2012-05-13T12:24:11Z</time>
      </trkpt>
      <trkpt lat="46.29038" lon="4.76316">
        <ele>242.87</ele>
        <time>2012-05-13T12:24:12Z</time>
      </trkpt>
      <trkpt lat="46.2902" lon="4.7634">
        <ele>238.06</ele>
        <time>2012-05-13T12:24:19Z</time>
      </trkpt>
      <trkpt lat="46.29009" lon="4.76359">
        <ele>235.66</ele>
        <time>2012-05-13T12:24:23Z</time>
      </trkpt>
      <trkpt lat="46.29005" lon="4.76373">
        <ele>234.22</ele>
        <time>2012-05-13T12:24:25Z</time>
      </trkpt>
      <trkpt lat="46.28993" lon="4.76399">
        <ele>231.33</ele>
        <time>2012-05-13T12:24:30Z</time>
      </trkpt>
      <trkpt lat="46.28991" lon="4.76405">
        <ele>230.85</ele>
        <time>2012-05-13T12:24:31Z</time>
      </trkpt>
      <trkpt lat="46.28966" lon="4.76424">
        <ele>228.93</ele>
        <time>2012-05-13T12:24:42Z</time>
      </trkpt>
      <trkpt lat="46.28941" lon="4.76421">
        <ele>228.93</ele>
        <time>2012-05-13T12:24:50Z</time>
      </trkpt>
      <trkpt lat="46.28929" lon="4.76417">
        <ele>229.89</ele>
        <time>2012-05-13T12:24:54Z</time>
      </trkpt>
      <trkpt lat="46.28918" lon="4.76412">
        <ele>229.41</ele>
        <time>2012-05-13T12:25:00Z</time>
      </trkpt>
      <trkpt lat="46.28914" lon="4.76409">
        <ele>228.93</ele>
        <time>2012-05-13T12:25:02Z</time>
      </trkpt>
      <trkpt lat="46.28909" lon="4.7641">
        <ele>228.93</ele>
        <time>2012-05-13T12:25:07Z</time>
      </trkpt>
      <trkpt lat="46.28904" lon="4.76401">
        <ele>228.45</ele>
        <time>2012-05-13T12:25:17Z</time>
      </trkpt>
      <trkpt lat="46.28895" lon="4.76417">
        <ele>226.05</ele>
        <time>2012-05-13T12:25:22Z</time>
      </trkpt>
      <trkpt lat="46.28874" lon="4.76427">
        <ele>225.09</ele>
        <time>2012-05-13T12:25:25Z</time>
      </trkpt>
      <trkpt lat="46.28862" lon="4.7645">
        <ele>222.68</ele>
        <time>2012-05-13T12:25:29Z</time>
      </trkpt>
      <trkpt lat="46.28856" lon="4.76477">
        <ele>220.76</ele>
        <time>2012-05-13T12:25:33Z</time>
      </trkpt>
      <trkpt lat="46.28841" lon="4.76529">
        <ele>218.84</ele>
        <time>2012-05-13T12:25:41Z</time>
      </trkpt>
      <trkpt lat="46.28829" lon="4.7653">
        <ele>219.8</ele>
        <time>2012-05-13T12:25:46Z</time>
      </trkpt>
      <trkpt lat="46.28766" lon="4.7651">
        <ele>219.32</ele>
        <time>2012-05-13T12:26:04Z</time>
      </trkpt>
      <trkpt lat="46.28741" lon="4.76509">
        <ele>218.84</ele>
        <time>2012-05-13T12:26:10Z</time>
      </trkpt>
      <trkpt lat="46.28723" lon="4.76511">
        <ele>217.4</ele>
        <time>2012-05-13T12:26:14Z</time>
      </trkpt>
      <trkpt lat="46.28657" lon="4.76522">
        <ele>216.43</ele>
        <time>2012-05-13T12:26:28Z</time>
      </trkpt>
      <trkpt lat="46.28616" lon="4.76528">
        <ele>215.95</ele>
        <time>2012-05-13T12:26:39Z</time>
      </trkpt>
      <trkpt lat="46.28613" lon="4.76521">
        <ele>215.95</ele>
        <time>2012-05-13T12:26:52Z</time>
      </trkpt>
      <trkpt lat="46.28613" lon="4.76521">
        <ele>216.43</ele>
        <time>2012-05-13T12:27:18Z</time>
      </trkpt>
      <trkpt lat="46.28613" lon="4.76521">
        <ele>217.4</ele>
        <time>2012-05-13T12:27:59Z</time>
      </trkpt>
      <trkpt lat="46.28613" lon="4.76521">
        <ele>216.91</ele>
        <time>2012-05-13T12:28:48Z</time>
      </trkpt>
    </trkseg>
  </trk>
</gpx>